[[{"header":{"parameterUnit":"m.s-1","parameterCategory":1,"la1":30.6,"la2":28.766,"lo1":-90.7593,"lo2":-88.6598,"dy":0.0162,"dx":0.0183,"nx":116,"ny":114,"refTime":"2023-09-10T18:00:00:Z","depth":0,"parameterNumber":2,"parameterNumberName":"U-component_of_WINDS"},"data":[0.0,0.0,0.0,0.0,0.0,0.0,0.0,0.0,0.0,0.0,0.0,0.0,0.0,0.0,0.0,0.0,0.0,0.0,0.0,0.0,0.0,0.0,0.0,0.0,0.0,0.0,0.0,0.0,0.0,0.0,0.0,0.0,0.0,0.0,0.0,0.0,0.0,0.0,0.0,0.0,0.0,0.0,0.0,0.0,0.0,0.0,0.0,0.0,0.0,0.0,0.0,0.0,0.0,0.0,0.0,0.0,0.0,0.0,0.0,0.0,0.0,0.0,0.0,0.0,0.0,0.0,0.0,0.0,0.0,0.0,0.0,0.0,0.0,0.0,0.0,0.0,0.0,0.0,0.0,0.0,0.0,0.0,0.0,0.0,0.0,0.0,0.0,0.0,0.0,0.0,0.0,0.0,0.0,0.0,0.0,0.0,0.0,0.0,0.0,0.0,0.0,0.0,0.0,0.0,0.0,0.0,0.0,0.0,0.0,0.0,0.0,0.0,0.0,0.0,0.0,0.0,0.0,0.0,0.0,0.0,0.0,0.0,0.0,0.0,0.0,0.0,0.0,0.0,0.0,0.0,0.0,0.0,0.0,0.0,0.0,0.0,0.0,0.0,0.0,0.0,0.0,0.0,0.0,0.0,0.0,0.0,0.0,0.0,0.0,0.0,0.0,0.0,0.0,0.0,0.0,0.0,0.0,0.0,0.0,0.0,0.0,0.0,0.0,0.0,0.0,0.0,0.0,0.0,0.0,0.0,0.0,0.0,0.0,0.0,0.0,0.0,0.0,0.0,0.0,0.0,0.0,0.0,0.0,0.0,0.0,0.0,0.0,0.0,0.0,0.0,0.0,0.0,0.0,0.0,0.0,0.0,0.0,0.0,0.0,0.0,0.0,0.0,0.0,0.0,0.0,0.0,0.0,0.0,0.0,0.0,0.0,0.0,0.0,0.0,0.0,0.0,0.0,0.0,0.0,0.0,0.0,0.0,0.0,0.0,0.0,0.0,0.0,0.0,0.0,0.0,0.0,0.0,0.0,0.0,0.0,0.0,0.0,0.0,0.0,0.0,0.0,0.0,0.0,0.0,0.0,0.0,0.0,0.0,0.0,0.0,0.0,0.0,0.0,0.0,0.0,0.0,0.0,0.0,0.0,0.0,0.0,0.0,0.0,0.0,0.0,0.0,0.0,0.0,0.0,0.0,0.0,0.0,0.0,0.0,0.0,0.0,0.0,0.0,0.0,0.0,0.0,0.0,0.0,0.0,0.0,0.0,0.0,0.0,0.0,0.0,0.0,0.0,0.0,0.0,0.0,0.0,0.0,0.0,0.0,0.0,0.0,0.0,0.0,0.0,0.0,0.0,0.0,0.0,0.0,0.0,0.0,0.0,0.0,0.0,0.0,0.0,0.0,0.0,0.0,0.0,0.0,0.0,0.0,0.0,0.0,0.0,0.0,0.0,0.0,0.0,0.0,0.0,0.0,0.0,0.0,0.0,0.0,0.0,0.0,0.0,0.0,0.0,0.0,0.0,0.0,0.0,0.0,0.0,0.0,0.0,0.0,0.0,0.0,0.0,0.0,0.0,0.0,0.0,0.0,0.0,0.0,0.0,0.0,0.0,0.0,0.0,0.0,0.0,0.0,0.0,0.0,0.0,0.0,0.0,0.0,0.0,0.0,0.0,0.0,0.0,0.0,0.0,0.0,0.0,0.0,0.0,0.0,0.0,0.0,0.0,0.0,0.0,0.0,0.0,0.0,0.0,0.0,0.0,0.0,0.0,0.0,0.0,0.0,0.0,0.0,0.0,0.0,0.0,0.0,0.0,0.0,0.0,0.0,0.0,0.0,0.0,0.0,0.0,0.0,0.0,0.0,0.0,0.0,0.0,0.0,0.0,0.0,0.0,0.0,0.0,0.0,0.0,0.0,0.0,0.0,0.0,0.0,0.0,0.0,0.0,0.0,0.0,0.0,0.0,0.0,0.0,0.0,0.0,0.0,0.0,0.0,0.0,0.0,0.0,0.0,0.0,0.0,0.0,0.0,0.0,0.0,0.0,0.0,0.0,0.0,0.0,0.0,0.0,0.0,0.0,0.0,0.0,0.0,0.0,0.0,0.0,0.0,0.0,0.0,0.0,0.0,0.0,0.0,0.0,0.0,0.0,0.0,0.0,0.0,0.0,0.0,0.0,0.0,0.0,0.0,0.0,0.0,0.0,0.0,0.0,0.0,0.0,0.0,0.0,0.0,0.0,0.0,0.0,0.0,0.0,0.0,0.0,0.0,0.0,0.0,0.0,0.0,0.0,0.0,0.0,0.0,0.0,0.0,0.0,0.0,0.0,0.0,0.0,0.0,0.0,0.0,0.0,0.0,0.0,0.0,0.0,0.0,0.0,0.0,0.0,0.0,0.0,0.0,0.0,0.0,0.0,0.0,0.0,0.0,0.0,0.0,0.0,0.0,0.0,0.0,0.0,0.0,0.0,0.0,0.0,0.0,0.0,0.0,0.0,0.0,0.0,0.0,0.0,0.0,0.0,0.0,0.0,0.0,0.0,0.0,0.0,0.0,0.0,0.0,0.0,0.0,0.0,0.0,0.0,0.0,0.0,0.0,0.0,0.0,0.0,0.0,0.0,0.0,0.0,0.0,0.0,0.0,0.0,0.0,0.0,0.0,0.0,0.0,0.0,0.0,0.0,0.0,0.0,0.0,0.0,0.0,0.0,0.0,0.0,0.0,0.0,0.0,0.0,0.0,0.0,0.0,0.0,0.0,0.0,0.0,0.0,0.0,0.0,0.0,0.0,0.0,0.0,0.0,0.0,0.0,0.0,0.0,0.0,0.0,0.0,0.0,0.0,0.0,0.0,0.0,0.0,0.0,0.0,0.0,0.0,0.0,0.0,0.0,0.0,0.0,0.0,0.0,0.0,0.0,0.0,0.0,0.0,0.0,0.0,0.0,0.0,0.0,0.0,0.0,0.0,0.0,0.0,0.0,0.0,0.0,0.0,0.0,0.0,0.0,0.0,0.0,0.0,0.0,0.0,0.0,0.0,0.0,0.0,0.0,0.0,0.0,0.0,0.0,0.0,0.0,0.0,0.0,0.0,0.0,0.0,0.0,0.0,0.0,0.0,0.0,0.0,0.0,0.0,0.0,0.0,0.0,0.0,0.0,0.0,0.0,0.0,0.0,0.0,0.0,0.0,0.0,0.0,0.0,0.0,0.0,0.0,0.0,0.0,0.0,0.0,0.0,0.0,0.0,0.0,0.0,0.0,0.0,0.0,0.0,0.0,0.0,0.0,0.0,0.0,0.0,0.0,0.0,0.0,0.0,0.0,0.0,0.0,0.0,0.0,0.0,0.0,0.0,0.0,0.0,0.0,0.0,0.0,0.0,0.0,0.0,0.0,0.0,0.0,0.0,0.0,0.0,0.0,0.0,0.0,0.0,0.0,0.0,0.0,0.0,0.0,0.0,0.0,0.0,0.0,0.0,0.0,0.0,0.0,0.0,0.0,0.0,0.0,0.0,0.0,0.0,0.0,0.0,0.0,0.0,0.0,0.0,0.0,0.0,0.0,0.0,0.0,0.0,0.0,0.0,0.0,0.0,0.0,0.0,0.0,0.0,0.0,0.0,0.0,0.0,0.0,0.0,0.0,0.0,0.0,0.0,0.0,0.0,0.0,0.0,0.0,0.0,0.0,0.0,0.0,0.0,0.0,0.0,0.0,0.0,0.0,0.0,0.0,0.0,0.0,0.0,0.0,0.0,0.0,0.0,0.0,0.0,0.0,0.0,0.0,0.0,0.0,0.0,0.0,0.0,0.0,0.0,0.0,0.0,0.0,0.0,0.0,0.0,0.0,0.0,0.0,0.0,0.0,0.0,0.0,0.0,0.0,0.0,0.0,0.0,0.0,0.0,0.0,0.0,0.0,0.0,0.0,0.0,0.0,0.0,0.0,0.0,0.0,0.0,0.0,0.0,0.0,0.0,0.0,0.0,0.0,0.0,0.0,0.0,0.0,0.0,0.0,0.0,0.0,0.0,0.0,0.0,0.0,0.0,0.0,0.0,0.0,0.0,0.0,0.0,0.0,0.0,0.0,0.0,0.0,0.0,0.0,0.0,0.0,0.0,0.0,0.0,0.0,0.0,0.0,0.0,0.0,0.0,0.0,0.0,0.0,0.0,0.0,0.0,0.0,0.0,0.0,0.0,0.0,0.0,0.0,0.0,0.0,0.0,0.0,0.0,0.0,0.0,0.0,0.0,0.0,0.0,0.0,0.0,0.0,0.0,0.0,0.0,0.0,0.0,0.0,0.0,0.0,0.0,0.0,0.0,0.0,0.0,0.0,0.0,0.0,0.0,0.0,0.0,0.0,0.0,0.0,0.0,0.0,0.0,0.0,0.0,0.0,0.0,0.0,0.0,0.0,0.0,0.0,0.0,0.0,0.0,0.0,0.0,0.0,0.0,0.0,0.0,0.0,0.0,0.0,0.0,0.0,0.0,0.0,0.0,0.0,0.0,0.0,0.0,0.0,0.0,0.0,0.0,0.0,0.0,0.0,0.0,0.0,0.0,0.0,0.0,0.0,0.0,0.0,0.0,0.0,0.0,0.0,0.0,0.0,0.0,0.0,0.0,0.0,0.0,0.0,0.0,0.0,0.0,0.0,0.0,0.0,0.0,0.0,0.0,0.0,0.0,0.0,0.0,0.0,0.0,0.0,0.0,0.0,0.0,0.0,0.0,0.0,0.0,0.0,0.0,0.0,0.0,0.0,0.0,0.0,0.0,0.0,0.0,0.0,0.0,0.0,0.0,0.0,0.0,0.0,0.0,0.0,0.0,0.0,0.0,0.0,0.0,0.0,0.0,0.0,0.0,0.0,0.0,0.0,0.0,0.0,0.0,0.0,0.0,0.0,0.0,0.0,0.0,0.0,0.0,0.0,0.0,0.0,0.0,0.0,0.0,0.0,0.0,0.0,0.0,0.0,0.0,0.0,0.0,0.0,0.0,0.0,0.0,0.0,0.0,0.0,0.0,0.0,0.0,0.0,0.0,0.0,0.0,0.0,0.0,0.0,0.0,0.0,0.0,0.0,0.0,0.0,0.0,0.0,0.0,0.0,0.0,0.0,0.0,0.0,0.0,0.0,0.0,0.0,0.0,0.0,0.0,0.0,0.0,0.0,0.0,0.0,0.0,0.0,0.0,0.0,0.0,0.0,0.0,0.0,0.0,0.0,0.0,0.0,0.0,0.0,0.0,0.0,0.0,0.0,0.0,0.0,0.0,0.0,0.0,0.0,0.0,0.0,0.0,0.0,0.0,0.0,0.0,0.0,0.0,0.0,0.0,0.0,0.0,0.0,0.0,0.0,0.0,0.0,0.0,0.0,0.0,0.0,0.0,0.0,0.0,0.0,0.0,0.0,0.0,0.0,0.0,0.0,0.0,0.0,0.0,0.0,0.0,0.0,0.0,0.0,0.0,0.0,0.0,0.0,0.0,0.0,0.0,0.0,0.0,0.0,0.0,0.0,0.0,0.0,0.0,0.0,0.0,0.0,0.0,0.0,0.0,0.0,0.0,0.0,0.0,0.0,0.0,0.0,0.0,0.0,0.0,0.0,0.0,0.0,0.0,0.0,0.0,0.0,0.0,0.0,0.0,0.0,0.0,0.0,0.0,0.0,0.0,0.0,0.0,0.0,0.0,0.0,0.0,0.0,0.0,0.0,0.0,0.0,0.0,0.0,0.0,0.0,0.0,0.0,0.0,0.0,0.0,0.0,0.0,0.0,0.0,0.0,0.0,0.0,0.0,0.0,0.0,0.0,0.0,0.0,0.0,0.0,0.0,0.0,0.0,0.0,0.0,0.0,0.0,0.0,0.0,0.0,0.0,0.0,0.0,0.0,0.0,0.0,0.0,0.0,0.0,0.0,0.0,0.0,0.0,0.0,0.0,0.0,0.0,0.0,0.0,0.0,0.0,0.0,0.0,0.0,0.0,0.0,0.0,0.0,0.0,0.0,0.0,0.0,0.0,0.0,0.0,0.0,0.0,0.0,0.0,0.0,0.0,0.0,0.0,0.0,0.0,0.0,0.0,0.0,0.0,0.0,0.0,0.0,0.0,0.0,0.0,0.0,-4.4525,0.0,0.0,0.0,0.0,0.0,0.0,0.0,0.0,0.0,0.0,0.0,0.0,0.0,0.0,0.0,0.0,0.0,0.0,0.0,0.0,0.0,0.0,0.0,0.0,0.0,0.0,0.0,0.0,0.0,0.0,0.0,0.0,0.0,0.0,0.0,0.0,0.0,0.0,0.0,-3.5191,-3.6442,-3.7756,-3.7558,-3.7475,-3.7471,0.0,0.0,0.0,0.0,0.0,0.0,0.0,0.0,0.0,0.0,0.0,0.0,0.0,0.0,0.0,0.0,0.0,0.0,0.0,0.0,0.0,0.0,0.0,0.0,0.0,0.0,0.0,0.0,0.0,0.0,0.0,0.0,0.0,0.0,0.0,0.0,0.0,0.0,0.0,0.0,0.0,0.0,0.0,0.0,0.0,0.0,0.0,0.0,0.0,0.0,0.0,0.0,0.0,0.0,0.0,0.0,0.0,0.0,0.0,0.0,0.0,0.0,0.0,0.0,0.0,0.0,0.0,0.0,0.0,0.0,0.0,-4.568,0.0,0.0,0.0,0.0,0.0,0.0,0.0,0.0,0.0,0.0,0.0,0.0,0.0,0.0,0.0,0.0,0.0,0.0,0.0,0.0,0.0,0.0,0.0,0.0,0.0,0.0,0.0,0.0,0.0,0.0,0.0,0.0,0.0,0.0,0.0,-3.3351,-3.386,-3.48,-3.6139,-3.7523,-3.8914,-3.978,-3.9643,-3.8643,-3.8362,0.0,0.0,0.0,0.0,0.0,0.0,0.0,0.0,0.0,0.0,0.0,0.0,0.0,0.0,0.0,0.0,0.0,0.0,0.0,0.0,0.0,0.0,0.0,0.0,0.0,0.0,0.0,0.0,0.0,0.0,0.0,0.0,0.0,0.0,0.0,0.0,0.0,0.0,0.0,0.0,0.0,0.0,0.0,0.0,0.0,0.0,0.0,0.0,0.0,0.0,0.0,0.0,0.0,0.0,0.0,0.0,0.0,0.0,0.0,0.0,0.0,0.0,0.0,-5.1837,-5.2505,-5.2507,-5.265,-5.3116,-5.3729,-5.1618,-5.0174,-4.9101,0.0,0.0,0.0,0.0,0.0,0.0,0.0,0.0,0.0,0.0,0.0,0.0,0.0,0.0,0.0,0.0,0.0,0.0,0.0,0.0,0.0,0.0,0.0,-3.4254,-3.7001,-3.5883,-3.5012,0.0,0.0,0.0,0.0,0.0,0.0,-3.294,-3.2754,-3.3461,-3.5125,-3.7659,-3.9298,-4.0099,-4.091,-4.1299,-4.1273,-4.0384,-3.9978,-3.9935,0.0,0.0,0.0,0.0,0.0,0.0,0.0,0.0,0.0,0.0,0.0,0.0,0.0,0.0,0.0,0.0,0.0,0.0,0.0,0.0,0.0,0.0,0.0,0.0,0.0,0.0,0.0,0.0,0.0,0.0,0.0,0.0,0.0,0.0,0.0,0.0,0.0,0.0,0.0,0.0,0.0,-4.6266,-4.7283,0.0,0.0,0.0,0.0,0.0,0.0,0.0,0.0,0.0,0.0,0.0,0.0,0.0,0.0,-5.0272,-5.333,-5.4553,-5.3965,-5.7074,-5.8249,-5.7725,-5.7859,-5.8064,-5.832,-5.7988,0.0,-5.0975,-4.9824,0.0,0.0,0.0,0.0,0.0,0.0,0.0,0.0,0.0,0.0,0.0,0.0,0.0,0.0,0.0,0.0,0.0,0.0,0.0,0.0,0.0,-3.4147,-3.6163,-3.8422,-3.8937,-3.8558,-3.7221,0.0,0.0,0.0,0.0,-3.1458,-3.2161,-3.2667,-3.4207,-3.6753,-3.9068,-4.0337,-4.0677,-4.2187,-4.2523,-4.1864,-4.1745,-4.1358,-4.0687,-4.0021,0.0,0.0,0.0,0.0,0.0,0.0,0.0,0.0,0.0,0.0,0.0,0.0,0.0,0.0,0.0,0.0,0.0,0.0,0.0,0.0,0.0,0.0,0.0,0.0,0.0,0.0,0.0,0.0,0.0,0.0,0.0,0.0,0.0,0.0,0.0,0.0,0.0,0.0,0.0,-4.4311,-4.6746,-4.6448,-4.7206,-4.634,0.0,0.0,0.0,0.0,0.0,0.0,0.0,0.0,0.0,-5.2092,-5.2663,-5.3618,-5.5006,-5.6879,-5.7679,-5.7386,-5.9427,-6.0273,-6.0005,-6.0242,-6.0132,-5.9768,-5.9842,-5.8047,-5.4863,-5.2558,-4.9648,-4.6406,0.0,0.0,0.0,0.0,0.0,-4.2949,0.0,0.0,0.0,0.0,0.0,0.0,0.0,0.0,0.0,0.0,0.0,0.0,-3.2017,-3.4927,-3.7273,-3.8846,-4.0358,-4.0268,-3.7974,-3.6418,0.0,0.0,-3.1191,-3.1039,-3.1687,-3.2898,-3.4734,-3.7262,-3.9066,-3.9939,-3.9982,-4.1701,-4.1948,-4.0986,-4.1414,-4.1583,-4.1464,-4.0683,-3.938,-3.7812,0.0,0.0,0.0,0.0,0.0,0.0,0.0,0.0,0.0,0.0,0.0,0.0,0.0,0.0,0.0,0.0,0.0,0.0,0.0,0.0,0.0,0.0,0.0,0.0,0.0,0.0,0.0,0.0,0.0,0.0,0.0,0.0,0.0,0.0,0.0,0.0,0.0,-4.6394,-4.823,-4.6488,-4.9176,-4.9136,0.0,0.0,0.0,0.0,0.0,0.0,-5.0534,-5.1832,-5.3505,-5.5649,-5.6316,-5.7396,-5.8915,-5.9531,-5.9838,-5.9838,-6.0586,-6.0962,-6.0995,-6.1048,-6.0722,-6.0148,-6.0041,-5.9196,-5.7594,-5.4354,-5.164,-4.9277,-4.6679,-4.4609,-4.3242,-4.4766,-4.4785,-4.4473,0.0,0.0,0.0,0.0,0.0,0.0,0.0,0.0,0.0,0.0,0.0,-2.9342,-3.1842,-3.4123,-3.599,-3.721,-3.7815,-3.7345,-3.5505,-3.4361,-3.3119,-3.1796,-3.0656,-3.0654,-3.1959,-3.3363,-3.4462,-3.5253,-3.6634,-3.7308,-3.7416,-3.8126,-3.8446,-3.839,-3.8418,-4.0001,-4.2433,-3.9752,-3.8595,-3.8352,-3.6054,0.0,0.0,0.0,0.0,0.0,0.0,0.0,0.0,0.0,0.0,0.0,0.0,0.0,0.0,0.0,0.0,0.0,0.0,0.0,0.0,0.0,0.0,0.0,0.0,0.0,0.0,0.0,0.0,0.0,0.0,0.0,0.0,0.0,0.0,0.0,0.0,0.0,0.0,-5.0647,-5.4648,0.0,0.0,0.0,0.0,-4.9009,-4.9767,-5.1412,-5.4013,-5.4224,-5.5802,-5.9146,-5.93,-5.9742,-6.0666,-6.0704,-6.0723,-6.0742,-6.0785,-6.0882,-6.0967,-6.0237,-5.9927,-5.998,-5.9274,-5.8487,-5.7514,-5.4976,-5.2871,-5.1016,-4.8476,-4.6406,-4.498,-4.5898,-4.5683,-4.5195,0.0,0.0,0.0,0.0,0.0,0.0,0.0,0.0,0.0,-2.3245,-2.5973,-2.8448,-2.9954,-3.2974,-3.5554,-3.7263,-3.831,-3.831,-3.7028,-3.5177,-3.3112,-3.0905,-3.0052,-3.0351,-3.1899,-3.3184,-3.4315,-3.5221,-3.6552,-3.679,-3.6057,-3.716,-3.7464,-3.709,-3.7867,-3.8808,-3.9825,-4.0067,-3.9704,-3.8947,-3.8238,-3.6735,0.0,0.0,0.0,0.0,0.0,0.0,0.0,0.0,0.0,0.0,0.0,0.0,0.0,0.0,0.0,0.0,0.0,0.0,0.0,0.0,0.0,0.0,0.0,0.0,0.0,0.0,0.0,0.0,0.0,0.0,0.0,0.0,0.0,0.0,0.0,0.0,0.0,-5.2068,-5.5498,0.0,-5.1486,-5.2131,-5.2736,-5.2505,-5.4345,-5.6129,-5.7593,-5.8758,-5.9904,-6.1127,-6.1166,-6.132,-6.1639,-6.0512,-6.0242,-6.0781,-6.0223,-6.028,-6.0852,-6.0121,-5.9517,-5.8993,-5.8256,-5.7533,-5.6704,-5.4695,-5.3565,-5.293,-5.1465,-4.9844,-4.8379,-4.8691,-4.8262,-4.7598,0.0,0.0,0.0,0.0,0.0,0.0,0.0,0.0,0.0,-2.1706,-2.4541,-2.7104,-2.8535,-3.1674,-3.4361,-3.6028,-3.6985,-3.6952,-3.5676,-3.3633,-3.1558,-2.9472,-2.9059,-2.9324,-3.0352,-3.2011,-3.3212,-3.3923,-3.538,-3.5599,-3.462,-3.5084,-3.5299,-3.5291,-3.5683,-3.6389,-3.7414,-3.87,-3.8803,-3.813,-3.7796,-3.7021,-3.5916,0.0,0.0,0.0,0.0,0.0,0.0,0.0,0.0,0.0,0.0,0.0,0.0,0.0,0.0,0.0,0.0,0.0,0.0,0.0,0.0,0.0,0.0,0.0,0.0,0.0,0.0,0.0,0.0,0.0,0.0,0.0,0.0,0.0,0.0,0.0,-5.4893,-5.2741,-5.6569,-5.767,-5.3267,-5.5009,-5.633,-5.6076,-5.7977,-5.9377,-5.9915,-6.1031,-6.1658,-6.1658,-6.1658,-6.1658,-6.1658,-6.0512,-6.0089,-6.0339,-5.9781,-5.9665,-5.9927,-5.9195,-5.8539,-5.7939,-5.7201,-5.6486,-5.5738,-5.4687,-5.3934,-5.3413,-5.2578,-5.123,-4.9766,-4.9766,-4.9023,-4.8027,0.0,0.0,0.0,0.0,0.0,0.0,0.0,0.0,-2.0375,-2.0753,-2.2919,-2.5324,-2.7678,-3.0191,-3.2123,-3.3271,-3.3467,-3.2791,-3.1021,-2.9467,-2.8252,-2.7544,-2.7642,-2.7591,-2.741,-2.9855,-3.1075,-3.1075,-3.285,-3.3446,-3.2907,-3.166,-3.1748,-3.2864,-3.1629,-3.2704,-3.5358,-3.5371,-3.5583,-3.5807,-3.4489,-3.493,-3.6142,0.0,0.0,0.0,0.0,0.0,0.0,0.0,0.0,0.0,0.0,0.0,0.0,0.0,0.0,0.0,0.0,0.0,0.0,0.0,0.0,0.0,0.0,0.0,0.0,0.0,0.0,0.0,0.0,0.0,0.0,0.0,0.0,0.0,-5.0138,-5.3989,-5.5835,-5.3059,-5.824,-6.0357,-5.6062,-5.8777,-6.0454,-5.9608,-6.0319,-6.08,-6.08,-6.08,-6.08,-6.08,-6.08,-6.08,-6.08,-6.0742,-6.03,-5.9492,-5.9454,-5.9031,-5.828,-5.7357,-5.6964,-5.6917,-5.6142,-5.5373,-5.4691,-5.4905,-5.4006,-5.2399,-5.1676,-5.0391,-4.8926,-4.8887,-4.7773,-4.6308,0.0,0.0,0.0,0.0,0.0,0.0,0.0,-1.8238,-1.8841,-1.8813,-2.1157,-2.3213,-2.4225,-2.5657,-2.7061,-2.8411,-2.7931,-2.7862,-2.8544,-2.7023,-2.5985,-2.5814,-2.5574,-2.6051,-2.7307,-2.8391,-2.8958,-2.8958,-2.9456,-2.9444,-2.8901,-2.8548,-2.8548,-2.8912,-2.8927,-2.9407,-3.0185,-3.0533,-3.0949,-3.1676,-3.4928,-3.6467,-3.6664,0.0,0.0,0.0,0.0,0.0,0.0,0.0,0.0,0.0,0.0,0.0,0.0,0.0,0.0,0.0,0.0,0.0,0.0,0.0,0.0,0.0,0.0,0.0,0.0,0.0,0.0,0.0,0.0,0.0,0.0,0.0,0.0,-5.2801,-5.3748,-5.6402,-5.8195,-5.803,-5.9559,-6.0168,-5.8948,-6.0028,-6.0704,-6.0454,-6.0666,-6.08,-6.08,-6.08,-6.08,-6.08,-6.08,-6.08,-6.08,-5.9588,-5.9165,-5.9492,-5.8261,-5.7896,-5.8261,-5.6742,-5.6049,-5.5983,-5.4554,-5.3865,-5.37,-5.3152,-5.2352,-5.1487,-5.1417,-5.0762,-4.9687,-4.8418,-4.7246,-4.6308,0.0,0.0,0.0,0.0,0.0,0.0,0.0,-1.7032,-1.7189,-1.6623,-1.8509,-2.0354,-2.1421,-2.2239,-2.3364,-2.5022,-2.4543,-2.4476,-2.5185,-2.44,-2.3887,-2.3863,-2.4175,-2.4813,-2.5817,-2.6824,-2.7261,-2.7063,-2.7752,-2.7865,-2.7369,-2.7027,-2.717,-2.7622,-2.7414,-2.7634,-2.8136,-2.8385,-2.8914,-2.9863,-3.2964,-3.5077,-3.6306,-3.5557,-3.5913,-3.669,-3.5562,-3.5725,-3.6388,-3.5629,0.0,0.0,0.0,0.0,0.0,0.0,0.0,0.0,0.0,0.0,0.0,0.0,0.0,0.0,0.0,0.0,0.0,0.0,0.0,0.0,0.0,0.0,0.0,0.0,-5.2757,-5.5178,-5.727,-5.8597,-5.9531,-6.0027,-6.0103,-6.0103,-6.0103,-6.0521,-6.08,-6.08,-6.08,-6.08,-6.08,-6.08,-6.08,-6.08,-6.08,-6.08,-6.08,-5.9473,-5.8877,-5.8973,-5.7638,-5.6907,-5.6684,-5.6011,-5.5318,0.0,-5.401,-5.3369,-5.2704,-5.1916,-5.1153,0.0,0.0,0.0,0.0,0.0,-4.6697,-4.6308,0.0,0.0,0.0,0.0,0.0,0.0,0.0,-1.593,-1.5513,-1.4422,-1.5601,-1.718,-1.8831,-1.9479,-2.0524,-2.2319,-2.2332,-2.2097,-2.1722,-2.201,-2.216,-2.2113,-2.3231,-2.3796,-2.3677,-2.5098,-2.5633,-2.5162,-2.666,-2.7208,-2.687,-2.6227,-2.6518,-2.7517,-2.6616,-2.6813,-2.7833,-2.7946,-2.8497,-2.9364,-2.9914,-3.2124,-3.5048,-3.492,-3.5994,-3.7459,-3.6335,-3.6477,-3.7116,-3.6646,0.0,0.0,0.0,0.0,0.0,0.0,0.0,0.0,0.0,0.0,0.0,0.0,0.0,0.0,0.0,0.0,0.0,0.0,0.0,0.0,0.0,0.0,0.0,0.0,-5.5731,-5.7417,-6.0225,-6.0224,-5.9931,-5.9931,-5.9996,-6.0025,-6.0025,-6.0495,-6.08,-6.08,-6.08,-6.08,-6.08,0.0,0.0,0.0,0.0,-6.0742,-6.0646,-5.98,-5.8954,-5.8146,-5.7261,-5.6079,-5.4645,-5.5184,-5.4607,-5.3241,-5.3818,-5.3145,-5.1578,-5.0985,-5.0162,-4.9313,-4.9453,-4.85,-4.6971,-4.6329,-4.615,0.0,0.0,0.0,0.0,0.0,0.0,0.0,0.0,-1.5059,-1.4135,-1.2948,-1.4145,-1.5032,-1.4798,-1.6298,-1.749,-1.7998,-1.8859,-1.9879,-2.1073,-2.1335,-2.1671,-2.2252,-2.2592,-2.2791,-2.2754,-2.309,-2.304,-2.2613,-2.2934,-2.3059,-2.302,-2.3588,-2.4019,-2.4275,-2.5265,-2.5861,-2.6151,-2.6956,-2.7404,-2.7695,-2.9026,-3.0689,-3.2471,-3.2734,-3.4035,-3.5519,-3.4799,-3.5899,-3.7711,-3.7625,-3.7506,-3.7591,-3.8574,-3.7294,0.0,0.0,0.0,0.0,0.0,0.0,0.0,0.0,0.0,0.0,0.0,0.0,0.0,0.0,0.0,0.0,0.0,0.0,0.0,-5.4137,-5.6157,-5.8052,-6.0282,-5.9666,-5.8971,-5.8971,-5.9302,-5.9545,-5.9545,-6.0311,-6.08,-6.08,-6.08,-6.08,-6.08,-6.08,0.0,-6.08,-6.08,-6.0454,-5.9762,-5.8934,-5.8107,-5.7253,0.0,0.0,-5.5434,-5.4222,-5.351,-5.3126,-5.1952,-5.0837,-4.9875,-4.9739,-4.8794,-4.745,-4.7623,-4.7075,-4.6137,-4.5982,-4.5956,-4.5984,0.0,0.0,0.0,0.0,0.0,0.0,0.0,-1.406,-1.3019,-1.1397,-1.2093,-1.2629,-1.2336,-1.3413,-1.4448,-1.5183,-1.666,-1.8276,-1.9934,-2.0643,-2.1068,-2.1254,-2.1522,-2.1342,-2.0573,-2.1085,-2.1142,-2.0737,-2.1298,-2.1827,-2.2321,-2.3221,-2.4404,-2.5774,-2.6649,-2.7618,-2.8575,-2.8338,-2.8299,-2.8462,-2.8965,-2.9545,-3.0175,-3.1502,-3.2808,-3.4037,-3.4165,-3.5686,-3.7592,-3.7503,-3.7859,-3.8404,-3.8979,-3.7903,-3.6466,0.0,0.0,0.0,0.0,0.0,0.0,0.0,0.0,0.0,0.0,0.0,0.0,0.0,0.0,-4.5126,0.0,0.0,-5.2735,-5.6371,-5.7728,-5.8714,-5.975,-5.9004,-5.8439,-5.8674,-5.8913,-5.914,-5.9372,-6.004,-6.0553,-6.0769,-6.08,-6.08,-6.08,-6.08,-6.08,-6.08,-6.0377,-5.9935,-5.9492,-5.8261,-5.7434,-5.6983,-5.6107,-5.5261,-5.4434,-5.403,-5.3145,-5.1895,-5.1058,-5.0212,-4.9336,-4.849,-4.7394,-4.6266,-4.6354,-4.6169,-4.5839,-4.5839,-4.5872,-4.5893,0.0,0.0,0.0,0.0,0.0,0.0,0.0,0.0,-1.2142,-1.0129,-1.0365,-1.0703,-1.0584,-1.1183,-1.2156,-1.3434,-1.509,-1.6785,-1.8467,-1.9521,-2.0051,-1.9898,-2.0247,-1.9851,-1.853,-1.9541,-1.997,-1.9773,-2.0825,-2.1963,-2.3128,-2.4163,-2.5937,-2.8308,-2.8944,-3.0264,-3.1961,-3.0977,-3.0601,-3.0595,-3.0,-2.9386,-2.892,-3.0494,-3.1689,-3.266,-3.3458,-3.4913,-3.6498,-3.6617,-3.7287,-3.8131,-3.8246,-3.7864,-3.724,-3.6333,-3.6351,0.0,0.0,0.0,0.0,0.0,0.0,0.0,0.0,0.0,-4.0811,-4.3975,-4.545,-4.7331,-5.1185,-5.2824,-5.4766,-5.8403,-5.9113,-5.9184,-5.9184,-5.851,-5.8086,-5.8303,-5.8541,-5.8894,-5.9354,-5.982,-6.0278,-6.0757,-6.08,-6.0723,-6.055,-6.055,-6.0473,-6.0319,-5.9627,-5.9184,-5.9011,-5.7676,-5.6849,-5.6522,-5.5799,-5.4587,-5.2972,-5.3664,-5.2702,-5.0442,-5.0087,-4.9548,-4.8798,-4.7278,-4.622,-4.5594,-4.5594,-4.5665,-4.5768,-4.5768,-4.5796,-4.5846,0.0,0.0,0.0,0.0,0.0,0.0,0.0,0.0,0.0,-0.9654,-1.0055,-1.0118,-0.9081,-1.0387,-1.1805,-1.2967,-1.3965,-1.5156,-1.6597,-1.7313,-1.8017,-1.8768,-1.8836,-1.8607,-1.8079,-1.9103,-1.9866,-2.0314,-2.1367,-2.2835,-2.4601,-2.6181,-2.7511,-2.8665,-3.1058,-3.2659,-3.3621,-3.4405,-3.4484,-3.397,-3.2972,-3.1551,-2.991,-2.9094,-2.9773,-3.121,-3.1329,-3.2301,-3.3708,-3.4716,-3.5161,-3.5531,-3.705,-3.7319,-3.6852,-3.5927,-3.5121,-3.417,-3.254,-3.2675,-3.4099,-3.7576,-3.7576,-3.8388,0.0,0.0,-4.5194,-4.8347,-5.0285,-5.1827,-5.3058,-5.5023,-5.6814,-5.8027,-5.8768,-5.9184,-5.9184,-5.851,-5.7744,-5.7095,-5.8016,-5.8894,-5.9354,-5.982,-6.0278,-6.0757,-6.08,-6.0454,-5.9685,-5.9646,-5.9319,-5.8607,-5.8492,-5.8069,-5.7291,-5.7099,-5.6252,-5.478,-5.4684,-5.3722,-5.2038,-5.2154,-5.1221,-4.9452,-4.7971,-4.7278,-4.7105,-4.6144,-4.5691,-4.5594,-4.5594,-4.5612,-4.561,-4.561,-4.5627,-4.5632,0.0,0.0,0.0,0.0,0.0,0.0,0.0,0.0,0.0,0.0,-0.9647,-0.9352,-0.8448,-0.9618,-1.088,-1.1872,-1.3026,-1.4308,-1.5671,-1.6735,-1.7277,-1.7262,-1.7439,-1.729,-1.6664,-1.7721,-1.8954,-2.0391,-2.1247,-2.3022,-2.5699,-2.7029,-2.8977,-3.1482,-3.3878,-3.5811,-3.7303,-3.766,-3.7423,-3.6669,-3.5092,-3.359,-3.2086,-2.9982,-2.993,-3.0934,-3.0907,-3.154,0.0,-3.3359,-3.3628,-3.3901,-3.5278,-3.5366,-3.4882,-3.4404,-3.4245,-3.4061,-3.318,-3.3134,-3.3849,-3.6108,-3.7312,-3.9123,-4.3633,-4.4812,-4.5962,-4.9567,-5.1276,-5.2501,-5.3898,-5.5306,-5.6652,0.0,-5.8362,-5.87,-5.9137,-5.8107,-5.7189,-5.684,-5.7284,-5.7777,-5.8259,-5.9141,-5.9885,-6.0351,-6.0174,-5.9877,-5.9511,-5.9069,-5.8646,-5.8319,-5.7819,-5.7357,-5.7003,-5.6041,-5.5184,-5.4491,-5.3472,-5.2356,-5.1183,-5.0683,-4.9529,-4.7913,-4.7201,-4.6605,-4.6124,-4.5748,-4.5594,-4.5594,-4.5594,-4.5594,-4.5594,-4.5594,-4.5594,-4.5537,0.0,0.0,0.0,0.0,0.0,0.0,0.0,0.0,0.0,0.0,0.0,0.0,0.0,-0.9155,-0.9967,-1.0576,-1.1765,-1.2873,-1.3814,-1.4937,-1.5431,-1.5127,-1.5482,-1.554,-1.5269,-1.679,-1.8447,-2.0108,-2.1635,-2.4013,-2.7139,-2.8608,-3.0998,-3.4125,-3.64,-3.839,-4.0049,-4.0215,-3.9879,-3.9143,-3.7763,-3.6102,-3.4105,-3.1221,-3.0409,-3.0741,-3.0458,-3.0708,-3.1189,-3.1524,-3.1665,-3.1912,-3.2876,-3.2963,-3.2731,-3.2831,-3.3049,-3.3149,-3.2714,-3.2806,-3.3423,-3.4806,-3.7005,-3.9537,-4.238,-4.4272,-4.6366,-4.9586,-5.1128,-5.225,-5.3356,-5.4773,-5.6086,-5.6985,-5.7673,-5.829,-5.8802,-5.7685,-5.6804,-5.6804,-5.6602,-5.6614,-5.6945,-5.8128,-5.9067,-5.9543,-5.919,-5.8882,-5.8664,-5.8197,-5.7838,-5.7588,-5.6761,-5.631,-5.631,-5.4876,-5.401,-5.378,-5.2279,-5.101,-4.9952,-4.8856,-4.7817,-4.6885,-4.6644,-4.6182,-4.5594,-4.5594,-4.5594,-4.5594,-4.5594,-4.5594,-4.5594,-4.5594,-4.5594,-4.5479,0.0,0.0,0.0,0.0,0.0,0.0,0.0,0.0,0.0,0.0,0.0,0.0,0.0,-0.9141,-0.9283,-0.918,-0.9967,-1.0406,-1.0263,-1.085,-1.1514,-1.2182,-1.2672,-1.3312,-1.413,-1.6931,-1.871,-1.9444,-2.3085,-2.6322,-2.9179,-3.168,-3.3838,-3.5754,-3.8296,-3.9881,-4.0727,-4.1778,-4.1903,-4.1425,-4.156,-3.9373,-3.5646,-3.2241,-3.074,-3.0303,-2.9537,-2.9277,-2.9226,-2.8782,-2.8803,-2.9129,-2.9742,-3.0294,-3.0836,-3.1536,-3.1199,-3.0522,-3.0112,-3.0868,-3.2368,-3.4932,-3.7223,-3.9625,-4.2866,-4.5285,-4.7215,-4.8581,-5.0464,-5.1691,-5.1053,-5.3599,-5.5571,-5.4846,-5.6626,-5.809,-5.8032,-5.7317,-5.6804,-5.6804,-5.6106,-5.5651,0.0,-5.6811,-5.7754,-5.8218,-5.7893,-5.7309,-5.654,-5.6844,-5.6656,-5.5799,-5.4991,-5.4568,-5.4568,-5.3683,-5.2818,-5.1962,-5.1125,-4.9837,-4.8125,-4.6471,-4.6144,-4.6846,-4.6009,-4.5614,-4.5594,-4.5594,-4.5594,-4.5594,-4.5594,-4.5594,-4.5594,-4.5594,-4.5594,-4.5479,0.0,0.0,0.0,0.0,0.0,0.0,0.0,0.0,0.0,0.0,0.0,0.0,0.0,0.0,0.0,0.0,-0.967,-0.993,-0.9973,-1.098,-1.1417,-1.105,-1.2991,-1.4107,-1.4141,-1.5937,-1.8145,-2.0803,-2.2804,-2.5325,-2.8255,-3.0937,-3.3126,-3.4898,-3.8105,-3.9958,-4.0821,-4.2639,-4.2989,-4.2291,-4.2218,-3.9825,-3.5906,-3.2209,-3.0071,-2.8892,0.0,-2.7708,-2.8741,-2.8264,-2.8597,-2.9192,-2.9006,-2.9094,-2.926,-2.9141,-2.9355,-2.9667,-2.9757,-3.0714,-3.2319,-3.4965,-3.7332,-3.9756,-4.2337,-4.443,-4.6143,-4.732,-4.7406,-4.7497,-4.828,-4.9576,-5.1068,-5.2629,-5.4514,-5.6322,-5.7837,-5.7794,-5.7207,-5.6124,-5.6712,0.0,0.0,0.0,0.0,-5.7679,-5.6863,-5.6459,-5.6712,-5.5844,-5.5209,-5.4909,-5.4339,-5.4051,-5.4051,-5.2378,-5.1395,-5.1087,-4.9125,-4.7567,-4.6413,-4.5864,-4.5768,-4.6009,-4.5729,-4.5594,-4.5594,-4.5594,-4.5594,-4.5594,-4.5594,-4.5594,-4.5537,-4.496,-4.4739,-4.4624,0.0,0.0,0.0,0.0,0.0,0.0,0.0,0.0,0.0,0.0,0.0,0.0,0.0,0.0,0.0,0.0,0.0,-0.8826,-0.8814,-0.9578,-0.9878,-0.9535,-1.1715,-1.2946,-1.3052,-1.4916,-1.6924,-1.9062,-2.1441,-2.3908,-2.6481,-2.9794,-3.254,-3.4854,-3.7894,-3.9939,-4.115,-4.1814,-4.1923,-4.1582,-4.1015,-3.8571,-3.4845,-3.0669,-2.8789,0.0,-2.612,-2.64,-2.7654,-2.734,-2.7979,-2.8818,-2.8432,-2.8571,-2.8838,-2.8663,-2.9248,-3.0234,-3.1186,-3.2115,-3.345,-3.5866,-3.7814,-3.9615,-4.1762,-4.3313,-4.4604,-4.5749,-4.5217,-4.483,-4.5709,-4.6536,-4.7686,-4.961,-5.1189,-5.3131,-5.598,-5.6098,-5.6026,-5.6396,-5.6859,-5.6638,0.0,0.0,0.0,-5.6348,-5.5528,-5.5251,-5.5759,-5.4969,-5.4352,-5.4047,-5.3456,-5.2881,-5.2306,-5.078,-4.9786,-4.9317,-4.7682,-4.6432,-4.5594,-4.5594,-4.5594,-4.5594,-4.5594,-4.5594,-4.5594,-4.5594,-4.5594,-4.5575,-4.5267,-4.5152,-4.5037,-4.4182,-4.3662,-4.3335,0.0,0.0,0.0,0.0,0.0,0.0,0.0,0.0,0.0,0.0,0.0,0.0,0.0,0.0,0.0,0.0,0.0,0.0,-0.6924,-0.6678,-0.6917,-0.7733,-0.8999,-1.0077,-1.0919,-1.3864,-1.5189,-1.4702,-1.9136,-2.2188,-2.3946,-2.8121,-3.183,-3.5048,-3.7237,-3.933,-4.1124,-3.9279,-3.8881,-3.9373,-3.8279,-3.6013,-3.2726,-2.8182,-2.7166,-2.7878,-2.5657,-2.5327,-2.5999,-2.5955,-2.6895,-2.809,-2.8021,-2.8726,-2.961,-2.9993,-3.0834,-3.2058,-3.406,-3.4766,-3.5469,-3.7536,-3.8418,-3.9279,-4.1025,-4.189,-4.2635,-4.3723,-4.3731,-4.3416,-4.3198,-4.4366,-4.5546,-4.606,-4.72,-4.924,-5.2862,-5.2846,-5.3818,0.0,0.0,0.0,0.0,0.0,0.0,-5.4399,0.0,-5.3758,-5.3758,-5.4149,-5.3984,-5.3095,-5.2265,-5.1107,-4.9584,-4.8954,-4.802,-4.678,-4.6809,-4.6376,-4.5577,-4.5586,-4.5594,-4.5594,-4.5594,-4.5594,-4.5594,-4.5594,-4.5594,-4.5518,-4.4643,-4.4297,-4.4201,-4.3355,-4.2489,-4.1731,0.0,0.0,0.0,0.0,0.0,0.0,0.0,0.0,0.0,0.0,0.0,0.0,0.0,0.0,0.0,0.0,0.0,0.0,-0.7233,-0.6406,-0.6306,-0.7094,-0.8718,-0.9835,-1.0239,-1.2739,-1.4305,-1.4903,-1.7273,-1.9212,-2.0741,-2.3211,-2.5614,-2.788,-2.9468,-3.144,-3.3713,-3.5381,-3.6132,-3.6274,-3.6945,-3.5239,-3.2092,-3.0503,-2.8401,-2.6087,-2.4563,-2.4304,-2.4737,-2.5134,-2.6937,-2.9118,-2.9553,-3.0344,-3.1168,-3.1486,-3.2352,-3.3436,-3.4468,-3.5367,-3.6217,-3.7146,-3.8079,-3.8894,-3.9262,-4.0176,-4.0636,-3.9706,-3.8805,-3.8232,-3.8406,-4.0482,-4.2901,-4.5088,-4.9163,0.0,-5.4052,-5.607,0.0,-5.6362,0.0,-5.7666,-5.6051,-5.5519,0.0,0.0,-5.3755,-5.3359,-5.3359,-5.291,-5.2267,-5.1434,-5.0294,-4.9489,-4.9094,-4.7405,-4.6114,-4.5195,-4.5431,-4.5432,-4.5232,-4.5495,-4.5594,-4.5594,-4.5594,-4.5594,-4.5594,-4.5594,-4.5594,-4.5518,-4.4643,-4.4297,-4.4124,-4.2681,-4.1585,-4.0746,0.0,0.0,0.0,0.0,0.0,0.0,0.0,0.0,0.0,0.0,0.0,0.0,0.0,0.0,0.0,0.0,0.0,0.0,0.0,-0.6343,-0.61,-0.6782,-0.783,-0.8664,-0.9211,-1.112,-1.2345,-1.2774,-1.4715,-1.6179,-1.7224,-1.9634,-2.1795,-2.375,-2.5385,-2.7416,-2.9678,-3.0553,-3.1638,0.0,0.0,-3.156,-3.0248,-2.9744,-2.8034,-2.5694,-2.4029,-2.3932,-2.472,-2.5455,-2.7663,-3.0201,-3.0479,-3.1646,-3.2954,-3.3229,-3.4289,-3.5565,-3.6708,-3.7443,-3.8002,-3.8565,-3.8699,-3.8674,-3.8536,-3.8546,-3.824,-3.7166,-3.5986,-3.5251,-3.5567,-3.7997,-4.0569,0.0,0.0,0.0,-5.2732,-5.4815,-5.616,0.0,-5.7674,0.0,-5.6767,-5.5996,-5.5409,0.0,-5.3849,-5.3059,-5.2692,-5.2252,-5.1279,-4.9756,-4.9381,-4.8765,-4.7818,-4.596,-4.4866,-4.4593,-4.48,-4.4884,-4.4896,-4.5232,-4.539,-4.54,0.0,-4.5594,-4.5575,-4.519,-4.5037,-4.4921,-4.3682,-4.3201,-4.3008,-4.1316,-4.0392,-3.9842,0.0,0.0,0.0,0.0,0.0,0.0,0.0,0.0,0.0,0.0,0.0,0.0,0.0,0.0,0.0,0.0,0.0,0.0,0.0,0.0,-0.64,-0.6833,-0.7046,-0.7512,-0.8328,-0.9749,-1.0322,-1.0013,-1.2137,-1.3432,-1.4029,-1.6683,-1.8935,-2.0838,-2.2556,-2.4585,-2.6578,-2.5163,-2.6345,-2.899,-2.7679,-2.766,-2.8372,0.0,-2.7068,-2.6045,-2.3854,-2.3895,-2.5156,-2.6243,-2.8696,-3.1235,-3.1234,-3.278,-3.4706,-3.5141,-3.6343,-3.7839,-3.939,-3.9818,-3.9948,-4.0465,-3.9644,-3.8629,-3.8202,-3.7089,-3.5989,-3.5253,-3.4277,-3.363,-3.3811,-3.5968,-3.8342,-4.026,0.0,-4.7137,-5.0823,-5.2018,-5.3557,-5.6321,-5.7313,-5.7786,-5.7789,-5.653,-5.5581,-5.5299,-5.3885,-5.2692,-5.1867,-5.1628,-5.038,-4.7902,-4.8655,-4.8108,-4.603,-4.4631,-4.4106,-4.4447,-4.4501,-4.4514,-4.4527,-4.4884,-4.5063,-4.5107,0.0,0.0,-4.5537,-4.4662,-4.4297,-4.4124,-4.245,-4.1731,-4.145,-3.9873,-3.915,-3.8834,0.0,0.0,0.0,0.0,0.0,0.0,0.0,0.0,0.0,0.0,-1.7802,-1.5408,0.0,0.0,0.0,0.0,0.0,0.0,0.0,0.0,0.0,-0.7688,-0.8127,-0.8608,-0.9107,-1.0266,-1.0797,-1.0628,-1.145,-1.2167,-1.2813,-1.3221,-1.4259,-1.5771,-1.6108,-1.7331,-1.9212,-1.9609,-2.1994,-2.5778,-2.9136,-2.9934,-2.9091,-2.8753,0.0,0.0,-2.3905,-2.3616,-2.4536,-2.6267,-2.9084,-3.1984,-3.2714,-3.4223,-3.5909,-3.6991,-3.7935,-3.8799,-3.9649,-3.9878,-3.9886,-3.9932,-3.9783,-3.903,-3.697,-3.6286,-3.5312,-3.2466,-3.2055,-3.2094,-3.1731,-3.2697,-3.5523,-4.155,-4.5516,-4.903,-5.2584,-5.3693,-5.4465,0.0,-5.6195,-5.6743,-5.6681,-5.6442,0.0,0.0,0.0,-5.1848,-5.1041,-4.9701,-4.7829,-4.5406,-4.6122,-4.5718,-4.4022,-4.3727,-4.3631,-4.3695,-4.3974,-4.4102,-4.4117,-4.4514,-4.4837,-4.5096,0.0,0.0,-4.5537,-4.4662,-4.4297,-4.4124,-4.245,-4.1354,-4.0612,-3.965,-3.8392,-3.7026,0.0,0.0,0.0,0.0,0.0,0.0,0.0,-2.0962,-2.1689,-2.3173,-2.1697,-1.9476,-1.672,-1.5311,-1.3931,0.0,0.0,0.0,0.0,0.0,0.0,0.0,0.0,0.0,-0.9894,-1.0783,-1.1152,-1.1069,0.0,-1.1988,-1.2251,-1.2589,-1.3047,-1.3575,-1.4282,-1.521,-1.6317,-1.748,-2.0079,-2.3703,-2.7066,-2.8631,0.0,0.0,0.0,0.0,-2.4116,-2.4309,-2.5401,-2.5963,-2.8785,-3.2152,-3.31,-3.4638,-3.6321,-3.7466,-3.833,-3.9071,-3.9801,-4.0193,-4.0347,-4.0029,-3.9885,-3.9065,-3.6185,-3.5236,-3.4091,-3.1023,-3.0614,-3.0795,-3.0709,-3.2508,-3.5477,-3.9928,-4.3684,-4.7345,-5.1024,-5.2292,-5.3229,-5.4113,-5.556,-5.6087,0.0,-5.4402,0.0,0.0,0.0,-5.0021,-4.9534,-4.7553,-4.6269,-4.5957,-4.5094,-4.447,-4.4121,-4.3699,-4.3515,-4.3496,-4.3662,-4.3742,-4.374,-4.4121,-4.4143,-4.3913,-4.4277,0.0,-4.3991,-4.3293,-4.3008,-4.2835,-4.1143,-4.0239,-3.9692,-3.8265,-3.6941,-3.5726,0.0,0.0,0.0,0.0,0.0,0.0,0.0,-2.105,-2.1862,-2.4719,-2.4922,-2.3447,-1.9952,-1.7773,-1.5797,0.0,0.0,0.0,0.0,0.0,0.0,0.0,0.0,0.0,0.0,0.0,0.0,-1.1814,-1.2305,0.0,0.0,0.0,0.0,0.0,-1.474,-1.5435,-1.5905,-1.7269,-1.9587,0.0,0.0,-2.7016,0.0,0.0,0.0,0.0,0.0,-2.4742,-2.5688,-2.5597,-2.7754,-3.0747,-3.2074,-3.4054,-3.5997,-3.6743,-3.7762,-3.8791,-3.9629,-4.0277,-4.0655,-4.0343,-4.0077,-3.9059,-3.6034,-3.4778,-3.3419,-3.0485,-2.9819,-2.9844,-3.0099,-3.2781,-3.5717,-3.799,-4.0994,-4.4543,-4.8849,-5.0063,-5.1166,0.0,-5.4372,0.0,-5.2702,0.0,0.0,0.0,0.0,0.0,-4.7791,-4.5993,-4.5388,-4.6287,-4.4654,-4.3975,-4.4452,-4.3809,-4.3515,-4.3515,-4.3515,-4.3423,-4.3239,-4.3532,-4.3233,-4.2565,-4.3095,0.0,0.0,-4.1666,-4.1355,-4.1182,-3.9503,-3.8736,-3.8367,-3.6792,-3.5586,-3.4587,0.0,0.0,0.0,0.0,0.0,0.0,0.0,-2.2467,-2.3803,-2.5266,-2.5985,-2.5839,-2.4433,-2.1525,-1.8902,0.0,0.0,0.0,0.0,0.0,0.0,0.0,0.0,0.0,0.0,0.0,0.0,-1.3472,-1.3663,0.0,0.0,0.0,0.0,0.0,0.0,-1.7089,-1.7664,-1.8812,0.0,0.0,0.0,0.0,0.0,0.0,0.0,0.0,0.0,-2.3907,-2.3714,-2.5257,-2.5703,-2.6099,-2.8764,-3.197,-3.467,-3.4425,-3.5903,-3.7822,-3.8754,-3.9594,-4.0286,-4.0726,-4.0431,-3.9438,-3.7003,-3.594,-3.4488,-3.1117,-3.0021,-2.9629,-2.9654,-3.1868,-3.4605,-3.7421,-3.9006,-4.1957,-4.7866,-4.8202,-4.8925,-5.1813,0.0,0.0,-4.9447,0.0,0.0,0.0,0.0,0.0,0.0,-4.5902,-4.5186,-4.3882,-4.4323,-4.4268,-4.3608,-4.3551,-4.3515,-4.3515,-4.3515,-4.3112,-4.2415,-4.243,-4.2176,-4.1712,0.0,0.0,0.0,-4.0518,-3.9886,-3.9735,-3.8041,-3.6914,-3.6193,-3.5993,-3.4934,-3.3441,0.0,0.0,0.0,0.0,0.0,0.0,-2.0776,-2.177,-2.3227,-2.5711,-2.6517,-2.6763,-2.654,-2.4197,-2.1312,-1.8078,0.0,0.0,0.0,0.0,0.0,0.0,0.0,0.0,0.0,0.0,-1.3631,-1.4305,-1.4845,0.0,0.0,0.0,0.0,0.0,0.0,0.0,-2.0071,0.0,0.0,0.0,0.0,0.0,0.0,0.0,0.0,0.0,0.0,0.0,-2.521,-2.5517,-2.6267,-2.6987,-2.6762,-2.8775,-3.1604,-3.3441,-3.5305,-3.7081,-3.8504,-3.9707,-4.0552,-4.0449,-3.9741,-3.8578,-3.6621,-3.514,-3.3554,-3.1422,-3.0862,-3.0793,-3.0955,-3.1925,-3.3525,-3.5974,-3.6598,-3.8474,-4.3281,-4.4056,-4.5232,-4.8273,-4.9195,0.0,0.0,0.0,0.0,0.0,0.0,0.0,0.0,-4.4345,-4.4378,-4.4232,-4.4066,-4.3809,-4.3515,-4.302,-4.2782,-4.2763,-4.2286,-4.1901,-4.1572,-4.1572,-4.1209,-4.0584,0.0,0.0,0.0,-3.9307,-3.8916,-3.8746,-3.7076,-3.6207,-3.5818,-3.5127,-3.3843,-3.2371,0.0,0.0,0.0,0.0,0.0,-1.8939,-2.0667,-2.1118,-2.2428,-2.5642,-2.6536,-2.7059,-2.7656,-2.6193,-2.3856,-2.0611,-1.7313,0.0,0.0,0.0,0.0,0.0,0.0,0.0,0.0,0.0,-1.4863,-1.5683,-1.6299,-1.6991,0.0,0.0,0.0,0.0,0.0,0.0,0.0,0.0,0.0,0.0,0.0,0.0,0.0,0.0,0.0,0.0,0.0,0.0,0.0,0.0,0.0,-2.7525,-2.5654,-2.6885,-2.9504,-3.178,-3.3957,-3.5967,-3.7677,-3.9396,-4.0625,-4.0392,-3.9249,-3.7876,-3.6731,-3.4929,-3.3155,-3.1882,-3.153,-3.1496,-3.1664,-3.1825,-3.2592,-3.4631,-3.4962,-3.6174,-3.9756,-4.0662,-4.1955,0.0,0.0,0.0,0.0,0.0,0.0,0.0,0.0,0.0,0.0,-4.2449,-4.2996,-4.3707,-4.3159,-4.2845,-4.2782,-4.2231,-4.1956,-4.1937,-4.113,-4.0763,-4.0728,-4.0249,-3.9863,-3.953,0.0,0.0,0.0,-3.7736,-3.7384,-3.7253,-3.584,-3.5278,-3.5169,-3.4375,-3.3066,-3.1644,0.0,0.0,0.0,0.0,0.0,0.0,-2.0945,-2.0971,-2.1874,-2.4824,-2.5966,-2.6889,-2.7885,-2.7503,-2.6672,-2.5446,-1.9976,0.0,0.0,0.0,0.0,0.0,0.0,0.0,0.0,0.0,-1.636,-1.7963,-1.8102,-1.8701,-1.9792,-2.0453,-2.139,-2.2493,0.0,0.0,0.0,0.0,0.0,0.0,0.0,0.0,0.0,0.0,0.0,0.0,0.0,0.0,0.0,0.0,0.0,0.0,0.0,-2.7044,-2.9144,-2.8923,-3.125,-3.43,-3.5957,-3.8234,-4.0229,-4.0756,-3.9279,-3.7708,-3.778,-3.5963,-3.3935,-3.2641,-3.1828,-3.1292,-3.1215,-3.1261,-3.189,-3.3642,-3.4413,-3.5717,-3.8357,-3.875,-3.9456,0.0,0.0,0.0,0.0,0.0,0.0,0.0,0.0,0.0,0.0,-4.0391,-4.0947,-4.1429,-4.1429,-4.1325,-4.1132,-4.1113,-4.1113,-4.1095,-4.0304,-3.99,-3.9861,-3.8264,-3.797,0.0,0.0,0.0,0.0,-3.5716,-3.5037,-3.4963,-3.4151,-3.382,-3.382,-3.382,-3.2792,-3.1397,0.0,0.0,0.0,0.0,0.0,0.0,0.0,-1.9758,-2.07,-2.2313,-2.4007,-2.5372,-2.613,-2.6602,-2.6572,-2.5862,-2.2418,0.0,0.0,0.0,0.0,0.0,0.0,0.0,0.0,0.0,-1.6756,-1.7864,-1.8564,-1.9366,-2.0308,-2.191,-2.3186,-2.4176,-2.5203,0.0,0.0,0.0,0.0,0.0,0.0,0.0,0.0,0.0,0.0,0.0,0.0,0.0,0.0,0.0,0.0,0.0,0.0,0.0,0.0,-2.9124,-3.1148,-3.3585,-3.5626,-3.6792,-3.7616,-3.8396,-3.7184,-3.5785,-3.5711,-3.4166,-3.2563,-3.1972,-3.1943,-3.2024,-3.1885,-3.1893,-3.2442,-3.4056,-3.3752,-3.3963,0.0,0.0,0.0,-4.0652,-4.2501,0.0,0.0,0.0,0.0,0.0,0.0,0.0,0.0,-3.8968,-3.9208,-4.0144,-4.0164,-4.0036,-3.9745,-3.9183,-3.8824,-3.8615,-3.7808,-3.7441,-3.7422,-3.6923,0.0,0.0,0.0,0.0,0.0,-3.5683,-3.5004,-3.4931,-3.4119,-3.3807,-3.3807,-3.3807,-3.2779,-3.1397,0.0,0.0,0.0,0.0,0.0,0.0,0.0,-1.876,-1.9689,-2.1087,-2.2855,-2.4411,-2.5538,-2.6522,-2.7246,-2.7587,-2.5697,0.0,0.0,0.0,0.0,0.0,0.0,0.0,0.0,-1.6236,-1.6941,-1.8057,-1.8785,-1.9532,-2.0395,-2.245,-2.3878,-2.4685,-2.5918,0.0,0.0,0.0,0.0,0.0,0.0,0.0,-3.0725,0.0,0.0,0.0,0.0,0.0,0.0,0.0,0.0,0.0,0.0,0.0,0.0,0.0,-3.099,-3.2803,-3.4972,-3.6083,-3.6752,-3.7343,-3.6243,-3.4937,-3.4818,-3.362,-3.2351,-3.1759,-3.2133,-3.2529,-3.2327,-3.2352,-3.2793,-3.4069,-3.3614,-3.3565,0.0,0.0,0.0,-3.9478,0.0,0.0,0.0,0.0,0.0,0.0,0.0,0.0,0.0,0.0,-3.7222,-3.7661,-3.8146,-3.8113,-3.7523,-3.7193,-3.6957,-3.6769,-3.612,-3.5973,-3.6266,-3.5642,0.0,0.0,0.0,0.0,0.0,-3.5096,-3.4362,-3.405,-3.3537,-3.3164,-3.2889,-3.2889,-3.2063,-3.0944,0.0,0.0,0.0,0.0,0.0,0.0,0.0,-1.8026,-1.8907,-2.0853,-2.2326,-2.3934,-2.5786,-2.7017,-2.8422,-3.0109,0.0,0.0,0.0,0.0,0.0,0.0,0.0,0.0,-1.6575,-1.6402,-1.7025,-1.8482,-1.8821,-1.9386,-2.0205,-2.2274,-2.3614,-2.4317,-2.5528,-2.6479,0.0,0.0,0.0,0.0,0.0,0.0,0.0,0.0,0.0,0.0,0.0,0.0,0.0,0.0,0.0,0.0,0.0,0.0,0.0,0.0,0.0,0.0,0.0,-3.5786,-3.7078,-3.7268,-3.6176,-3.5024,-3.4767,-3.4025,0.0,-3.1862,-3.2297,-3.2794,-3.2478,-3.2563,-3.2953,-3.3761,-3.3866,-3.4203,0.0,-3.6163,0.0,0.0,0.0,0.0,0.0,0.0,0.0,0.0,0.0,0.0,0.0,0.0,-3.5076,-3.4286,-3.541,-3.563,-3.4765,-3.5157,-3.5333,-3.5293,-3.4922,-3.5186,-3.5944,-3.444,0.0,0.0,0.0,0.0,0.0,-3.4069,-3.3261,-3.2583,-3.254,-3.2063,-3.1397,-3.1397,-3.0876,-3.0155,0.0,0.0,0.0,0.0,0.0,0.0,0.0,0.0,0.0,0.0,-2.1475,-2.2998,-2.4625,-2.6187,-2.7861,0.0,0.0,0.0,0.0,0.0,0.0,0.0,0.0,0.0,-1.6542,-1.7059,-1.7668,-1.8352,-1.8694,-1.9523,-2.0875,-2.2016,-2.3352,-2.4854,-2.5569,-2.6484,0.0,0.0,0.0,0.0,0.0,0.0,0.0,0.0,0.0,0.0,-3.2409,-3.2786,0.0,0.0,0.0,0.0,0.0,0.0,0.0,0.0,-3.0951,-3.1532,-3.3355,0.0,-3.4493,-3.5311,-3.5148,-3.4459,0.0,-3.3043,-3.2779,-3.1117,-3.1855,-3.2762,-3.2588,-3.2688,-3.3012,-3.3786,-3.3564,-3.3819,-3.534,0.0,0.0,0.0,0.0,0.0,0.0,0.0,0.0,0.0,0.0,0.0,0.0,0.0,-3.3322,-3.2019,-3.2278,-3.2747,-3.3432,-3.3001,-3.2648,-3.2389,-3.2288,-3.2538,-3.3099,-3.3256,0.0,0.0,0.0,0.0,-3.488,-3.3469,-3.2768,-3.254,-3.1912,-3.1562,-3.1397,-3.1397,-3.0702,-2.9782,0.0,0.0,0.0,0.0,0.0,0.0,0.0,0.0,0.0,0.0,0.0,0.0,0.0,0.0,0.0,0.0,0.0,0.0,0.0,0.0,0.0,0.0,0.0,-1.7034,-1.6166,-1.6563,-1.7072,-1.7656,-1.8105,-1.8948,-2.0201,-2.14,-2.2695,-2.399,-2.5023,-2.6074,0.0,0.0,0.0,0.0,-3.0318,0.0,0.0,0.0,0.0,0.0,-3.3088,-3.3695,0.0,-3.372,-3.3668,-3.3575,0.0,0.0,0.0,0.0,-3.1309,-3.1533,-3.262,-3.3265,-3.3819,-3.4704,-3.4804,-3.4281,-3.2655,-3.2633,-3.2394,-3.0375,-3.1213,-3.2285,-3.2107,-3.3001,-3.3843,-3.3958,-3.4503,0.0,0.0,0.0,0.0,0.0,0.0,0.0,0.0,0.0,0.0,0.0,0.0,0.0,0.0,0.0,-3.2019,-3.1224,-3.055,-3.0496,-3.1169,-3.0957,-3.075,-3.0579,-3.0787,-3.1217,-3.1805,-3.2415,0.0,0.0,0.0,0.0,-3.328,-3.2415,-3.1829,-3.1445,-3.0832,-3.0354,-2.9993,-2.9852,-2.9174,-2.8358,0.0,0.0,0.0,0.0,0.0,0.0,0.0,0.0,0.0,0.0,0.0,0.0,0.0,0.0,0.0,0.0,0.0,0.0,0.0,0.0,0.0,0.0,0.0,-1.6789,-1.5857,-1.5764,-1.6139,-1.697,-1.7355,-1.8075,-1.9164,-2.0685,-2.1856,-2.2787,-2.4475,-2.5579,0.0,0.0,-2.8119,0.0,-3.0063,0.0,0.0,0.0,0.0,0.0,0.0,0.0,0.0,-3.3761,-3.3818,-3.3942,-3.3114,0.0,0.0,0.0,0.0,0.0,-3.1959,-3.2971,-3.4063,-3.4619,-3.4643,-3.4177,-3.2796,-3.2628,-3.2173,-3.0069,-3.0851,-3.1894,-3.1713,-3.3329,0.0,0.0,0.0,0.0,-3.7481,0.0,0.0,0.0,0.0,0.0,0.0,0.0,0.0,0.0,0.0,0.0,0.0,0.0,0.0,-3.0683,-2.9484,-2.8756,-2.8654,-2.9094,-2.9332,-2.9332,-2.9725,-3.028,-3.0963,-3.1494,-3.1729,0.0,0.0,0.0,-3.1302,-3.1124,-3.0685,-3.0057,-2.9543,-2.8869,-2.8123,-2.7846,-2.7228,-2.6511,0.0,0.0,0.0,0.0,0.0,0.0,0.0,0.0,0.0,0.0,0.0,0.0,0.0,0.0,0.0,0.0,0.0,0.0,0.0,0.0,0.0,0.0,-1.9355,-1.7017,-1.6469,-1.6111,-1.6341,-1.7145,-1.6893,-1.7626,-1.9272,-2.0012,-2.1241,-2.295,-2.4862,-2.5786,-2.6027,-2.7179,-2.8164,-2.9007,-2.9771,0.0,0.0,0.0,0.0,0.0,0.0,0.0,0.0,-3.3148,-3.3491,-3.3846,-3.2493,0.0,0.0,0.0,0.0,0.0,-3.1613,-3.2984,-3.4069,-3.4044,-3.3949,-3.3664,-3.2967,-3.299,-3.2761,-3.1498,-3.188,-3.2598,-3.3011,-3.3119,-3.3305,0.0,0.0,0.0,0.0,0.0,0.0,0.0,0.0,0.0,0.0,0.0,0.0,0.0,0.0,0.0,0.0,0.0,0.0,-2.8365,-2.8094,-2.7689,-2.7063,-2.7725,-2.8082,-2.8082,-2.8151,-2.8458,-2.8972,-2.9665,-3.0203,0.0,0.0,-3.0774,-3.0901,-2.9879,-2.9551,-2.9579,-2.8567,-2.7713,-2.7032,-2.6996,-2.6278,-2.5262,0.0,0.0,0.0,0.0,0.0,0.0,0.0,0.0,0.0,0.0,0.0,0.0,0.0,0.0,0.0,0.0,0.0,0.0,0.0,0.0,0.0,-2.4903,-2.2209,-1.9756,-1.7605,-1.7611,-1.7879,-1.8461,-1.7891,-1.8423,-2.0017,-2.0488,-2.1358,-2.2618,-2.3851,-2.4934,-2.592,-2.7094,-2.8056,-2.8818,0.0,0.0,0.0,0.0,0.0,0.0,0.0,0.0,0.0,0.0,-3.2632,-3.3371,-3.2295,0.0,0.0,0.0,0.0,0.0,-3.1038,-3.1659,-3.2245,-3.3058,-3.4093,-3.4652,-3.3588,-3.3266,-3.2822,-3.1489,-3.1634,-3.2155,-3.2673,0.0,-3.4407,-3.6206,0.0,0.0,0.0,0.0,0.0,0.0,0.0,0.0,0.0,0.0,0.0,0.0,0.0,0.0,0.0,0.0,0.0,0.0,-2.7173,-2.6788,-2.6691,-2.7046,-2.7215,-2.7215,-2.7215,-2.7539,-2.8151,-2.8745,-2.9096,-2.9287,0.0,-2.9512,-2.9205,-2.8237,-2.7962,-2.7962,-2.6827,-2.6414,-2.6401,-2.5782,-2.5229,-2.4604,0.0,0.0,0.0,0.0,0.0,0.0,0.0,0.0,0.0,0.0,0.0,0.0,0.0,0.0,0.0,0.0,0.0,0.0,0.0,0.0,-2.8435,-2.6118,-2.529,-2.3172,-1.9565,-1.946,-1.9622,-1.9965,-1.9365,-1.9714,-2.0941,-2.1421,-2.1934,-2.2508,-2.3062,-2.4292,-2.5975,-2.6755,-2.7632,-2.849,0.0,0.0,0.0,0.0,0.0,0.0,0.0,0.0,0.0,0.0,0.0,0.0,0.0,0.0,0.0,-3.1057,-3.0312,-2.9789,-3.0426,-3.0807,-3.1261,-3.2376,-3.3885,-3.4978,-3.4485,-3.3844,-3.3145,-3.241,-3.218,-3.2242,-3.2607,-3.3626,0.0,-3.7443,0.0,0.0,0.0,0.0,0.0,0.0,0.0,0.0,0.0,0.0,0.0,0.0,0.0,0.0,0.0,0.0,0.0,0.0,-2.6066,-2.575,-2.6116,-2.6116,-2.632,-2.6691,-2.6691,-2.6996,-2.7554,-2.791,-2.8058,-2.8025,-2.8388,-2.8137,-2.7452,-2.6788,-2.6469,-2.6307,-2.5527,-2.5555,-2.5908,-2.4698,-2.4237,-2.4085,0.0,0.0,0.0,0.0,0.0,0.0,0.0,0.0,0.0,0.0,0.0,0.0,0.0,0.0,0.0,0.0,0.0,0.0,0.0,0.0,-2.9287,-2.702,-2.7893,-2.6612,-2.2753,-2.1409,-2.0957,-2.1349,-2.0926,-2.1155,-2.2006,-2.259,-2.2929,-2.3052,-2.348,-2.4676,-2.6335,-2.6042,-2.6673,-2.7927,-2.8444,0.0,0.0,0.0,0.0,0.0,0.0,0.0,0.0,0.0,0.0,0.0,0.0,0.0,-2.9714,-2.9301,-2.9342,-2.9575,-2.9882,-3.1486,-3.3002,-3.2617,-3.2487,-3.3146,-3.5797,-3.5064,-3.4304,-3.5961,-3.507,-3.4012,0.0,-3.3798,-3.3847,-3.4676,0.0,0.0,0.0,0.0,0.0,0.0,0.0,0.0,0.0,0.0,0.0,0.0,0.0,0.0,0.0,0.0,0.0,0.0,0.0,-2.4354,-2.4372,-2.4372,-2.5163,-2.6691,-2.6691,-2.6725,-2.6776,-2.6826,-2.6843,-2.6809,-2.6859,-2.6653,-2.6287,-2.5855,-2.5507,-2.5247,-2.548,-2.5606,-2.5471,-2.4017,-2.3477,-2.346,0.0,0.0,0.0,0.0,0.0,0.0,0.0,0.0,0.0,0.0,0.0,0.0,0.0,0.0,0.0,0.0,0.0,0.0,0.0,0.0,-3.0365,-2.9173,-2.9269,-2.856,-2.6832,-2.5003,-2.4133,-2.4253,-2.3923,-2.3944,-2.4261,-2.4033,-2.4201,-2.4723,-2.4572,-2.5164,-2.6278,-2.6566,-2.7106,-2.7795,-2.7822,-2.782,0.0,0.0,0.0,0.0,0.0,0.0,0.0,0.0,-2.8783,-2.9738,-3.0085,-3.0141,-3.0083,-2.9979,-2.9505,-2.9142,-2.9434,-3.0616,-3.178,-3.1926,-3.2109,-3.2915,-3.5347,-3.5373,-3.4975,-3.5289,-3.516,-3.4718,0.0,0.0,-3.4784,0.0,0.0,0.0,0.0,0.0,0.0,0.0,0.0,0.0,0.0,0.0,0.0,0.0,0.0,0.0,0.0,0.0,0.0,0.0,0.0,-2.366,-2.3576,-2.3991,-2.446,-2.4963,-2.5846,-2.6419,-2.6691,-2.6691,-2.6437,-2.6048,-2.6488,-2.6369,-2.5825,-2.5659,-2.5538,-2.5348,-2.476,-2.453,-2.448,-2.3913,-2.3713,-2.3745,0.0,0.0,0.0,0.0,0.0,0.0,0.0,0.0,0.0,0.0,0.0,0.0,0.0,0.0,0.0,0.0,0.0,0.0,-3.0351,-3.0832,-3.0743,-2.996,-2.9904,-2.9567,-2.8887,-2.7841,-2.7116,-2.6769,-2.6434,-2.6217,-2.6022,-2.554,-2.557,-2.6021,-2.5394,-2.5795,-2.6986,-2.6971,-2.727,-2.779,-2.7595,-2.7579,0.0,0.0,0.0,0.0,0.0,0.0,0.0,0.0,-2.7607,-2.8819,-2.9392,-2.9847,-3.01,-2.9728,-2.9633,-2.9618,-2.9478,-3.0279,-3.1336,-3.2027,-3.2209,-3.2777,-3.4991,-3.5457,-3.5469,-3.5684,-3.5429,-3.4874,-3.3868,0.0,0.0,0.0,0.0,0.0,0.0,0.0,0.0,0.0,0.0,0.0,0.0,0.0,0.0,0.0,0.0,0.0,0.0,0.0,0.0,0.0,0.0,-2.2511,-2.2413,-2.2868,-2.3215,-2.3448,-2.4405,-2.5384,-2.6336,-2.6099,-2.5862,-2.5625,-2.5879,-2.5726,-2.5253,-2.5253,-2.5292,-2.5279,-2.4481,-2.4246,-2.4273,-2.4043,-2.3832,-2.3703,0.0,0.0,0.0,0.0,0.0,0.0,0.0,0.0,0.0,0.0,0.0,0.0,0.0,0.0,0.0,0.0,0.0,0.0,-3.0077,-3.0612,-3.0321,-2.8968,-2.9814,-2.9717,-2.8459,-2.9538,-2.9666,-2.8726,-2.8241,-2.7686,-2.7045,-2.7109,-2.7033,-2.6769,-2.579,-2.6586,-2.8609,-2.7076,-2.6951,-2.7831,-2.793,-2.7765,-2.7403,0.0,0.0,0.0,0.0,0.0,0.0,0.0,-2.6794,-2.8021,-2.8686,-2.9268,-2.945,-2.8096,-2.9495,-3.1236,-3.0013,-3.0807,-3.224,-3.3213,-3.2733,-3.261,-3.4976,-3.5329,-3.5785,-3.7923,-3.6297,-3.4472,-3.4472,-3.3948,0.0,0.0,0.0,0.0,0.0,0.0,0.0,0.0,0.0,0.0,0.0,0.0,0.0,0.0,0.0,0.0,0.0,0.0,0.0,0.0,0.0,0.0,-2.0688,-2.0703,-2.1258,-2.2366,-2.2381,-2.3512,-2.5559,-2.4814,-2.4881,-2.5525,-2.4814,-2.4491,-2.4491,-2.4492,-2.4627,-2.4789,-2.4789,-2.4964,-2.5086,-2.4358,-2.3674,-2.3155,0.0,0.0,0.0,0.0,0.0,0.0,0.0,0.0,0.0,0.0,0.0,0.0,0.0,0.0,0.0,0.0,0.0,0.0,-3.1937,-3.1628,-3.1004,-3.0129,-3.0354,-3.0448,-3.0304,-3.1412,-3.1315,-2.9896,-2.9204,-2.9111,-2.9604,-2.9525,-2.9221,-2.8756,-2.8642,-2.8516,-2.8362,-2.8507,-2.8421,-2.8151,-2.8288,-2.8017,-2.7478,0.0,0.0,0.0,0.0,0.0,0.0,0.0,0.0,0.0,-2.8291,-2.9093,-2.957,-2.8935,-2.9455,-3.0051,-2.9158,-3.0205,-3.1616,-3.2068,-3.2263,-3.274,-3.4224,-3.5021,-3.5528,-3.5912,-3.468,-3.3463,-3.3336,0.0,0.0,0.0,0.0,0.0,0.0,0.0,0.0,0.0,0.0,0.0,0.0,0.0,0.0,0.0,0.0,0.0,0.0,0.0,0.0,0.0,0.0,0.0,-1.9989,-2.0449,-2.0639,-2.0498,-2.1268,-2.2439,-2.3897,-2.3684,-2.3423,-2.3177,-2.3961,-2.3991,-2.36,-2.4575,-2.4747,-2.4344,-2.3964,-2.3866,-2.3897,-2.3685,-2.318,-2.2737,0.0,0.0,0.0,0.0,0.0,0.0,0.0,0.0,0.0,0.0,0.0,0.0,0.0,0.0,0.0,0.0,0.0,0.0,0.0,-3.1584,-3.0896,-3.0031,-2.9898,-3.019,-3.0957,-3.129,-3.1333,-3.1114,-3.0384,-3.0253,-3.0614,-3.0729,-3.0585,-3.0259,-3.0529,-3.0258,-2.9599,-2.9841,-2.9421,-2.8616,-2.863,-2.8308,-2.7765,0.0,0.0,0.0,0.0,0.0,0.0,0.0,0.0,0.0,-2.8826,-2.9363,-2.9666,-2.9925,-2.9792,-2.9647,-3.0214,-3.0571,-3.1159,-3.2742,-3.3013,-3.3098,-3.3909,-3.4456,-3.4808,0.0,-3.3482,-3.2226,-3.2385,-3.1956,0.0,0.0,0.0,0.0,0.0,0.0,0.0,0.0,0.0,0.0,0.0,0.0,0.0,0.0,0.0,0.0,0.0,0.0,0.0,0.0,0.0,0.0,-1.9708,-2.0094,-2.0095,-1.9717,-2.0353,-2.1077,-2.1821,-2.2169,-2.2242,-2.2147,-2.2996,-2.3107,-2.2801,-2.3941,-2.4053,-2.348,-2.3415,-2.3289,-2.3107,-2.3122,-2.2696,-2.2217,0.0,0.0,0.0,0.0,0.0,0.0,0.0,0.0,0.0,0.0,-2.7762,0.0,0.0,0.0,0.0,0.0,0.0,0.0,0.0,0.0,-3.0345,-2.9507,-2.9228,-2.9639,-3.0839,-3.0154,-3.0518,-3.2057,-3.1479,-3.0977,-3.0535,-3.1062,-3.1254,-3.1165,-3.1505,-3.163,-3.1566,-3.0905,-3.0052,-2.9144,-2.8944,-2.8551,-2.8048,-2.7448,0.0,0.0,0.0,0.0,0.0,0.0,0.0,0.0,-2.9582,-2.9828,-2.985,-3.0642,-3.0176,-2.9886,-3.2165,-3.153,-3.1008,-3.4498,-3.4448,-3.3601,-3.3681,-3.3459,-3.3457,-3.4296,0.0,-3.0931,-3.1495,0.0,0.0,0.0,0.0,0.0,0.0,0.0,0.0,0.0,0.0,0.0,0.0,0.0,0.0,0.0,0.0,0.0,0.0,0.0,0.0,0.0,0.0,0.0,-1.9708,-1.9708,-1.9708,0.0,-1.9708,-1.9708,-1.9744,-2.0515,-2.1293,-2.1964,-2.1964,-2.198,-2.2044,-2.2764,-2.2747,-2.2312,-2.2992,-2.2974,-2.261,-2.2624,-2.2184,-2.1559,0.0,0.0,0.0,0.0,0.0,0.0,0.0,0.0,0.0,0.0,0.0,0.0,0.0,0.0,0.0,0.0,0.0,0.0,0.0,0.0,-3.0696,-3.2244,-3.2217,-3.1898,-3.1353,-3.2083,-3.2005,-3.1011,-3.062,-3.055,-3.0777,-3.1737,-3.1716,-3.0842,-3.1801,-3.1686,-3.0758,-3.0824,-3.0366,-2.955,-2.941,-2.8566,-2.7414,-2.7484,-2.6951,0.0,0.0,0.0,0.0,0.0,0.0,0.0,-2.7191,-2.9024,-3.0817,-2.9054,-2.9215,-3.0078,-3.048,-3.0998,-3.1884,-3.3832,-3.4169,-3.362,-3.2018,-3.0871,-3.0385,-3.1199,-3.0918,-3.0401,0.0,0.0,0.0,0.0,0.0,0.0,0.0,0.0,0.0,0.0,0.0,0.0,0.0,0.0,0.0,0.0,0.0,0.0,0.0,0.0,0.0,0.0,0.0,-1.9708,-1.9708,-1.9708,-1.9708,0.0,-1.9708,-1.9708,-1.9708,-1.9892,-2.036,-2.0995,-2.0995,-2.1007,-2.1061,-2.174,-2.1648,-2.1132,-2.1808,-2.2011,-2.1924,-2.1917,-2.1491,-2.0902,0.0,0.0,0.0,0.0,0.0,0.0,0.0,0.0,0.0,0.0,0.0,0.0,0.0,0.0,0.0,0.0,0.0,0.0,0.0,0.0,0.0,-3.1882,-3.1971,-3.1711,-3.1068,-3.1391,-3.1112,-3.0177,-2.9955,-3.009,-3.0576,-3.1187,-3.1528,-3.1596,-3.2148,-3.2024,-3.139,-3.1286,-3.0463,-2.9217,-2.9261,-2.8274,-2.6831,-2.7202,-2.6514,-2.5292,-2.4784,0.0,0.0,0.0,0.0,0.0,0.0,0.0,-2.984,-2.963,-2.9061,-2.8864,-3.0428,-3.1383,-3.2338,-3.4243,-3.4446,-3.3714,-3.1805,-3.0234,-2.9059,-2.8616,-2.854,0.0,0.0,0.0,0.0,0.0,0.0,0.0,0.0,0.0,0.0,0.0,0.0,0.0,0.0,0.0,0.0,0.0,0.0,0.0,0.0,-2.0703,-2.0393,-1.9723,-1.9708,-1.9708,-1.9708,-1.9708,-1.9708,-1.9708,-1.9708,-1.9708,-1.9708,-1.9708,-1.9902,-2.0228,-2.0228,-2.0225,-2.0247,-2.0602,-2.0539,-2.0299,-2.0951,-2.1228,-2.1211,-2.1209,-2.1005,-2.0643,0.0,0.0,0.0,0.0,0.0,0.0,0.0,0.0,0.0,0.0,0.0,0.0,0.0,0.0,0.0,0.0,0.0,0.0,0.0,0.0,0.0,-3.0868,-3.1115,-3.1154,-3.0881,-3.0304,-2.994,-2.9775,-2.9452,-2.9597,-3.0169,-3.0466,-3.1266,-3.2498,-3.2538,-3.2466,-3.2315,-3.1774,-3.045,-2.8763,-2.8899,-2.7966,-2.655,-2.6836,-2.6101,-2.4813,-2.4269,-2.3821,-2.3417,-2.2823,0.0,0.0,0.0,0.0,-2.7973,-3.0046,-2.8924,-2.7609,-3.0362,-3.1485,-3.2429,-3.469,-3.448,-3.3302,-3.1806,-3.0106,-2.8298,-2.6561,-2.6361,0.0,0.0,0.0,0.0,0.0,0.0,0.0,0.0,0.0,0.0,0.0,0.0,0.0,0.0,0.0,0.0,0.0,0.0,0.0,-2.0417,-2.0471,-2.0273,-1.9723,-1.9708,-1.9708,-1.9708,-1.9708,-1.9708,-1.9708,-1.9708,-1.9708,-1.9708,-1.9708,-1.9708,-1.9708,-1.9708,-1.9708,-1.9708,-1.9708,-1.9708,-1.9756,-2.0321,-2.0515,-2.0531,-2.0528,-2.0536,-2.0453,0.0,0.0,0.0,0.0,0.0,0.0,0.0,0.0,0.0,0.0,-3.185,0.0,0.0,0.0,0.0,0.0,0.0,0.0,-3.4698,0.0,0.0,-3.2043,-3.2778,-3.2835,-3.2005,-3.1509,-3.1008,-3.0468,-2.9185,-2.8906,-2.9637,-3.0863,-3.1822,-3.251,-3.291,-3.2705,-3.2019,-3.1526,-3.0402,-2.8873,-2.8854,-2.8098,-2.6979,-2.6797,-2.5986,-2.4753,-2.3597,-2.2962,-2.2366,-2.0295,-2.0901,0.0,0.0,0.0,-2.6025,-2.6968,-2.7725,-2.8231,-2.8068,-2.9625,-3.1806,-3.384,-3.2992,-3.136,0.0,0.0,-2.6797,0.0,0.0,0.0,0.0,0.0,0.0,0.0,0.0,0.0,0.0,0.0,0.0,0.0,0.0,0.0,0.0,0.0,0.0,0.0,0.0,0.0,-1.917,-1.9575,-1.9798,-1.9708,-1.9708,-1.9708,-1.9708,-1.9708,-1.9708,-1.9708,-1.9708,-1.9708,-1.9708,-1.9708,-1.9708,-1.9708,-1.9708,-1.9708,-1.9708,-1.9708,-1.9708,-1.9708,-1.9804,-1.9831,-1.9824,-1.9834,-1.9816,-1.9828,0.0,0.0,0.0,0.0,0.0,0.0,0.0,0.0,0.0,0.0,0.0,0.0,0.0,0.0,0.0,-3.2844,-3.3492,-3.4279,-3.4994,-3.4982,-3.4413,-3.3208,-3.3581,-3.3161,-3.1784,-3.1261,-3.0281,-2.8815,-2.8454,-2.8431,-2.8719,-3.0882,-3.2165,-3.2667,-3.2647,-3.2777,-3.2883,-3.182,-3.0631,-2.95,-2.9258,-2.7675,-2.5574,-2.6297,-2.4992,-2.2745,-2.2974,-2.1971,-2.0333,-1.8959,-1.8538,-1.8792,-2.0042,0.0,0.0,0.0,-2.4827,-2.5615,-2.6438,-2.7809,-2.9485,-3.1401,-3.1206,-3.0291,-2.9465,-2.8057,-2.64,0.0,0.0,0.0,0.0,0.0,0.0,0.0,0.0,0.0,0.0,0.0,0.0,0.0,0.0,0.0,0.0,0.0,0.0,0.0,0.0,-1.8768,-1.8471,-1.8957,-1.9241,-1.9241,-1.9531,-1.9708,-1.9708,-1.9708,-1.9708,-1.9708,-1.9708,-1.9708,-1.9708,-1.9708,-1.9708,-1.9708,-1.9708,-1.9708,-1.9708,-1.9708,-1.9708,-1.9708,-1.9708,-1.9708,-1.9708,-1.9708,-1.9708,-1.9708,0.0,0.0,0.0,0.0,0.0,0.0,0.0,0.0,0.0,0.0,0.0,0.0,0.0,0.0,0.0,0.0,-3.3304,-3.4467,-3.4997,-3.4655,-3.4301,-3.3985,-3.3622,-3.2827,-3.1533,-3.0784,-2.9588,-2.7884,-2.8049,-2.8262,-2.8529,-3.0773,-3.2231,-3.2956,-3.2861,-3.3048,-3.3323,-3.2169,-3.1084,-3.0036,-2.9403,-2.7339,-2.4727,-2.5491,-2.3647,-2.0844,-2.1884,-2.0559,-1.8215,-1.7482,-1.6422,-1.568,-1.6961,-1.7982,0.0,0.0,0.0,-2.2669,-2.4216,-2.5349,-2.6456,-2.7958,-2.8515,-2.8532,0.0,0.0,-2.5384,0.0,0.0,0.0,0.0,0.0,0.0,0.0,0.0,0.0,0.0,0.0,0.0,0.0,0.0,0.0,0.0,0.0,0.0,0.0,0.0,-1.8116,-1.7909,-1.8405,-1.8701,-1.8701,-1.9071,-1.9369,-1.9497,-1.9621,-1.9708,-1.9708,-1.9566,-1.9497,-1.9479,-1.9369,-1.9369,-1.9497,-1.9639,-1.9708,-1.9708,-1.9708,-1.9708,-1.9708,-1.9708,-1.9708,-1.969,-1.956,-1.9581,-1.969,0.0,0.0,0.0,0.0,0.0,0.0,0.0,0.0,0.0,0.0,0.0,0.0,-3.4521,-3.4637,-3.4386,-3.3711,-3.446,-3.4991,-3.5092,-3.3731,-3.329,-3.4141,-3.2729,0.0,-3.1772,-3.0578,-2.9683,-2.9205,-2.8403,-2.8633,-2.9829,-3.0674,-3.1894,-3.3409,-3.4209,-3.3814,-3.2567,-3.2488,-3.1626,-3.0267,-2.8964,-2.7421,-2.5758,-2.4295,-2.2168,-1.9964,-1.9958,-1.8492,0.0,0.0,0.0,-1.4432,-1.4145,-1.5373,-1.7164,0.0,0.0,0.0,-2.0673,-2.1716,-2.2878,-2.3422,-2.4334,-2.5139,0.0,0.0,0.0,0.0,0.0,0.0,0.0,0.0,0.0,0.0,0.0,0.0,0.0,0.0,0.0,0.0,0.0,0.0,0.0,0.0,0.0,0.0,0.0,-1.7945,-1.736,-1.786,-1.8137,-1.8137,-1.8171,-1.8438,-1.8949,-1.9442,-1.9708,-1.969,-1.9188,-1.8949,-1.893,-1.8419,-1.8458,-1.8968,-1.9479,-1.9708,-1.9708,-1.9708,-1.9708,-1.9708,-1.9708,-1.9708,-1.9636,-1.914,-1.9257,-1.9617,0.0,0.0,0.0,0.0,0.0,0.0,0.0,0.0,0.0,0.0,0.0,0.0,0.0,-3.484,-3.4604,-3.3862,-3.4052,-3.4486,-3.5051,-3.4668,-3.4601,-3.5073,-3.4594,-3.3774,-3.2666,-3.2398,-3.1107,-2.8729,-2.8576,-2.8312,-2.7935,-2.9492,-3.0413,-3.0889,-3.3354,-3.4159,-3.3636,-3.3389,-3.2732,-3.1709,-2.9953,-2.8035,-2.6119,-2.4951,-2.2551,-1.9813,0.0,0.0,0.0,0.0,0.0,-1.3392,-1.306,-1.3646,-1.4925,-1.7534,-1.897,-1.9848,-2.0268,-2.0649,-2.102,-2.1538,-2.1977,-2.2314,-2.2438,-2.1516,0.0,0.0,0.0,0.0,0.0,0.0,0.0,0.0,0.0,0.0,0.0,0.0,0.0,0.0,0.0,0.0,0.0,0.0,0.0,0.0,0.0,0.0,-1.6808,-1.7287,-1.7592,-1.7592,-1.7926,-1.8204,-1.838,-1.8574,-1.8669,-1.8669,-1.8477,-1.8401,-1.8379,-1.8188,-1.8201,-1.8416,-1.8955,-1.9387,-1.9708,-1.9708,-1.9708,-1.9708,-1.9708,-1.9708,-1.969,-1.9487,-1.9541,-1.9636,0.0,0.0,0.0,0.0,0.0,0.0,0.0,0.0,0.0,-3.3959,0.0,0.0,0.0,0.0,-3.505,-3.4234,-3.3682,-3.385,-3.4996,-3.4663,-3.476,-3.5498,-3.5053,-3.442,-3.3595,-3.3031,-3.1549,-2.9034,-2.8747,-2.8144,-2.7283,-2.8816,-2.9543,-2.9658,-3.219,-3.3303,-3.3288,-3.3539,-3.3141,-3.2165,-3.0411,-2.8633,-2.6932,-2.5729,-2.3281,0.0,0.0,0.0,0.0,0.0,0.0,0.0,-1.2242,-1.2819,-1.4257,-1.692,-1.8313,-1.9129,-1.9865,-1.9802,-1.9633,0.0,-2.021,-2.02,-2.007,0.0,0.0,0.0,0.0,0.0,0.0,0.0,0.0,0.0,0.0,0.0,0.0,0.0,0.0,0.0,0.0,0.0,0.0,0.0,0.0,0.0,0.0,0.0,-1.65,-1.6836,-1.7034,-1.7034,-1.7558,-1.7827,-1.7827,-1.8007,-1.8106,-1.8106,-1.7927,-1.7819,-1.7822,-1.7652,-1.7659,-1.7835,-1.8206,-1.8669,-1.9188,-1.9548,-1.9584,-1.9442,-1.9621,-1.9708,-1.969,-1.9497,-1.9548,-1.9603,0.0,0.0,0.0,0.0,0.0,0.0,0.0,0.0,-3.5891,-3.5661,0.0,0.0,0.0,0.0,0.0,-3.5031,-3.3532,-3.3292,-3.4925,-3.3639,-3.358,-3.5323,-3.3938,-3.3538,-3.4466,-3.2346,-3.0911,-3.0298,-2.8916,-2.8168,-2.8069,-2.8702,-2.9328,-2.9965,-3.0901,-3.1242,-3.1239,-3.28,-3.2761,-3.1526,-3.0207,-2.919,-2.8261,0.0,0.0,0.0,-2.2195,-2.0203,0.0,-1.485,0.0,0.0,-1.1714,-1.3095,-1.5311,-1.6553,-1.749,-1.8309,0.0,0.0,0.0,0.0,0.0,0.0,-1.8356,0.0,0.0,0.0,0.0,0.0,0.0,0.0,0.0,0.0,0.0,0.0,0.0,0.0,0.0,0.0,0.0,0.0,0.0,0.0,0.0,0.0,0.0,-1.7112,-1.6525,-1.65,-1.65,-1.65,-1.6993,-1.7271,-1.7271,-1.7787,-1.8046,-1.8046,-1.7524,-1.7271,-1.725,-1.6731,-1.6774,-1.7271,-1.7291,-1.7585,-1.8145,-1.9225,-1.9369,-1.8949,-1.9479,-1.9708,-1.9639,-1.9132,-1.9244,-1.953,0.0,0.0,0.0,0.0,0.0,0.0,-3.5447,-3.5686,-3.5937,0.0,0.0,0.0,-3.7014,-3.7001,-3.6902,-3.6727,-3.5809,-3.5457,-3.5902,-3.5581,-3.5369,-3.5325,-3.5547,-3.5213,-3.4224,-3.4062,-3.2765,-3.0234,-2.9681,-2.8552,-2.6879,-2.6856,-2.7235,-2.7949,-2.9045,-2.9588,-2.9801,-3.1646,-3.2498,-3.241,-3.0006,-2.9288,0.0,0.0,0.0,0.0,0.0,-2.039,-1.8663,0.0,-1.7139,-1.768,0.0,-1.6287,-1.6794,-1.7544,-1.8217,-1.8789,-1.904,0.0,0.0,0.0,0.0,0.0,0.0,0.0,0.0,0.0,0.0,0.0,0.0,0.0,0.0,0.0,0.0,0.0,0.0,0.0,0.0,0.0,0.0,0.0,0.0,0.0,0.0,0.0,-1.73,-1.6685,-1.65,-1.65,-1.65,-1.65,-1.6637,-1.671,-1.671,-1.6879,-1.693,-1.693,-1.6795,-1.671,-1.671,-1.6573,-1.6573,-1.6731,-1.7126,-1.7146,-1.7055,-1.8516,-1.9024,-1.8949,-1.9479,-1.9708,-1.969,-1.953,-1.9332,-1.9024,0.0,0.0,0.0,0.0,0.0,-3.5543,-3.6171,-3.6805,-3.7181,0.0,0.0,0.0,-3.756,-3.7668,-3.7651,-3.7387,-3.6984,-3.6767,-3.6806,-3.6861,-3.6549,-3.5791,-3.6589,-3.627,-3.4633,-3.4755,-3.3495,-3.0708,-2.9761,-2.8272,-2.6263,-2.6029,-2.6146,-2.6561,-2.7467,-2.8222,-2.8833,-3.0041,-3.1112,0.0,-2.9974,0.0,0.0,-2.7898,-2.5963,0.0,0.0,0.0,-2.0983,-1.8261,-1.7999,0.0,0.0,0.0,0.0,-1.8282,-1.8709,-1.9172,-1.9225,0.0,0.0,0.0,0.0,0.0,-1.7255,-1.6477,0.0,0.0,0.0,0.0,0.0,0.0,0.0,0.0,0.0,0.0,0.0,0.0,0.0,0.0,0.0,0.0,0.0,0.0,0.0,-1.8032,-1.754,-1.6989,-1.6525,-1.65,-1.65,-1.65,-1.65,-1.65,-1.65,-1.65,-1.65,-1.65,-1.65,-1.65,-1.65,-1.65,-1.65,-1.6522,-1.6837,-1.6795,-1.6595,-1.7747,-1.8243,-1.8302,-1.8817,-1.9024,-1.9024,-1.9024,-1.8836,-1.8496,0.0,0.0,-3.5789,-3.6447,-3.6966,-3.7236,-3.7011,-3.8202,-3.8838,0.0,-3.8687,-3.9029,-3.8458,-3.8486,-3.8278,-3.7616,-3.7547,-3.7571,-3.7641,-3.7604,-3.7262,-3.6533,-3.7043,-3.6738,-3.5425,-3.483,-3.3556,-3.1522,-2.9626,-2.7837,-2.6238,-2.5867,-2.567,-2.569,0.0,0.0,-2.8271,-2.8499,0.0,-3.0257,-2.9903,-2.9966,0.0,0.0,-2.8482,-2.7529,-2.548,-2.4366,-2.3201,-1.8966,-1.7584,0.0,0.0,0.0,0.0,0.0,-1.9004,0.0,0.0,0.0,0.0,0.0,0.0,0.0,-1.7362,-1.6469,-1.5768,0.0,0.0,0.0,0.0,0.0,0.0,0.0,0.0,0.0,0.0,0.0,0.0,0.0,0.0,0.0,0.0,-1.7036,-1.7499,-1.7761,-1.791,-1.7547,-1.655,-1.65,-1.65,-1.65,-1.65,-1.65,-1.65,-1.65,-1.65,-1.65,-1.65,-1.65,-1.65,-1.65,-1.65,-1.65,-1.65,-1.65,-1.6531,-1.7013,-1.725,-1.7353,-1.7887,-1.8106,-1.8106,-1.8106,-1.8066,-1.7947,0.0,-3.5135,-3.5683,-3.6195,-3.6198,-3.6453,-3.7394,-3.7868,-3.8252,-3.8697,-3.9114,-3.9298,-3.9113,-3.9314,-3.939,-3.9233,-3.8704,-3.842,-3.8553,-3.7839,-3.7374,-3.7203,-3.672,-3.6331,-3.6026,-3.5182,-3.3961,-3.2372,-3.062,-2.8871,-2.7113,-2.5673,-2.5196,-2.5569,-2.6158,-2.6967,-2.7947,0.0,0.0,-2.8476,-2.9136,0.0,-2.975,-2.8189,-2.6672,-2.5252,-2.4229,-2.3142,-2.1986,-2.081,-2.0066,-1.966,0.0,0.0,0.0,-1.9493,0.0,0.0,0.0,0.0,0.0,0.0,0.0,0.0,-1.9049,-1.7353,-1.5795,0.0,0.0,0.0,0.0,0.0,0.0,0.0,0.0,0.0,0.0,0.0,0.0,0.0,0.0,0.0,0.0,-1.6231,-1.6321,-1.6984,-1.6793,-1.6623,-1.6516,-1.65,-1.65,-1.65,-1.65,-1.65,-1.65,-1.65,-1.65,-1.65,-1.65,-1.65,-1.65,-1.65,-1.65,-1.65,-1.65,-1.65,-1.6522,-1.6616,-1.6909,-1.7353,-1.7887,-1.8106,-1.8106,-1.8106,-1.7827,-1.7442,-3.4489,-3.4959,-3.5656,-3.6635,-3.6482,-3.6708,-3.8042,-3.8301,-3.8492,-3.8898,-3.9138,-3.9242,-3.9264,-3.9375,-3.9489,-3.9599,-3.9258,-3.8961,-3.8725,-3.8228,-3.7572,-3.674,-3.6735,-3.6357,-3.5524,-3.5344,-3.4184,-3.2009,-3.0621,-2.8775,-2.6513,-2.5183,-2.441,-2.4172,-2.4817,-2.5753,-2.691,0.0,-2.8544,-2.8908,-2.897,0.0,-2.7929,-2.7181,-2.6168,-2.5028,-2.4016,-2.2623,-2.1226,-2.1025,-2.0706,0.0,0.0,-2.0115,-1.9973,0.0,-1.9508,-1.9294,0.0,0.0,0.0,-2.0347,0.0,0.0,0.0,-1.8199,-1.7012,-1.7071,0.0,0.0,0.0,0.0,0.0,0.0,0.0,0.0,0.0,0.0,0.0,0.0,0.0,0.0,0.0,-1.535,-1.577,-1.6451,-1.6348,-1.6185,-1.6044,-1.6051,-1.6194,-1.65,-1.65,-1.65,-1.65,-1.65,-1.65,-1.65,-1.65,-1.65,-1.65,-1.65,-1.65,-1.65,-1.65,-1.65,-1.65,-1.65,-1.6659,-1.693,-1.7188,-1.7312,-1.7312,-1.7312,-1.7126,-1.6888,-3.4501,-3.4905,-3.5602,-3.6906,-3.6878,-3.7079,-3.8313,-3.8726,-3.8925,-3.8935,-3.9165,-3.9356,-3.9398,-3.9542,-3.9717,-3.987,-3.9758,-3.9489,0.0,-3.8663,-3.7871,-3.6566,-3.6871,-3.6448,-3.5145,-3.5362,-3.4232,-3.1663,-3.0431,-2.8507,-2.5987,-2.4851,-2.3901,-2.3224,-2.3752,-2.4784,-2.623,0.0,0.0,-2.9213,0.0,-2.7829,-2.6779,-2.6654,-2.6238,-2.5503,-2.3882,-2.2225,-2.08,-2.0732,-2.0682,-2.056,-2.0295,-2.0329,0.0,0.0,0.0,0.0,0.0,0.0,0.0,0.0,0.0,-2.052,0.0,0.0,0.0,-1.8879,0.0,0.0,0.0,0.0,0.0,0.0,0.0,0.0,0.0,0.0,0.0,0.0,0.0,0.0,0.0,-1.4675,-1.54,-1.5853,-1.603,-1.5935,-1.5564,-1.5568,-1.582,-1.6315,-1.6445,-1.6445,-1.6324,-1.6337,-1.6337,-1.6337,-1.6337,-1.6402,-1.65,-1.638,-1.6337,-1.6315,-1.6194,-1.6151,-1.6151,-1.6281,-1.6272,-1.6173,-1.6402,-1.65,-1.65,-1.65,-1.65,-1.65,-3.4306,-3.4802,-3.5396,-3.6045,-3.6419,-3.6813,-3.7378,-3.8283,-3.8935,-3.9059,-3.9704,-4.0135,-4.0096,-4.077,-4.1241,-4.127,0.0,0.0,-4.0447,0.0,-3.8324,-3.8315,-3.6978,-3.6235,-3.6228,-3.5244,-3.4042,-3.2641,-3.0794,-2.8932,-2.7093,-2.5175,-2.4405,-2.4573,-2.4582,-2.5546,-2.7187,0.0,-2.7602,0.0,-2.7592,-2.8283,0.0,-2.727,-2.6454,-2.5758,-2.2936,-2.1444,-2.0809,0.0,-2.0712,-2.0734,0.0,-2.057,-1.9347,-2.0194,0.0,0.0,0.0,0.0,0.0,0.0,-2.0067,0.0,0.0,0.0,-1.91,-1.987,0.0,0.0,0.0,0.0,0.0,0.0,0.0,0.0,0.0,0.0,0.0,0.0,0.0,0.0,0.0,0.0,-1.4894,-1.4723,-1.5362,-1.5626,-1.5333,-1.5486,-1.5632,-1.5698,-1.6216,-1.6238,-1.5698,-1.5698,-1.5698,-1.5698,-1.5698,-1.5986,-1.6466,-1.5964,-1.5698,-1.5676,-1.5152,-1.4903,-1.4949,-1.5477,-1.5399,-1.4994,-1.6086,-1.65,-1.65,-1.65,-1.65,-1.65,-3.4314,-3.4518,-3.5192,-3.6282,-3.641,-3.6734,-3.7845,-3.8882,-3.9597,-3.9725,-4.0036,-4.0426,0.0,0.0,0.0,0.0,0.0,-4.0221,0.0,0.0,-3.8509,-3.775,-3.669,-3.6168,-3.6281,-3.5218,-3.388,-3.2283,-3.0762,-2.8838,-2.6566,-2.4899,-2.3882,-2.3462,-2.3362,0.0,-2.5426,0.0,-2.7014,0.0,0.0,0.0,0.0,-2.6308,-2.5143,-2.4431,-2.2413,-2.1796,-2.172,0.0,-2.0917,0.0,0.0,0.0,0.0,0.0,0.0,0.0,0.0,0.0,0.0,0.0,0.0,0.0,-2.1801,0.0,-2.0864,0.0,0.0,0.0,0.0,0.0,0.0,0.0,0.0,0.0,0.0,0.0,0.0,0.0,0.0,0.0,0.0,0.0,0.0,0.0,0.0,-1.4382,-1.4427,-1.4845,-1.5085,-1.5085,-1.5666,-1.5688,-1.5073,-1.5085,-1.5085,-1.5073,-1.5432,-1.572,-1.5986,-1.6073,-1.6117,-1.6117,-1.5854,-1.5545,-1.5231,-1.5499,-1.5231,-1.4744,-1.5254,-1.5678,-1.603,-1.638,-1.65,-1.6445,-3.5155,-3.5116,-3.5561,-3.6356,-3.657,-3.7092,-3.8429,-3.924,-3.9752,-3.9878,0.0,0.0,-4.1137,-4.07,0.0,0.0,-4.1422,-4.08,0.0,0.0,-3.8859,0.0,0.0,0.0,0.0,-3.5209,-3.3896,-3.2227,-3.1089,-2.9189,-2.659,-2.5155,-2.4109,-2.341,-2.2967,-2.3485,-2.4817,0.0,-2.6389,-2.7428,-2.7148,-2.7001,-2.6854,-2.5346,-2.4176,-2.3216,-2.2106,-2.1887,-2.1949,-2.0502,-2.0973,0.0,-2.0639,0.0,0.0,0.0,0.0,0.0,-1.974,0.0,0.0,0.0,0.0,0.0,0.0,0.0,0.0,0.0,0.0,0.0,0.0,0.0,0.0,0.0,0.0,0.0,0.0,0.0,0.0,0.0,0.0,0.0,0.0,0.0,0.0,0.0,-1.327,-1.3617,-1.3703,-1.4195,-1.4511,-1.4609,-1.5097,-1.5119,-1.462,-1.4511,-1.4445,-1.4468,-1.4892,-1.5286,-1.561,-1.5876,-1.6107,-1.6238,-1.6086,-1.5766,-1.5343,-1.5343,-1.5005,-1.4468,-1.4629,-1.488,-1.5186,-1.5776,-1.5998,-1.5942,-3.7224,-3.7146,-3.6815,-3.5897,-3.6849,-3.8035,-3.8868,-3.8958,-3.8972,-3.911,0.0,0.0,0.0,0.0,0.0,0.0,0.0,-4.2774,-4.1332,0.0,-3.9547,0.0,0.0,-3.6912,0.0,0.0,-3.4168,-3.3055,-3.2047,-3.0298,-2.7912,-2.6435,-2.5777,-2.5719,-2.4414,-2.4911,-2.6687,-2.619,-2.5719,-2.5299,-2.5277,-2.4663,-2.3868,0.0,-2.4149,-2.2635,-2.1946,0.0,0.0,-2.0689,-2.062,0.0,0.0,0.0,0.0,0.0,0.0,0.0,0.0,0.0,0.0,-2.0861,0.0,0.0,0.0,0.0,-2.0986,0.0,0.0,0.0,0.0,0.0,0.0,-1.6691,0.0,0.0,0.0,0.0,0.0,0.0,0.0,0.0,0.0,0.0,0.0,-1.3566,-1.3814,-1.3853,-1.3529,-1.3717,-1.4026,-1.4408,-1.4617,-1.4642,-1.4419,-1.4013,-1.3815,-1.3815,-1.3839,-1.448,-1.5588,-1.5017,-1.5085,-1.5588,-1.5017,-1.4755,-1.4721,-1.4721,-1.4376,-1.3886,-1.4468,-1.4352,-1.3933,-1.4537,-1.4755,-1.4744,-3.7299,-3.7972,-3.8346,-3.7336,-3.7474,-3.7983,-3.8752,-3.9339,-4.0292,0.0,0.0,0.0,0.0,-4.3716,-4.3168,0.0,0.0,-4.257,-4.2067,-4.1335,0.0,0.0,0.0,-3.7841,0.0,0.0,0.0,0.0,-3.3017,-3.128,-2.8818,-2.7437,-2.6491,-2.5909,-2.4789,-2.4365,0.0,0.0,0.0,0.0,0.0,-2.4695,-2.3946,0.0,0.0,-2.2607,-2.1934,-2.1541,0.0,-2.0344,-2.0677,-2.1346,-2.0566,-2.048,-2.0583,-2.0005,-1.9631,0.0,0.0,0.0,-1.976,-2.0756,0.0,0.0,0.0,0.0,0.0,0.0,0.0,0.0,0.0,0.0,-1.77,-1.7593,-1.6436,0.0,0.0,0.0,0.0,0.0,0.0,0.0,0.0,0.0,0.0,-1.2525,-1.2794,-1.3109,0.0,-1.4236,-1.4388,-1.3816,-1.4254,-1.4157,-1.341,-1.327,-1.319,-1.3214,-1.3624,-1.4003,-1.4411,-1.4606,-1.5028,-1.5588,-1.5387,-1.5073,-1.4698,-1.4698,-1.4107,-1.3214,-1.343,-1.3382,-1.3334,-1.434,-1.4698,-1.4629,-3.8092,-3.8702,0.0,0.0,0.0,-3.8358,-3.8814,0.0,0.0,0.0,-4.2728,0.0,-4.543,0.0,-4.35,0.0,-4.3491,-4.2849,-4.1985,-4.1514,0.0,-3.9837,-3.8694,0.0,0.0,0.0,0.0,0.0,0.0,-3.2214,-2.9765,-2.8257,-2.7222,-2.6604,-2.5503,-2.4583,-2.386,-2.4398,-2.4244,0.0,0.0,-2.4216,0.0,0.0,-2.2945,-2.2435,0.0,-2.1186,-2.0863,-1.9986,-2.0364,-2.1001,-2.001,-2.0154,-2.0534,-1.9882,-1.9726,-1.9762,-1.9756,-1.9777,0.0,-2.085,-2.1039,0.0,-2.2362,0.0,0.0,0.0,0.0,0.0,0.0,0.0,0.0,-1.804,-1.6654,-1.5518,0.0,-1.5517,0.0,0.0,0.0,0.0,0.0,0.0,-1.2443,-1.1991,-1.2596,-1.3099,0.0,0.0,-1.4495,-1.3991,-1.4168,-1.3972,-1.333,-1.3174,-1.3027,-1.2905,-1.3286,-1.36,-1.3815,-1.419,-1.471,-1.5276,-1.5276,-1.505,-1.4675,-1.4468,-1.392,-1.32,-1.2968,-1.2905,-1.2992,-1.3776,-1.4071,-1.4001,-3.9483,-3.9324,0.0,0.0,-3.8599,0.0,0.0,0.0,-4.0725,0.0,-4.2289,-4.2813,-4.2791,-4.3964,-4.4153,-4.2643,-4.379,-4.3628,-4.1315,-4.1176,0.0,0.0,-3.8252,-3.8077,-3.8329,0.0,0.0,0.0,0.0,0.0,-3.0647,-2.885,-2.7927,-2.7684,-2.6573,0.0,-2.467,-2.4752,-2.3969,-2.2696,-2.3311,-2.3197,-2.2664,-2.2613,0.0,-2.2015,-2.1065,-2.0273,-1.9708,-1.9708,-1.9708,-1.9708,-1.9708,-1.9708,-1.9708,-1.9708,-1.9708,-1.9744,-1.9919,-1.9988,-2.0193,-2.1034,0.0,0.0,0.0,0.0,-2.1455,0.0,0.0,0.0,0.0,0.0,0.0,-1.8088,-1.671,-1.5516,0.0,0.0,0.0,0.0,0.0,0.0,0.0,-1.3994,-1.3718,-1.2074,-1.3232,-1.3688,0.0,0.0,-1.4397,-1.4803,-1.4377,-1.4143,-1.4075,-1.3685,-1.3316,-1.2954,-1.2954,-1.3262,-1.3839,-1.3815,-1.412,-1.4698,-1.4675,-1.4663,-1.4606,-1.405,-1.3768,-1.3708,-1.3128,-1.2905,-1.2905,-1.2905,-1.2905,-1.2905,-3.9363,-3.9197,-3.8975,0.0,-3.8929,-3.9101,0.0,0.0,0.0,0.0,-4.4142,-4.4903,-4.6636,-4.5221,-4.4143,-4.4121,-4.3561,0.0,0.0,0.0,0.0,-3.9641,-3.8992,-3.8702,-3.8821,-3.8549,0.0,-3.6289,0.0,0.0,-3.0525,-2.8957,-2.7762,-2.6907,0.0,-2.5467,-2.2795,-2.4206,-2.3699,-2.2003,-2.2659,-2.2702,0.0,0.0,-2.1326,-2.1391,-2.0881,-2.0273,-1.9708,-1.9708,-1.9708,-1.9708,-1.9708,-1.9708,-1.9708,-1.9708,-1.9708,-1.9708,-1.9762,-1.978,-1.9878,-2.0312,-2.0399,-2.0478,0.0,0.0,0.0,0.0,0.0,0.0,0.0,0.0,0.0,0.0,-1.7515,0.0,0.0,0.0,0.0,-1.7352,0.0,0.0,0.0,-1.3666,-1.3058,-1.2946,-1.2793,-1.2894,0.0,0.0,0.0,-1.4814,-1.498,-1.4601,-1.3656,-1.3555,-1.3521,-1.3576,-1.3576,-1.3897,-1.4445,-1.4003,-1.412,-1.4686,-1.4236,-1.4027,-1.4027,-1.3862,-1.3529,-1.3128,-1.2968,-1.2905,-1.2905,-1.2905,-1.2905,-1.2905,-3.9259,0.0,0.0,-3.895,0.0,0.0,-4.0015,0.0,0.0,-4.3982,-4.4051,0.0,-4.5637,-4.4405,-4.3486,-4.3439,-4.2447,0.0,-4.1576,0.0,0.0,-3.9209,-3.8389,-3.8016,-3.8198,-3.7954,0.0,-3.6279,0.0,0.0,-3.0721,-2.8712,-2.7449,-2.6891,0.0,-2.578,-2.3186,-2.3466,-2.2905,-2.1852,-2.2153,0.0,0.0,-2.0933,-2.0643,-2.05,-2.0076,-1.982,-1.9657,-1.9424,-1.9512,-1.9657,-1.9424,-1.9512,-1.9708,-1.9708,-1.9708,-1.9708,-1.9708,-1.9708,-1.9744,-1.9887,-2.0104,-2.0314,-2.0413,-2.0629,-2.0956,0.0,0.0,0.0,0.0,0.0,0.0,0.0,0.0,0.0,0.0,0.0,0.0,0.0,-1.7587,0.0,0.0,-1.4277,-1.2972,-1.2874,-1.3156,0.0,0.0,0.0,0.0,-1.54,-1.5947,-1.5654,-1.4346,-1.4336,-1.423,-1.4062,-1.3886,-1.412,-1.4675,-1.4073,-1.398,-1.426,-1.3671,-1.3396,-1.3396,-1.3396,-1.3214,-1.2905,-1.2905,-1.2905,-1.2905,-1.2905,-1.2905,-1.2905,-3.9101,0.0,0.0,0.0,0.0,0.0,0.0,-4.0763,0.0,-4.3029,0.0,-4.2685,-4.2568,-4.2572,-4.2334,-4.1704,0.0,-4.0403,-4.0335,-3.9102,-3.8325,-3.816,-3.7167,-3.6749,-3.7034,-3.6431,0.0,0.0,0.0,0.0,-3.0758,-2.826,-2.7033,-2.6936,0.0,0.0,0.0,-2.2677,-2.1812,-2.1681,-2.1594,-2.1171,-2.0554,-2.0554,-2.0213,-1.9621,-1.9095,-1.9207,-1.9512,-1.8987,-1.9114,-1.9406,-1.8949,-1.9132,-1.9497,-1.9566,-1.9603,-1.9603,-1.969,-1.9708,-1.9708,-1.9708,-1.9947,-2.021,-2.0139,-2.0395,-2.0869,-2.1607,-2.1134,-2.0722,0.0,0.0,0.0,0.0,0.0,0.0,0.0,0.0,0.0,0.0,0.0,0.0,0.0,0.0,-1.3338,-1.2684,-1.3935,0.0,0.0,0.0,0.0,-1.6114,-1.6897,0.0,-1.5566,0.0,-1.5107,-1.4693,-1.4225,-1.4337,-1.4926,-1.4306,-1.4003,-1.3886,-1.3286,-1.2968,-1.2905,-1.2905,-1.2905,-1.2905,-1.2905,-1.2905,-1.2905,-1.2905,-1.2905,-1.2905,-3.8507,0.0,0.0,0.0,0.0,-3.9644,-4.0787,-4.1835,-4.2399,-4.2206,-4.2617,-4.2942,-4.2903,-4.1376,-4.0486,-4.0875,-3.9757,0.0,0.0,0.0,0.0,-3.7421,-3.6575,-3.615,-3.6221,-3.5473,-3.4726,0.0,0.0,0.0,-2.9251,-2.7794,-2.6515,-2.5521,0.0,0.0,-2.4238,-2.2137,0.0,-2.0145,-2.067,-2.0483,-1.9887,-1.9887,-1.9813,-1.9621,-1.9095,-1.8968,-1.8968,-1.8419,-1.8302,-1.8361,-1.8283,-1.8302,-1.8477,-1.8912,-1.9043,-1.9151,-1.9584,-1.9708,-1.9708,-1.9708,-1.9747,-1.98,-1.9782,-1.9836,-2.0025,-2.0486,-2.0975,-2.1179,-2.0829,0.0,0.0,0.0,0.0,0.0,0.0,0.0,0.0,0.0,0.0,-1.6414,0.0,0.0,0.0,0.0,0.0,0.0,0.0,0.0,0.0,0.0,0.0,0.0,0.0,0.0,-1.5365,-1.6223,-1.5397,-1.5429,-1.6151,-1.5565,-1.5005,-1.4514,-1.3897,-1.3348,-1.2905,-1.2905,-1.2905,-1.2905,-1.2905,-1.2905,-1.2905,-1.2905,-1.2905,-1.2905,0.0,0.0,0.0,0.0,0.0,0.0,0.0,-4.1284,0.0,-4.1813,-4.1139,-4.0656,-4.0656,-3.9554,-3.8935,-3.9217,-3.832,-3.7841,-3.8122,-3.7382,-3.6759,-3.6374,-3.549,0.0,-3.4457,-3.39,-3.3512,-3.3335,0.0,0.0,-2.9837,-2.7874,-2.6487,-2.5648,0.0,-2.4848,0.0,0.0,0.0,-2.034,-1.9935,-1.9738,-1.9639,-1.908,-1.9225,-1.9566,-1.8458,-1.8263,-1.84,-1.7867,-1.7867,-1.8046,-1.7767,-1.7887,-1.8165,-1.8419,-1.8496,-1.8593,-1.9151,-1.9281,-1.935,-1.9621,-1.9708,-1.9708,-1.9708,-1.9708,-1.9747,-1.9962,-2.0292,-2.0464,-2.0102,-1.9276,0.0,0.0,0.0,0.0,0.0,0.0,0.0,0.0,0.0,0.0,0.0,0.0,0.0,0.0,0.0,0.0,0.0,0.0,0.0,0.0,0.0,0.0,0.0,0.0,0.0,-1.6687,-1.5822,-1.5951,-1.6904,-1.5381,-1.4687,-1.4663,-1.3742,-1.3176,-1.2905,-1.2905,-1.2905,-1.2905,-1.2905,-1.2905,-1.2905,-1.2905,-1.2905,-1.2905,0.0,-3.7774,0.0,0.0,-3.9223,0.0,-3.96,-4.0234,-4.0846,-4.1096,-3.9645,-3.8545,-3.8391,-3.7795,-3.7415,-3.7415,-3.6586,-3.6315,-3.6907,-3.5825,-3.5126,-3.5126,-3.4223,-3.3451,-3.285,-3.2283,-3.2144,0.0,0.0,0.0,0.0,-2.8171,0.0,0.0,0.0,0.0,0.0,0.0,-2.1007,-2.0615,-1.9397,-1.9151,-1.9424,-1.8477,-1.8612,-1.9188,-1.7927,-1.7747,-1.8027,-1.7483,-1.7504,-1.7686,-1.725,-1.7435,-1.7787,-1.7907,-1.7927,-1.8046,-1.8574,-1.8817,-1.9006,-1.9424,-1.9621,-1.9708,-1.9708,-1.9708,-1.9708,-1.9708,-1.9603,-1.9519,-1.9464,-1.8717,0.0,0.0,0.0,0.0,0.0,0.0,0.0,0.0,0.0,0.0,0.0,0.0,0.0,0.0,0.0,0.0,0.0,0.0,0.0,0.0,0.0,-1.7266,-1.697,0.0,-1.6922,0.0,-1.6009,-1.6066,-1.6893,-1.5027,-1.4295,-1.4456,-1.3491,-1.3017,-1.2905,-1.2905,-1.2905,-1.2905,-1.2905,-1.2905,-1.2905,-1.2905,-1.2964,-1.3023,0.0,0.0,0.0,0.0,0.0,0.0,0.0,-3.9205,-3.9223,-3.9261,-3.9076,-3.8706,-3.8021,-3.6694,-3.5819,-3.5819,-3.4539,-3.3761,-3.3829,-3.3694,-3.3609,-3.3609,-3.2876,-3.2442,-3.2374,-3.1019,-3.034,0.0,0.0,0.0,0.0,0.0,0.0,0.0,0.0,0.0,0.0,-2.1831,-2.0986,-1.9765,-1.9147,-1.893,-1.8912,-1.8322,-1.8165,-1.8243,-1.8086,-1.8066,-1.8027,-1.7483,-1.7013,-1.6637,-1.6595,-1.6616,-1.6752,-1.7229,-1.7374,-1.7483,-1.8027,-1.8535,-1.8912,-1.8968,-1.935,-1.9708,-1.9708,-1.9708,-1.9708,-1.9708,-1.9314,-1.9042,-1.928,-1.7818,-1.6646,0.0,0.0,0.0,0.0,0.0,0.0,0.0,0.0,0.0,0.0,-1.6187,0.0,0.0,0.0,0.0,0.0,0.0,0.0,-1.7216,0.0,-1.7549,-1.7891,-1.6764,0.0,-1.6967,-1.6281,-1.5778,-1.5499,-1.5451,-1.4858,-1.3886,-1.3755,-1.3396,-1.2905,-1.2905,-1.2905,-1.2905,-1.2905,-1.2905,-1.2905,-1.2905,-1.3125,-1.3389,0.0,0.0,0.0,0.0,0.0,0.0,0.0,-3.8657,-3.8007,-3.7094,-3.6975,-3.6857,-3.6546,-3.5177,-3.4264,-3.4264,-3.3744,-3.3406,-3.3406,-3.3406,-3.3203,-3.2767,-3.2019,-3.1427,-3.0987,-2.9973,-2.9284,0.0,0.0,0.0,0.0,0.0,0.0,0.0,0.0,-2.304,-2.1812,-2.1338,-2.058,-1.9621,-1.8765,-1.8612,-1.8765,-1.7585,-1.7544,-1.8066,-1.7747,-1.7626,-1.7585,-1.7374,-1.7146,-1.6909,-1.6595,-1.65,-1.6531,-1.6752,-1.6816,-1.693,-1.7463,-1.7787,-1.8086,-1.8727,-1.9062,-1.9299,-1.9621,-1.9708,-1.9708,-1.9708,-1.9024,-1.8352,-1.814,-1.7329,-1.6553,0.0,0.0,0.0,0.0,0.0,0.0,0.0,0.0,0.0,0.0,0.0,-1.6402,0.0,0.0,0.0,0.0,0.0,0.0,-1.7069,0.0,-1.7197,-1.7627,-1.705,-1.6752,-1.6696,-1.6302,-1.6026,-1.5802,-1.4928,-1.4176,-1.363,-1.363,-1.3492,-1.3242,-1.3013,-1.3027,-1.3262,-1.3262,-1.3408,-1.3633,-1.3633,-1.3714,-1.3831,-3.8544,0.0,-3.8632,0.0,-3.8645,-3.8261,-3.8328,-3.7719,-3.6772,-3.5453,-3.4912,-3.4726,-3.4923,-3.3846,-3.2983,-3.278,-3.256,-3.2341,-3.2121,-3.2104,-3.1867,-3.1345,-3.0838,0.0,-2.9786,-2.8897,-2.8254,-2.788,-2.8141,0.0,0.0,0.0,0.0,0.0,-2.3553,-2.2676,-2.1463,-2.113,-2.0498,-1.9603,-1.8535,-1.8341,-1.8516,-1.7055,-1.6972,-1.7605,-1.7394,-1.7312,-1.7312,-1.7312,-1.7312,-1.7209,-1.668,-1.65,-1.65,-1.65,-1.65,-1.6573,-1.6951,-1.7167,-1.7483,-1.8243,-1.8554,-1.8746,-1.9151,-1.9225,-1.9225,-1.9225,-1.8496,-1.7747,-1.7374,-1.6872,-1.636,-1.5895,0.0,0.0,0.0,0.0,0.0,0.0,-1.4079,-1.452,-1.463,-1.5738,0.0,0.0,0.0,0.0,0.0,0.0,0.0,0.0,0.0,0.0,0.0,-1.7092,-1.6764,-1.6169,-1.6079,-1.5964,-1.575,-1.447,-1.3806,-1.3691,-1.3691,-1.3623,-1.3486,-1.3184,-1.3242,-1.3506,-1.3506,-1.3743,-1.4104,-1.4104,-1.4192,-1.428,-3.8868,-3.9086,-3.9151,-3.9029,-3.8988,-3.8505,-3.7049,-3.6146,-3.5346,-3.4607,-3.3241,-3.2632,-3.3355,-3.2767,-3.2022,-3.1275,-3.0565,-2.9837,-2.9094,-2.9044,-2.9044,0.0,0.0,-2.9027,-2.901,-2.7777,-2.7118,-2.71,0.0,0.0,-2.5822,0.0,-2.5361,-2.3833,-2.4482,-2.3272,-2.0748,-2.141,-2.0917,-1.9603,-1.8535,-1.8106,-1.7987,-1.6909,-1.6522,-1.6595,-1.7118,-1.7312,-1.7312,-1.7312,-1.7312,-1.7209,-1.668,-1.65,-1.65,-1.65,-1.65,-1.65,-1.6522,-1.6888,-1.7312,-1.7333,-1.7727,-1.8125,-1.8125,-1.8125,-1.8125,-1.8125,-1.7686,-1.7312,-1.7312,-1.6395,-1.5755,-1.6208,0.0,0.0,0.0,0.0,0.0,0.0,-1.5488,-1.5717,-1.5217,0.0,0.0,0.0,0.0,0.0,0.0,0.0,0.0,-1.7974,-1.7964,0.0,-1.6716,-1.6697,-1.6279,-1.541,-1.5606,-1.5392,-1.4784,-1.4316,-1.4094,-1.4104,-1.4104,-1.386,-1.3506,-1.3496,-1.3506,-1.3506,-1.3506,-1.3743,-1.4104,-1.4104,-1.4377,-1.4745,-3.821,-3.8285,-3.8309,-3.8261,-3.7381,-3.6535,-3.6062,-3.4928,-3.366,-3.2408,-3.1833,-3.1444,-3.119,-3.0937,-3.0497,0.0,-2.9501,-2.9264,0.0,-2.8993,-2.8993,-2.8993,-2.8467,-2.8037,-2.7709,-2.6813,-2.5994,-2.5263,0.0,0.0,0.0,-2.5062,-2.4371,-2.3065,-2.3275,-2.2364,-2.0703,-2.0932,-2.0309,-1.9095,-1.838,-1.7887,-1.7483,-1.6774,-1.65,-1.6573,-1.7118,-1.7055,-1.6816,-1.7167,-1.7055,-1.671,-1.6552,-1.65,-1.65,-1.65,-1.65,-1.65,-1.65,-1.6616,-1.6837,-1.7209,-1.7422,-1.7646,-1.8027,-1.8106,-1.8007,-1.7626,-1.7435,-1.7188,-1.6816,-1.6454,-1.6256,-1.6419,-1.6152,0.0,0.0,0.0,0.0,0.0,-1.5566,-1.5737,0.0,-1.6237,0.0,0.0,0.0,0.0,0.0,0.0,0.0,0.0,-1.8403,0.0,-1.7187,-1.6853,-1.6258,-1.541,-1.5606,-1.5457,-1.4991,-1.4721,-1.458,-1.458,-1.458,-1.4502,-1.4355,-1.4036,-1.4111,-1.4375,-1.4375,-1.4639,-1.4981,-1.4981,-1.5098,-1.5195,-3.7905,-3.7679,-3.7315,-3.6803,-3.5685,-3.4612,-3.3798,-3.2901,-3.1788,-3.0327,-3.0556,-3.0372,-2.9118,-2.9406,0.0,-2.9044,-2.8722,-2.8416,-2.8147,-2.7893,-2.7653,-2.7495,-2.6972,-2.6475,-2.6022,0.0,0.0,-2.441,-2.4608,-2.4537,-2.4216,-2.4216,-2.3673,-2.2714,-2.2688,-2.1967,-2.071,-2.0701,-2.0007,-1.8855,-1.8322,-1.7787,-1.7229,-1.6689,-1.65,-1.6531,-1.6879,-1.6774,-1.6552,-1.69,-1.6774,-1.65,-1.65,-1.65,-1.65,-1.65,-1.65,-1.65,-1.65,-1.65,-1.6573,-1.6909,-1.6993,-1.7097,-1.7435,-1.7327,-1.7086,-1.6723,-1.6489,-1.621,-1.5898,-1.581,-1.581,-1.581,-1.581,-1.57,-1.5298,0.0,0.0,0.0,0.0,0.0,0.0,-1.6668,0.0,0.0,0.0,0.0,0.0,0.0,0.0,-1.8383,-1.8217,0.0,-1.7148,-1.6699,-1.6123,-1.541,-1.5535,-1.5449,-1.5195,-1.5089,-1.5019,-1.5019,-1.5019,-1.4932,-1.4793,-1.4492,-1.4541,-1.4813,-1.4813,-1.5039,-1.543,-1.5596,-1.5557,-1.5439,-3.7533,-3.6937,0.0,0.0,-3.3917,0.0,-3.0788,-3.0468,-2.9922,-2.8517,-2.9365,-2.9313,-2.7276,-2.8054,-2.8766,-2.8817,0.0,0.0,0.0,-2.5899,-2.5363,-2.5041,-2.4855,-2.4593,-2.4225,-2.4343,-2.4369,-2.4348,-2.3837,-2.358,-2.3535,-2.3513,-2.3128,-2.2501,-2.2513,-2.1801,-2.0586,-2.0606,-1.9963,-1.8855,-1.8322,-1.7787,-1.7229,-1.6689,-1.65,-1.65,-1.65,-1.65,-1.65,-1.65,-1.65,-1.65,-1.65,-1.6466,-1.6445,-1.6445,-1.6445,-1.6423,-1.638,-1.6402,-1.6445,-1.6445,-1.6466,-1.65,-1.6457,-1.6008,-1.5588,-1.5543,-1.5085,-1.4698,-1.4698,-1.4698,-1.4698,-1.4698,-1.4698,-1.472,-1.4754,0.0,0.0,0.0,0.0,0.0,0.0,-1.7075,-1.675,0.0,0.0,0.0,0.0,0.0,-1.8354,-1.8018,-1.7656,-1.7236,-1.6707,-1.6318,-1.5879,-1.541,-1.541,-1.541,-1.541,-1.541,-1.541,-1.541,-1.541,-1.5205,-1.4901,-1.4901,-1.4921,-1.4922,-1.4922,-1.5156,-1.5547,-1.5987,-1.588,-1.5566,0.0,0.0,-3.2725,-3.2385,-3.1726,-3.1101,-3.058,-3.0028,-2.9156,-2.7731,-2.7805,-2.7618,-2.6606,-2.627,-2.6346,-2.6899,-2.6617,-2.6178,-2.558,-2.4913,-2.4731,-2.5137,-2.4618,-2.4345,-2.4346,-2.4378,-2.4199,-2.3794,-2.3659,-2.3355,-2.2892,-2.2502,-2.1684,-2.0555,-2.0567,-2.0097,-1.9344,-1.9771,-1.9535,-1.8855,-1.8322,-1.7787,-1.7229,-1.6689,-1.65,-1.65,-1.65,-1.65,-1.65,-1.65,-1.65,-1.65,-1.65,-1.6194,-1.582,-1.582,-1.582,-1.571,-1.5242,-1.5466,-1.582,-1.582,-1.6173,-1.638,-1.5908,-1.5698,-1.5477,-1.5017,-1.4789,-1.4698,-1.4698,-1.4698,-1.4698,-1.4698,-1.4698,-1.4809,-1.5096,-1.5152,0.0,0.0,-1.6914,-1.6972,-1.7585,-1.7118,-1.6858,0.0,0.0,0.0,0.0,-1.7686,-1.7783,-1.8008,-1.8223,-1.7789,-1.6716,-1.6599,-1.6182,-1.541,-1.541,-1.541,-1.541,-1.541,-1.541,-1.541,-1.541,-1.5547,-1.5791,-1.5791,-1.5957,-1.6239,-1.6239,-1.6297,-1.6404,-1.6502,-1.6482,-1.6404,-3.2199,-3.1612,-3.1051,-3.0734,-3.0105,-2.9517,-2.9214,-2.8568,-2.7736,-2.6656,-2.6763,-2.6541,-2.5535,-2.5576,-2.5635,-2.5444,-2.529,-2.5054,-2.4759,-2.3797,-2.3325,-2.3486,-2.3104,-2.297,-2.3172,-2.3473,-2.3481,-2.3197,-2.3197,-2.2742,-2.1875,-2.1574,-2.0762,-1.9537,-1.9528,-1.9178,-1.8601,-1.8855,-1.865,-1.8145,-1.7847,-1.7415,-1.6888,-1.6616,-1.65,-1.65,-1.65,-1.65,-1.65,-1.65,-1.65,-1.6445,-1.6173,-1.5864,-1.5499,-1.4926,-1.4971,-1.513,-1.4789,-1.4949,-1.5253,-1.5543,-1.5842,-1.6008,-1.5676,-1.5174,-1.4687,-1.4352,-1.4061,-1.3884,-1.3884,-1.3884,-1.3884,-1.3884,-1.4087,-1.4359,-1.4702,-1.498,0.0,-1.6982,-1.696,-1.7122,-1.7831,-1.7523,-1.7334,-1.7383,0.0,0.0,-1.7695,-1.7686,-1.7773,-1.8008,-1.8047,-1.7734,-1.7031,-1.6621,-1.6182,-1.5703,-1.5508,-1.5518,-1.5703,-1.5498,-1.541,-1.541,-1.541,-1.5664,-1.6095,-1.6095,-1.6328,-1.6697,-1.6697,-1.6697,-1.6726,-1.6921,-1.6872,-1.6726,-3.1261,-3.0604,-2.9954,-2.9407,-2.8743,-2.8098,-2.754,-2.6881,-2.6213,-2.5555,-2.5902,-2.5728,-2.4426,-2.523,-2.5411,-2.4251,-2.3947,-2.3864,-2.396,-2.2674,-2.1787,-2.1536,-2.1324,-2.1362,-2.168,-2.2358,-2.2703,-2.2703,-2.2703,-2.2058,-2.0878,-2.0685,-2.0027,-1.895,-1.8856,-1.8526,-1.8072,-1.8085,-1.7847,-1.7415,-1.7333,-1.7034,-1.6616,-1.6543,-1.6445,-1.6358,-1.6358,-1.6315,-1.6228,-1.6228,-1.6228,-1.6129,-1.5644,-1.5398,-1.5118,-1.4086,-1.4107,-1.4433,-1.4433,-1.4491,-1.4721,-1.532,-1.5454,-1.5432,-1.5353,-1.4549,-1.3768,-1.3684,-1.3262,-1.2905,-1.2905,-1.2954,-1.3023,-1.3106,-1.3529,-1.4008,-1.4383,0.0,-1.5556,-1.668,-1.6804,-1.7106,-1.793,-1.7959,-1.7793,-1.75,-1.7686,-1.7715,0.0,-1.7695,-1.7871,-1.8008,-1.7666,-1.7451,-1.7383,-1.6535,-1.6124,-1.6193,-1.5723,-1.5742,-1.6183,-1.5713,-1.5547,-1.5576,-1.5537,-1.5791,-1.629,-1.629,-1.6523,-1.6892,-1.6892,-1.6892,-1.6941,-1.7344,-1.7246,-1.6941,-2.9081,-2.8545,-2.8032,-2.7926,-2.736,-2.6896,-2.6752,-2.6183,-2.5501,-2.4844,-2.4845,-2.4596,-2.3799,-2.3906,-2.3731,-2.3028,-2.2425,-2.2334,-2.2894,-2.1663,-2.1141,-2.1652,-2.1106,-2.1083,-2.168,-2.2358,-2.2703,-2.2703,-2.2703,-2.2013,-2.0703,-1.9806,-1.8982,-1.8241,-1.778,-1.7527,-1.7465,-1.7908,-1.8046,-1.7947,-1.7483,-1.725,-1.7126,-1.668,-1.6194,-1.5754,-1.5754,-1.541,-1.4971,-1.4971,-1.4971,-1.4949,-1.488,-1.4493,-1.4045,-1.3852,-1.3515,-1.3176,-1.3176,-1.3563,-1.4073,-1.4698,-1.4835,-1.4721,-1.4213,-1.3933,-1.3661,-1.3152,-1.2978,-1.2905,-1.2905,-1.3174,-1.3576,-1.4086,-1.4432,-1.4947,-1.5831,0.0,-1.6282,-1.7168,-1.7285,-1.7471,-1.7959,-1.7686,-1.7598,-1.7891,-1.7272,-1.7184,-1.7881,-1.7262,-1.7233,-1.7988,-1.7949,-1.7744,-1.7393,-1.6535,-1.6281,-1.659,-1.6172,-1.6201,-1.658,-1.6162,-1.6172,-1.6473,-1.6153,-1.6457,-1.721,-1.721,-1.7432,-1.7812,-1.7812,-1.7812,-1.7822,-1.7891,-1.7871,-1.7822,-2.8113,-2.7525,-2.7061,-2.7061,-2.6497,-2.6063,-2.6063,-2.5495,-2.4948,-2.4649,-2.4291,-2.3954,-2.3625,-2.3295,-2.3002,-2.2718,-2.1754,-2.1291,-2.1605,-2.0707,-2.0303,-2.0621,-2.0333,-2.0647,-2.168,-2.2667,-2.2853,-2.2164,-2.2164,-2.1337,-1.9713,-1.8934,-1.8248,-1.7646,-1.7118,-1.6879,-1.69,-1.7126,-1.7229,-1.7209,-1.6972,-1.6879,-1.6837,-1.6595,-1.6337,-1.603,-1.572,-1.541,-1.5141,-1.4812,-1.4699,-1.4631,-1.4307,-1.4007,-1.3752,-1.3399,-1.3128,-1.2905,-1.2905,-1.3334,-1.3873,-1.4143,-1.4213,-1.4143,-1.3862,-1.3552,-1.3238,-1.2954,-1.2905,-1.2974,-1.3174,-1.3379,-1.3668,-1.4169,-1.4836,0.0,0.0,-1.662,-1.712,-1.7646,-1.7715,-1.7705,-1.7676,-1.75,-1.7461,-1.7656,-1.7305,-1.7256,-1.7656,-1.7295,-1.7266,-1.7656,-1.7891,-1.7812,-1.7393,-1.7005,-1.6875,-1.708,-1.6631,-1.665,-1.707,-1.6621,-1.6502,-1.6687,-1.6514,-1.6787,-1.7383,-1.7383,-1.7627,-1.8037,-1.8227,-1.8315,-1.8315,-1.8315,-1.8315,-1.8286,-2.751,-2.6956,-2.6542,-2.6393,-2.5691,-2.515,-2.515,-2.4471,-2.3975,-2.4126,-2.3563,-2.3216,-2.3377,-2.2835,-2.2405,-2.2242,-2.1287,-2.0628,-2.0483,-1.9882,-1.9566,-1.969,-1.9584,-2.0008,-2.1059,-2.2052,-2.2066,-2.1108,-2.1223,-2.046,-1.8893,-1.8361,-1.7887,-1.7463,-1.6795,-1.65,-1.65,-1.6358,-1.638,-1.65,-1.6358,-1.638,-1.65,-1.65,-1.6402,-1.6238,-1.5776,-1.5432,-1.5118,-1.4652,-1.439,-1.4197,-1.3734,-1.3592,-1.349,-1.3045,-1.2905,-1.2905,-1.2905,-1.3238,-1.36,-1.36,-1.36,-1.36,-1.36,-1.3238,-1.2905,-1.2905,-1.2959,-1.3125,-1.3447,-1.3672,-1.3945,-1.4392,0.0,0.0,0.0,-1.7182,-1.776,-1.7969,-1.7794,-1.7596,-1.7422,-1.7199,-1.7133,-1.7383,-1.7383,-1.7422,-1.7529,-1.7432,-1.7383,-1.7383,-1.7793,-1.7852,-1.7529,-1.7334,-1.7334,-1.7519,-1.695,-1.698,-1.751,-1.708,-1.6902,-1.6989,-1.6892,-1.7129,-1.7539,-1.7637,-1.7871,-1.8159,-1.8588,-1.8754,-1.8754,-1.8754,-1.8685,-1.8559,-2.6821,-2.6617,-2.6393,-2.5794,-2.4664,-2.3835,-2.3835,-2.2729,-2.2147,-2.2766,-2.2244,-2.2077,-2.2694,-2.2155,-2.1513,-2.0894,-2.0754,-2.0438,-1.9813,-1.9254,-1.9188,-1.969,-1.9225,-1.9075,-1.9286,-1.9384,-1.9384,-1.93,-1.9789,-1.9643,-1.8893,-1.8361,-1.8086,-1.8007,-1.6951,-1.65,-1.6466,-1.5908,-1.5986,-1.6445,-1.5886,-1.6008,-1.65,-1.65,-1.6139,-1.5654,-1.561,-1.4881,-1.3933,-1.3886,-1.3481,-1.3031,-1.2968,-1.2968,-1.2968,-1.2905,-1.2905,-1.2905,-1.2905,-1.292,-1.2978,-1.2978,-1.2978,-1.2978,-1.2978,-1.2929,-1.2905,-1.2905,-1.3193,-1.3467,-1.3496,-1.416,-1.489,-1.5485,0.0,0.0,-1.7424,-1.7766,-1.7978,-1.8008,-1.7217,-1.6878,-1.7356,-1.6566,-1.6391,-1.735,-1.7383,-1.7549,-1.7939,-1.7598,-1.7383,-1.7383,-1.7793,-1.7998,-1.7969,-1.7145,-1.7145,-1.7959,-1.7096,-1.7126,-1.7949,-1.7529,-1.7549,-1.7891,-1.751,-1.7578,-1.7988,-1.8354,-1.8529,-1.8598,-1.9072,-1.9238,-1.9238,-1.9238,-1.8984,-1.8598,-2.5902,-2.5531,-2.5061,-2.4462,-2.3625,-2.2877,-2.2507,-2.2029,-2.1805,-2.2053,-2.1852,-2.1805,-2.2053,-2.1192,-2.0469,-2.0231,-1.9523,-1.8979,-1.8722,-1.8516,-1.8496,-1.8688,-1.8903,-1.8863,-1.8538,-1.8946,-1.8782,-1.7982,-1.8566,-1.8501,-1.7839,-1.7679,-1.7605,-1.7565,-1.6837,-1.65,-1.6457,-1.5864,-1.5964,-1.6457,-1.5842,-1.5754,-1.5974,-1.6358,-1.5898,-1.5028,-1.5028,-1.4514,-1.3745,-1.3372,-1.3079,-1.2905,-1.2905,-1.2905,-1.2905,-1.2905,-1.2905,-1.2905,-1.2905,-1.2905,-1.2905,-1.2905,-1.2905,-1.2905,-1.2905,-1.2905,-1.2905,-1.2905,-1.3213,-1.3584,-1.3821,-1.4385,-1.495,-1.5448,0.0,-1.6408,-1.6627,-1.7233,-1.7519,-1.7213,-1.7134,-1.6953,-1.6631,-1.6469,-1.6453,-1.6582,-1.6826,-1.6924,-1.6838,-1.6372,-1.6206,-1.6457,-1.689,-1.7398,-1.7974,-1.7686,-1.7652,-1.8008,-1.7642,-1.7695,-1.8008,-1.7842,-1.7861,-1.7998,-1.7842,-1.7861,-1.8018,-1.8149,-1.797,-1.7738,-1.8858,-1.8639,-1.7776,-1.844,-1.8024,-1.7074,-2.4914,-2.446,-2.3908,-2.3147,-2.2476,-2.1904,-2.1468,-2.1232,-2.1183,-2.139,-2.1232,-2.1116,-2.1165,-2.023,-1.9562,-1.9372,-1.8597,-1.8106,-1.8106,-1.7947,-1.7847,-1.7847,-1.8112,-1.7988,-1.7407,-1.7657,-1.7355,-1.6487,-1.7064,-1.7209,-1.6964,-1.7003,-1.7113,-1.7271,-1.6731,-1.6402,-1.6173,-1.5577,-1.5555,-1.5876,-1.5276,-1.5152,-1.5365,-1.5788,-1.5433,-1.4698,-1.4698,-1.4306,-1.3732,-1.3324,-1.3065,-1.2905,-1.2905,-1.2905,-1.2905,-1.2905,-1.2905,-1.2905,-1.2905,-1.2905,-1.2905,-1.2905,-1.2905,-1.2905,-1.2905,-1.2905,-1.2944,-1.3047,-1.3408,-1.3812,-1.4231,-1.4697,-1.5078,-1.5371,-1.5781,-1.6095,-1.6095,-1.6709,-1.707,-1.6736,-1.6725,-1.6578,-1.6133,-1.6206,-1.621,-1.6094,-1.6484,-1.6629,-1.6515,-1.6011,-1.5839,-1.6109,-1.6147,-1.6611,-1.7535,-1.7736,-1.7881,-1.8008,-1.7881,-1.7881,-1.8008,-1.8008,-1.8008,-1.8008,-1.8008,-1.7828,-1.7588,-1.7687,-1.7364,-1.6876,-1.8091,-1.7876,-1.6977,-1.7614,-1.7167,-1.6132,-2.3825,-2.3577,-2.3177,-2.1907,-2.1186,-2.0784,-2.0795,-2.0232,-2.0029,-2.0709,-2.0194,-1.9838,-1.998,-1.9413,-1.8788,-1.8253,-1.8133,-1.8086,-1.8086,-1.7585,-1.7291,-1.7291,-1.671,-1.6133,-1.561,-1.4994,-1.4686,-1.4686,-1.5217,-1.578,-1.6391,-1.6378,-1.671,-1.725,-1.671,-1.6139,-1.5543,-1.4949,-1.4698,-1.4663,-1.405,-1.4167,-1.4698,-1.4698,-1.4698,-1.4686,-1.4686,-1.4306,-1.3802,-1.3802,-1.3396,-1.2905,-1.2905,-1.2905,-1.2905,-1.2905,-1.2905,-1.2905,-1.2905,-1.2905,-1.2905,-1.2905,-1.2905,-1.2905,-1.2905,-1.2905,-1.2998,-1.3418,-1.3821,-1.4241,-1.4697,-1.5127,-1.541,-1.541,-1.5801,-1.6085,-1.6085,-1.6445,-1.6697,-1.6687,-1.5886,-1.5519,-1.6033,-1.5612,-1.5541,-1.6054,-1.6475,-1.6882,-1.7353,-1.6881,-1.6593,-1.6602,-1.5685,-1.5658,-1.6567,-1.7135,-1.7598,-1.8008,-1.7588,-1.7607,-1.8008,-1.8008,-1.8008,-1.8018,-1.8008,-1.7467,-1.6638,-1.7054,-1.6802,-1.6253,-1.6702,-1.7035,-1.7244,-1.6984,-1.6572,-1.6132,-2.1972,-2.1411,-2.0826,-2.0327,-2.0073,-1.9988,-2.008,-1.9927,-1.9875,-2.008,-1.9463,-1.9245,-1.98,-1.8884,-1.8215,-1.82,-1.7852,-1.7446,-1.6997,-1.6437,-1.6102,-1.6102,-1.5928,-1.5364,-1.4365,-1.4167,-1.3849,-1.343,-1.4016,-1.4412,-1.4573,-1.5016,-1.5309,-1.5465,-1.531,-1.513,-1.4926,-1.4329,-1.4306,-1.4663,-1.405,-1.3909,-1.412,-1.4537,-1.4177,-1.3501,-1.392,-1.3671,-1.3176,-1.3176,-1.3065,-1.2905,-1.2905,-1.2905,-1.2905,-1.2905,-1.2905,-1.2905,-1.2905,-1.2905,-1.2905,-1.2905,-1.2905,-1.2905,-1.2905,-1.2905,-1.2998,-1.3418,-1.3821,-1.4241,-1.4697,-1.5127,-1.541,-1.541,-1.5518,-1.5605,-1.5605,-1.5986,-1.6152,-1.584,-1.609,-1.6105,-1.5644,-1.6023,-1.6095,-1.5634,-1.6016,-1.6455,-1.6904,-1.5777,-1.5281,-1.5606,-1.4665,-1.4271,-1.455,-1.6069,-1.7241,-1.8008,-1.7881,-1.7891,-1.8008,-1.8008,-1.813,-1.8403,-1.8135,-1.7992,-1.7938,-1.7314,-1.6545,-1.584,-1.6486,-1.5795,-1.4536,-1.5444,-1.493,-1.3796,-2.0344,-1.9824,-1.9229,-1.8874,-1.8818,-1.885,-1.8922,-1.8927,-1.8927,-1.8927,-1.8528,-1.8339,-1.8586,-1.7788,-1.7182,-1.7063,-1.6617,-1.6172,-1.5812,-1.5444,-1.5141,-1.4903,-1.4881,-1.4549,-1.3815,-1.3576,-1.3262,-1.2905,-1.3262,-1.3576,-1.3815,-1.4167,-1.4468,-1.4698,-1.4698,-1.456,-1.4329,-1.3956,-1.3873,-1.3954,-1.3576,-1.3443,-1.3481,-1.3836,-1.3549,-1.2954,-1.331,-1.3214,-1.2905,-1.2905,-1.2905,-1.2905,-1.2905,-1.2691,-1.2452,-1.2452,-1.228,-1.2082,-1.2082,-1.2082,-1.2082,-1.2082,-1.2495,-1.2905,-1.2905,-1.3008,-1.3242,-1.3636,-1.4065,-1.4521,-1.4951,-1.5244,-1.541,-1.541,-1.541,-1.541,-1.541,-1.5635,-1.5801,-1.5684,-1.6143,-1.6328,-1.5937,-1.6541,-1.6668,-1.5956,-1.5815,-1.5886,-1.6141,-1.49,-1.4308,-1.4585,-1.3673,-1.331,-1.3709,-1.4871,-1.6114,-1.7467,-1.7828,-1.8008,-1.8018,-1.8149,-1.8364,-1.8598,-1.8555,-1.8344,-1.7996,-1.7042,-1.6054,-1.5062,-1.5234,-1.4439,-1.3292,-1.4037,-1.3663,-1.2764,-1.8955,-1.8581,-1.8124,-1.7584,-1.7495,-1.7523,-1.7578,-1.7605,-1.7605,-1.7605,-1.755,-1.7334,-1.687,-1.6435,-1.5945,-1.5374,-1.4931,-1.4698,-1.4698,-1.4652,-1.4376,-1.3815,-1.3755,-1.3732,-1.3732,-1.3176,-1.2905,-1.2905,-1.2905,-1.3176,-1.3732,-1.3732,-1.4014,-1.4548,-1.4548,-1.4236,-1.3732,-1.3732,-1.3396,-1.2905,-1.2905,-1.2905,-1.2905,-1.2905,-1.2905,-1.2905,-1.2905,-1.2905,-1.2905,-1.2905,-1.2905,-1.2881,-1.2822,-1.2344,-1.1789,-1.174,-1.1291,-1.0788,-1.0788,-1.0788,-1.0788,-1.0788,-1.1767,-1.271,-1.2749,-1.3047,-1.3426,-1.3851,-1.4282,-1.4705,-1.5119,-1.5235,-1.5294,-1.5294,-1.5352,-1.542,-1.5469,-1.5469,-1.5625,-1.6105,-1.6193,-1.6328,-1.6668,-1.709,-1.7158,-1.6726,-1.5859,-1.5343,-1.5343,-1.4297,-1.3709,-1.3709,-1.2806,-1.2696,-1.3564,-1.3673,-1.4629,-1.6498,-1.7329,-1.7759,-1.7779,-1.8224,-1.8453,-1.8511,-1.8978,-1.8488,-1.7279,-1.6578,-1.5485,-1.4231,-1.3574,-1.3252,-1.31,-1.2878,-1.275,-1.2656,-1.7742,-1.7146,-1.6654,-1.6736,-1.6736,-1.6922,-1.7523,-1.7605,-1.7605,-1.7605,-1.709,-1.6795,-1.6946,-1.6356,-1.5823,-1.548,-1.4989,-1.4698,-1.4698,-1.426,-1.3933,-1.3802,-1.3348,-1.3113,-1.3113,-1.2978,-1.2905,-1.2905,-1.2905,-1.2978,-1.3113,-1.3113,-1.3152,-1.3296,-1.3296,-1.3224,-1.3113,-1.3113,-1.3017,-1.2905,-1.2905,-1.2905,-1.2905,-1.2905,-1.2905,-1.2905,-1.2905,-1.2905,-1.2905,-1.2905,-1.2905,-1.2798,-1.2212,-1.1922,-1.169,-1.1166,-1.0914,-1.0788,-1.0788,-1.0788,-1.0788,-1.0788,-1.1023,-1.1327,-1.1575,-1.1704,-1.196,-1.2615,-1.2857,-1.3057,-1.3447,-1.4025,-1.4451,-1.4451,-1.4991,-1.5527,-1.5909,-1.5948,-1.6114,-1.6502,-1.6885,-1.7002,-1.6726,-1.6785,-1.6804,-1.6707,-1.6118,-1.577,-1.577,-1.446,-1.3709,-1.3709,-1.2806,-1.2409,-1.2592,-1.331,-1.4307,-1.5517,-1.5693,-1.5807,-1.5842,-1.6657,-1.72,-1.753,-1.8065,-1.8279,-1.8209,-1.7234,-1.6082,-1.4949,-1.45,-1.3547,-1.2518,-1.2723,-1.2489,-1.202,-1.6716,-1.6238,-1.5792,-1.5961,-1.5979,-1.6112,-1.65,-1.6213,-1.5973,-1.5976,-1.563,-1.528,-1.4957,-1.4708,-1.4327,-1.3777,-1.3481,-1.3464,-1.3813,-1.3539,-1.3372,-1.3372,-1.3065,-1.2749,-1.2369,-1.2369,-1.2369,-1.2369,-1.2369,-1.2378,-1.2372,-1.2749,-1.2905,-1.2905,-1.2905,-1.2905,-1.2881,-1.2535,-1.2369,-1.2344,-1.2024,-1.19,-1.19,-1.19,-1.19,-1.19,-1.19,-1.2098,-1.2369,-1.2369,-1.2369,-1.232,-1.1922,-1.1366,-1.0788,-1.044,-1.009,-0.984,-0.984,-0.984,-0.984,-0.984,-0.9933,-1.0276,-1.1112,-1.1557,-1.1967,-1.2473,-1.2748,-1.295,-1.3161,-1.3726,-1.4213,-1.4213,-1.5073,-1.5831,-1.6065,-1.6281,-1.6543,-1.6992,-1.7246,-1.7199,-1.6713,-1.5923,-1.5517,-1.5641,-1.4856,-1.4437,-1.4576,-1.3594,-1.3025,-1.3025,-1.2556,-1.2305,-1.2305,-1.2806,-1.3528,-1.4486,-1.4985,-1.529,-1.5419,-1.643,-1.7081,-1.7496,-1.8276,-1.8623,-1.8546,-1.7688,-1.6496,-1.515,-1.4629,-1.3556,-1.2318,-1.2516,-1.2288,-1.1819,-1.5508,-1.5259,-1.4991,-1.4991,-1.4991,-1.4991,-1.4991,-1.4421,-1.3981,-1.3994,-1.3975,-1.3617,-1.2587,-1.2603,-1.2413,-1.1694,-1.1641,-1.1882,-1.2486,-1.2544,-1.2593,-1.2715,-1.2593,-1.2295,-1.1814,-1.1591,-1.1516,-1.1641,-1.1641,-1.1625,-1.1642,-1.2255,-1.2544,-1.2544,-1.2544,-1.2544,-1.2486,-1.1882,-1.1641,-1.1591,-1.1015,-1.0788,-1.0788,-1.0788,-1.0788,-1.0788,-1.0788,-1.1166,-1.1641,-1.1641,-1.1641,-1.1616,-1.1491,-1.0686,-0.9788,-0.9666,-0.9237,-0.8804,-0.8804,-0.8804,-0.8818,-0.8871,-0.9038,-0.9535,-1.0798,-1.1602,-1.2148,-1.2373,-1.2735,-1.298,-1.2925,-1.3414,-1.3786,-1.3786,-1.482,-1.5678,-1.5744,-1.6062,-1.6499,-1.6949,-1.7007,-1.6852,-1.6392,-1.5095,-1.4395,-1.4581,-1.3534,-1.2962,-1.3194,-1.2637,-1.2305,-1.2305,-1.2305,-1.2325,-1.2378,-1.2378,-1.2806,-1.3623,-1.4457,-1.5073,-1.5572,-1.6486,-1.7134,-1.7577,-1.8619,-1.8867,-1.8449,-1.7961,-1.6747,-1.5152,-1.4589,-1.3475,-1.2218,-1.2118,-1.1924,-1.1678,-1.3523,-1.3376,-1.3312,-1.3312,-1.3312,-1.3312,-1.3312,-1.3213,-1.3152,-1.3158,-1.3144,-1.2859,-1.2073,-1.1482,-1.1072,-1.0956,-1.0939,-1.0965,-1.1074,-1.1074,-1.135,-1.1922,-1.1391,-1.1316,-1.1789,-1.0661,-1.0338,-1.0939,-1.0939,-1.0948,-1.0948,-1.1049,-1.1074,-1.1074,-1.1074,-1.1074,-1.1074,-1.0965,-1.0939,-1.0939,-1.0838,-1.0788,-1.0788,-1.0788,-1.0788,-1.0788,-1.0788,-1.0864,-1.0939,-1.0939,-1.0939,-1.0838,-1.0236,-0.9943,-0.9692,-0.9113,-0.8883,-0.8804,-0.8804,-0.8804,-0.8871,-0.9091,-0.9184,-0.94,-1.0109,-1.0561,-1.0846,-1.0888,-1.1136,-1.1267,-1.1005,-1.1622,-1.2135,-1.2135,-1.3048,-1.3907,-1.4325,-1.4622,-1.4959,-1.5434,-1.5484,-1.5466,-1.5403,-1.5178,-1.5074,-1.5081,-1.4134,-1.3561,-1.3606,-1.2785,-1.2305,-1.2305,-1.2305,-1.2425,-1.2723,-1.2723,-1.2896,-1.3282,-1.3393,-1.4101,-1.5281,-1.5632,-1.6167,-1.6799,-1.7751,-1.8144,-1.8061,-1.7982,-1.6859,-1.5207,-1.5114,-1.3782,-1.1899,-1.1356,-1.1142,-1.1095,-1.307,-1.3009,-1.3009,-1.3009,-1.3009,-1.3009,-1.3009,-1.2604,-1.2312,-1.2319,-1.2343,-1.195,-1.0997,-1.0315,-0.9992,-1.0208,-1.0244,-1.0389,-1.0788,-1.0788,-1.0939,-1.1241,-1.0965,-1.0762,-1.0686,-1.009,-0.9762,-0.9692,-1.0064,-1.0244,-1.0244,-1.0618,-1.0788,-1.0788,-1.0788,-1.0788,-1.0788,-1.0389,-1.0244,-1.0218,-0.984,-0.9692,-0.9692,-0.9692,-0.9692,-0.9692,-0.9692,-0.9917,-1.0244,-1.0244,-1.0244,-1.0192,-0.9891,-0.9536,-0.922,-0.9052,-0.9024,-0.9058,-0.9252,-0.9299,-0.9332,-0.9452,-0.9584,-0.977,-1.003,-1.0474,-1.0834,-1.0834,-1.0935,-1.0955,-1.0861,-1.1371,-1.1803,-1.1803,-1.2767,-1.3661,-1.4032,-1.4395,-1.475,-1.5157,-1.47,-1.4343,-1.4343,-1.3752,-1.3436,-1.3578,-1.3042,-1.2769,-1.2908,-1.2519,-1.2305,-1.2305,-1.2305,-1.2365,-1.2536,-1.2536,-1.2948,-1.375,-1.3395,-1.3579,-1.4337,-1.5449,-1.5757,-1.5565,-1.6938,-1.7118,-1.6446,-1.6446,-1.5623,-1.4363,-1.421,-1.321,-1.1873,-1.1611,-1.1376,-1.1196]},{"header":{"parameterUnit":"m.s-1","parameterCategory":1,"la1":30.6,"la2":28.766,"lo1":-90.7593,"lo2":-88.6598,"dy":0.0162,"dx":0.0183,"nx":116,"ny":114,"refTime":"2023-09-10T18:00:00:Z","depth":0,"parameterNumber":3,"parameterNumberName":"V-component_of_WINDS"},"data":[0.0,0.0,0.0,0.0,0.0,0.0,0.0,0.0,0.0,0.0,0.0,0.0,0.0,0.0,0.0,0.0,0.0,0.0,0.0,0.0,0.0,0.0,0.0,0.0,0.0,0.0,0.0,0.0,0.0,0.0,0.0,0.0,0.0,0.0,0.0,0.0,0.0,0.0,0.0,0.0,0.0,0.0,0.0,0.0,0.0,0.0,0.0,0.0,0.0,0.0,0.0,0.0,0.0,0.0,0.0,0.0,0.0,0.0,0.0,0.0,0.0,0.0,0.0,0.0,0.0,0.0,0.0,0.0,0.0,0.0,0.0,0.0,0.0,0.0,0.0,0.0,0.0,0.0,0.0,0.0,0.0,0.0,0.0,0.0,0.0,0.0,0.0,0.0,0.0,0.0,0.0,0.0,0.0,0.0,0.0,0.0,0.0,0.0,0.0,0.0,0.0,0.0,0.0,0.0,0.0,0.0,0.0,0.0,0.0,0.0,0.0,0.0,0.0,0.0,0.0,0.0,0.0,0.0,0.0,0.0,0.0,0.0,0.0,0.0,0.0,0.0,0.0,0.0,0.0,0.0,0.0,0.0,0.0,0.0,0.0,0.0,0.0,0.0,0.0,0.0,0.0,0.0,0.0,0.0,0.0,0.0,0.0,0.0,0.0,0.0,0.0,0.0,0.0,0.0,0.0,0.0,0.0,0.0,0.0,0.0,0.0,0.0,0.0,0.0,0.0,0.0,0.0,0.0,0.0,0.0,0.0,0.0,0.0,0.0,0.0,0.0,0.0,0.0,0.0,0.0,0.0,0.0,0.0,0.0,0.0,0.0,0.0,0.0,0.0,0.0,0.0,0.0,0.0,0.0,0.0,0.0,0.0,0.0,0.0,0.0,0.0,0.0,0.0,0.0,0.0,0.0,0.0,0.0,0.0,0.0,0.0,0.0,0.0,0.0,0.0,0.0,0.0,0.0,0.0,0.0,0.0,0.0,0.0,0.0,0.0,0.0,0.0,0.0,0.0,0.0,0.0,0.0,0.0,0.0,0.0,0.0,0.0,0.0,0.0,0.0,0.0,0.0,0.0,0.0,0.0,0.0,0.0,0.0,0.0,0.0,0.0,0.0,0.0,0.0,0.0,0.0,0.0,0.0,0.0,0.0,0.0,0.0,0.0,0.0,0.0,0.0,0.0,0.0,0.0,0.0,0.0,0.0,0.0,0.0,0.0,0.0,0.0,0.0,0.0,0.0,0.0,0.0,0.0,0.0,0.0,0.0,0.0,0.0,0.0,0.0,0.0,0.0,0.0,0.0,0.0,0.0,0.0,0.0,0.0,0.0,0.0,0.0,0.0,0.0,0.0,0.0,0.0,0.0,0.0,0.0,0.0,0.0,0.0,0.0,0.0,0.0,0.0,0.0,0.0,0.0,0.0,0.0,0.0,0.0,0.0,0.0,0.0,0.0,0.0,0.0,0.0,0.0,0.0,0.0,0.0,0.0,0.0,0.0,0.0,0.0,0.0,0.0,0.0,0.0,0.0,0.0,0.0,0.0,0.0,0.0,0.0,0.0,0.0,0.0,0.0,0.0,0.0,0.0,0.0,0.0,0.0,0.0,0.0,0.0,0.0,0.0,0.0,0.0,0.0,0.0,0.0,0.0,0.0,0.0,0.0,0.0,0.0,0.0,0.0,0.0,0.0,0.0,0.0,0.0,0.0,0.0,0.0,0.0,0.0,0.0,0.0,0.0,0.0,0.0,0.0,0.0,0.0,0.0,0.0,0.0,0.0,0.0,0.0,0.0,0.0,0.0,0.0,0.0,0.0,0.0,0.0,0.0,0.0,0.0,0.0,0.0,0.0,0.0,0.0,0.0,0.0,0.0,0.0,0.0,0.0,0.0,0.0,0.0,0.0,0.0,0.0,0.0,0.0,0.0,0.0,0.0,0.0,0.0,0.0,0.0,0.0,0.0,0.0,0.0,0.0,0.0,0.0,0.0,0.0,0.0,0.0,0.0,0.0,0.0,0.0,0.0,0.0,0.0,0.0,0.0,0.0,0.0,0.0,0.0,0.0,0.0,0.0,0.0,0.0,0.0,0.0,0.0,0.0,0.0,0.0,0.0,0.0,0.0,0.0,0.0,0.0,0.0,0.0,0.0,0.0,0.0,0.0,0.0,0.0,0.0,0.0,0.0,0.0,0.0,0.0,0.0,0.0,0.0,0.0,0.0,0.0,0.0,0.0,0.0,0.0,0.0,0.0,0.0,0.0,0.0,0.0,0.0,0.0,0.0,0.0,0.0,0.0,0.0,0.0,0.0,0.0,0.0,0.0,0.0,0.0,0.0,0.0,0.0,0.0,0.0,0.0,0.0,0.0,0.0,0.0,0.0,0.0,0.0,0.0,0.0,0.0,0.0,0.0,0.0,0.0,0.0,0.0,0.0,0.0,0.0,0.0,0.0,0.0,0.0,0.0,0.0,0.0,0.0,0.0,0.0,0.0,0.0,0.0,0.0,0.0,0.0,0.0,0.0,0.0,0.0,0.0,0.0,0.0,0.0,0.0,0.0,0.0,0.0,0.0,0.0,0.0,0.0,0.0,0.0,0.0,0.0,0.0,0.0,0.0,0.0,0.0,0.0,0.0,0.0,0.0,0.0,0.0,0.0,0.0,0.0,0.0,0.0,0.0,0.0,0.0,0.0,0.0,0.0,0.0,0.0,0.0,0.0,0.0,0.0,0.0,0.0,0.0,0.0,0.0,0.0,0.0,0.0,0.0,0.0,0.0,0.0,0.0,0.0,0.0,0.0,0.0,0.0,0.0,0.0,0.0,0.0,0.0,0.0,0.0,0.0,0.0,0.0,0.0,0.0,0.0,0.0,0.0,0.0,0.0,0.0,0.0,0.0,0.0,0.0,0.0,0.0,0.0,0.0,0.0,0.0,0.0,0.0,0.0,0.0,0.0,0.0,0.0,0.0,0.0,0.0,0.0,0.0,0.0,0.0,0.0,0.0,0.0,0.0,0.0,0.0,0.0,0.0,0.0,0.0,0.0,0.0,0.0,0.0,0.0,0.0,0.0,0.0,0.0,0.0,0.0,0.0,0.0,0.0,0.0,0.0,0.0,0.0,0.0,0.0,0.0,0.0,0.0,0.0,0.0,0.0,0.0,0.0,0.0,0.0,0.0,0.0,0.0,0.0,0.0,0.0,0.0,0.0,0.0,0.0,0.0,0.0,0.0,0.0,0.0,0.0,0.0,0.0,0.0,0.0,0.0,0.0,0.0,0.0,0.0,0.0,0.0,0.0,0.0,0.0,0.0,0.0,0.0,0.0,0.0,0.0,0.0,0.0,0.0,0.0,0.0,0.0,0.0,0.0,0.0,0.0,0.0,0.0,0.0,0.0,0.0,0.0,0.0,0.0,0.0,0.0,0.0,0.0,0.0,0.0,0.0,0.0,0.0,0.0,0.0,0.0,0.0,0.0,0.0,0.0,0.0,0.0,0.0,0.0,0.0,0.0,0.0,0.0,0.0,0.0,0.0,0.0,0.0,0.0,0.0,0.0,0.0,0.0,0.0,0.0,0.0,0.0,0.0,0.0,0.0,0.0,0.0,0.0,0.0,0.0,0.0,0.0,0.0,0.0,0.0,0.0,0.0,0.0,0.0,0.0,0.0,0.0,0.0,0.0,0.0,0.0,0.0,0.0,0.0,0.0,0.0,0.0,0.0,0.0,0.0,0.0,0.0,0.0,0.0,0.0,0.0,0.0,0.0,0.0,0.0,0.0,0.0,0.0,0.0,0.0,0.0,0.0,0.0,0.0,0.0,0.0,0.0,0.0,0.0,0.0,0.0,0.0,0.0,0.0,0.0,0.0,0.0,0.0,0.0,0.0,0.0,0.0,0.0,0.0,0.0,0.0,0.0,0.0,0.0,0.0,0.0,0.0,0.0,0.0,0.0,0.0,0.0,0.0,0.0,0.0,0.0,0.0,0.0,0.0,0.0,0.0,0.0,0.0,0.0,0.0,0.0,0.0,0.0,0.0,0.0,0.0,0.0,0.0,0.0,0.0,0.0,0.0,0.0,0.0,0.0,0.0,0.0,0.0,0.0,0.0,0.0,0.0,0.0,0.0,0.0,0.0,0.0,0.0,0.0,0.0,0.0,0.0,0.0,0.0,0.0,0.0,0.0,0.0,0.0,0.0,0.0,0.0,0.0,0.0,0.0,0.0,0.0,0.0,0.0,0.0,0.0,0.0,0.0,0.0,0.0,0.0,0.0,0.0,0.0,0.0,0.0,0.0,0.0,0.0,0.0,0.0,0.0,0.0,0.0,0.0,0.0,0.0,0.0,0.0,0.0,0.0,0.0,0.0,0.0,0.0,0.0,0.0,0.0,0.0,0.0,0.0,0.0,0.0,0.0,0.0,0.0,0.0,0.0,0.0,0.0,0.0,0.0,0.0,0.0,0.0,0.0,0.0,0.0,0.0,0.0,0.0,0.0,0.0,0.0,0.0,0.0,0.0,0.0,0.0,0.0,0.0,0.0,0.0,0.0,0.0,0.0,0.0,0.0,0.0,0.0,0.0,0.0,0.0,0.0,0.0,0.0,0.0,0.0,0.0,0.0,0.0,0.0,0.0,0.0,0.0,0.0,0.0,0.0,0.0,0.0,0.0,0.0,0.0,0.0,0.0,0.0,0.0,0.0,0.0,0.0,0.0,0.0,0.0,0.0,0.0,0.0,0.0,0.0,0.0,0.0,0.0,0.0,0.0,0.0,0.0,0.0,0.0,0.0,0.0,0.0,0.0,0.0,0.0,0.0,0.0,0.0,0.0,0.0,0.0,0.0,0.0,0.0,0.0,0.0,0.0,0.0,0.0,0.0,0.0,0.0,0.0,0.0,0.0,0.0,0.0,0.0,0.0,0.0,0.0,0.0,0.0,0.0,0.0,0.0,0.0,0.0,0.0,0.0,0.0,0.0,0.0,0.0,0.0,0.0,0.0,0.0,0.0,0.0,0.0,0.0,0.0,0.0,0.0,0.0,0.0,0.0,0.0,0.0,0.0,0.0,0.0,0.0,0.0,0.0,0.0,0.0,0.0,0.0,0.0,0.0,0.0,0.0,0.0,0.0,0.0,0.0,0.0,0.0,0.0,0.0,0.0,0.0,0.0,0.0,0.0,0.0,0.0,0.0,0.0,0.0,0.0,0.0,0.0,0.0,0.0,0.0,0.0,0.0,0.0,0.0,0.0,0.0,0.0,0.0,0.0,0.0,0.0,0.0,0.0,0.0,0.0,0.0,0.0,0.0,0.0,0.0,0.0,0.0,0.0,0.0,0.0,0.0,0.0,0.0,0.0,0.0,0.0,0.0,0.0,0.0,0.0,0.0,0.0,0.0,0.0,0.0,0.0,0.0,0.0,0.0,0.0,0.0,0.0,0.0,0.0,0.0,0.0,0.0,0.0,0.0,0.0,0.0,0.0,0.0,0.0,0.0,0.0,0.0,0.0,0.0,0.0,0.0,0.0,0.0,0.0,0.0,0.0,0.0,0.0,0.0,0.0,0.0,0.0,0.0,0.0,0.0,0.0,0.0,0.0,0.0,0.0,0.0,0.0,0.0,0.0,0.0,0.0,0.0,0.0,0.0,0.0,0.0,0.0,0.0,0.0,0.0,0.0,0.0,0.0,0.0,0.0,0.0,0.0,0.0,0.0,0.0,0.0,0.0,0.0,0.0,0.0,0.0,0.0,0.0,0.0,0.0,0.0,0.0,0.0,0.0,0.0,0.0,0.0,0.0,0.0,0.0,0.0,0.0,0.0,0.0,0.0,0.0,0.0,0.0,0.0,0.0,0.0,0.0,0.0,0.0,0.0,0.0,0.0,0.0,0.0,0.0,0.0,0.0,0.0,0.0,0.0,0.0,0.0,0.0,0.0,0.0,0.0,0.0,0.0,0.0,0.0,0.0,0.0,0.0,0.0,0.0,0.0,0.0,0.0,0.0,0.0,0.0,0.0,0.0,0.0,0.0,0.0,0.0,0.0,0.0,0.0,0.0,0.0,0.0,0.0,0.0,0.0,0.0,0.0,0.0,0.0,0.0,0.0,0.0,0.0,0.0,0.0,0.0,0.0,0.0,0.0,0.0729,0.0,0.0,0.0,0.0,0.0,0.0,0.0,0.0,0.0,0.0,0.0,0.0,0.0,0.0,0.0,0.0,0.0,0.0,0.0,0.0,0.0,0.0,0.0,0.0,0.0,0.0,0.0,0.0,0.0,0.0,0.0,0.0,0.0,0.0,0.0,0.0,0.0,0.0,0.0,1.4307,1.4493,1.5206,1.2704,0.9779,0.6481,0.0,0.0,0.0,0.0,0.0,0.0,0.0,0.0,0.0,0.0,0.0,0.0,0.0,0.0,0.0,0.0,0.0,0.0,0.0,0.0,0.0,0.0,0.0,0.0,0.0,0.0,0.0,0.0,0.0,0.0,0.0,0.0,0.0,0.0,0.0,0.0,0.0,0.0,0.0,0.0,0.0,0.0,0.0,0.0,0.0,0.0,0.0,0.0,0.0,0.0,0.0,0.0,0.0,0.0,0.0,0.0,0.0,0.0,0.0,0.0,0.0,0.0,0.0,0.0,0.0,0.0,0.0,0.0,0.0,0.0,0.0,0.0598,0.0,0.0,0.0,0.0,0.0,0.0,0.0,0.0,0.0,0.0,0.0,0.0,0.0,0.0,0.0,0.0,0.0,0.0,0.0,0.0,0.0,0.0,0.0,0.0,0.0,0.0,0.0,0.0,0.0,0.0,0.0,0.0,0.0,0.0,0.0,1.6583,1.6744,1.7398,1.7773,1.8099,1.8405,1.8444,1.6269,1.2277,0.9298,0.0,0.0,0.0,0.0,0.0,0.0,0.0,0.0,0.0,0.0,0.0,0.0,0.0,0.0,0.0,0.0,0.0,0.0,0.0,0.0,0.0,0.0,0.0,0.0,0.0,0.0,0.0,0.0,0.0,0.0,0.0,0.0,0.0,0.0,0.0,0.0,0.0,0.0,0.0,0.0,0.0,0.0,0.0,0.0,0.0,0.0,0.0,0.0,0.0,0.0,0.0,0.0,0.0,0.0,0.0,0.0,0.0,0.0,0.0,0.0,0.0,0.0,0.0,0.6365,0.5114,0.396,0.2184,0.0985,0.0352,0.0507,0.0383,0.0054,0.0,0.0,0.0,0.0,0.0,0.0,0.0,0.0,0.0,0.0,0.0,0.0,0.0,0.0,0.0,0.0,0.0,0.0,0.0,0.0,0.0,0.0,0.0,1.7265,1.696,1.6447,1.6002,0.0,0.0,0.0,0.0,0.0,0.0,1.7468,1.7692,1.8596,2.0177,2.3361,2.5156,2.5607,2.575,2.5122,2.359,1.6573,1.2127,0.9772,0.0,0.0,0.0,0.0,0.0,0.0,0.0,0.0,0.0,0.0,0.0,0.0,0.0,0.0,0.0,0.0,0.0,0.0,0.0,0.0,0.0,0.0,0.0,0.0,0.0,0.0,0.0,0.0,0.0,0.0,0.0,0.0,0.0,0.0,0.0,0.0,0.0,0.0,0.0,0.0,0.0,1.2668,1.1789,0.0,0.0,0.0,0.0,0.0,0.0,0.0,0.0,0.0,0.0,0.0,0.0,0.0,0.0,0.7962,0.9104,0.9251,0.8366,0.7894,0.6701,0.486,0.3222,0.1584,0.0064,0.0063,0.0,0.0334,0.0109,0.0,0.0,0.0,0.0,0.0,0.0,0.0,0.0,0.0,0.0,0.0,0.0,0.0,0.0,0.0,0.0,0.0,0.0,0.0,0.0,0.0,1.9369,1.9228,1.9366,1.9254,1.8962,1.8406,0.0,0.0,0.0,0.0,1.8208,1.8709,1.958,2.1219,2.3697,2.629,2.7723,2.8022,2.8927,2.8885,2.7906,2.4836,2.0395,1.5212,1.4418,0.0,0.0,0.0,0.0,0.0,0.0,0.0,0.0,0.0,0.0,0.0,0.0,0.0,0.0,0.0,0.0,0.0,0.0,0.0,0.0,0.0,0.0,0.0,0.0,0.0,0.0,0.0,0.0,0.0,0.0,0.0,0.0,0.0,0.0,0.0,0.0,0.0,0.0,0.0,1.3653,1.2909,1.1904,1.1279,1.0698,0.0,0.0,0.0,0.0,0.0,0.0,0.0,0.0,0.0,0.9596,0.9404,0.9273,0.9267,0.9901,0.9976,0.9603,0.855,0.7534,0.6638,0.3948,0.2297,0.1435,0.0457,0.0063,0.018,0.0229,0.0217,0.0202,0.0,0.0,0.0,0.0,0.0,0.0141,0.0,0.0,0.0,0.0,0.0,0.0,0.0,0.0,0.0,0.0,0.0,0.0,2.1444,2.1614,2.1846,2.209,2.2429,2.2149,2.1049,2.0552,0.0,0.0,1.9301,1.9727,2.1023,2.3196,2.5527,2.7888,2.9842,3.0854,3.0958,3.2215,3.2406,3.1735,3.2139,2.8114,2.1013,2.0173,1.7482,1.3576,0.0,0.0,0.0,0.0,0.0,0.0,0.0,0.0,0.0,0.0,0.0,0.0,0.0,0.0,0.0,0.0,0.0,0.0,0.0,0.0,0.0,0.0,0.0,0.0,0.0,0.0,0.0,0.0,0.0,0.0,0.0,0.0,0.0,0.0,0.0,0.0,0.0,1.3577,1.3036,1.2293,1.1693,1.1175,0.0,0.0,0.0,0.0,0.0,0.0,0.9537,0.9606,0.9796,1.0126,1.0057,1.012,1.0388,1.0497,1.0551,1.0551,0.9257,0.8432,0.7895,0.5207,0.378,0.3218,0.1441,0.0646,0.0628,0.0415,0.0169,0.0,0.0204,0.0195,0.0,0.0,0.0,0.0,0.0,0.0,0.0,0.0,0.0,0.0,0.0,0.0,0.0,0.0,0.0,2.3602,2.3294,2.434,2.4909,2.457,2.5387,2.5071,2.3002,2.3068,2.2709,2.1598,2.1665,2.2734,2.4857,2.9582,3.2348,3.3018,3.5532,3.6743,3.6688,3.7303,3.7534,3.748,3.7507,3.3639,2.7033,2.484,2.2564,2.0018,1.5583,0.0,0.0,0.0,0.0,0.0,0.0,0.0,0.0,0.0,0.0,0.0,0.0,0.0,0.0,0.0,0.0,0.0,0.0,0.0,0.0,0.0,0.0,0.0,0.0,0.0,0.0,0.0,0.0,0.0,0.0,0.0,0.0,0.0,0.0,0.0,0.0,0.0,0.0,1.4046,1.2303,0.0,0.0,0.0,0.0,0.9804,0.9899,0.9935,0.995,0.9989,1.0154,1.0429,1.0456,1.0534,1.0697,1.0704,1.0707,1.0711,1.0581,0.9643,0.7959,0.7663,0.6629,0.4852,0.3106,0.2362,0.226,0.066,0.0,0.0,0.0,0.0,0.0,0.0,0.0,0.0,0.0,0.0,0.0,0.0,0.0,0.0,0.0,0.0,0.0,2.3654,2.4809,2.5615,2.5527,2.7122,2.7903,2.7197,2.8803,2.8542,2.533,2.5149,2.4502,2.292,2.3269,2.5298,2.9166,3.1766,3.3574,3.4687,3.6313,3.671,3.5979,3.6837,3.7057,3.6768,3.7538,3.6507,3.4089,3.1799,2.8321,2.4101,2.1855,1.9021,0.0,0.0,0.0,0.0,0.0,0.0,0.0,0.0,0.0,0.0,0.0,0.0,0.0,0.0,0.0,0.0,0.0,0.0,0.0,0.0,0.0,0.0,0.0,0.0,0.0,0.0,0.0,0.0,0.0,0.0,0.0,0.0,0.0,0.0,0.0,0.0,0.0,1.2861,1.1986,0.0,1.0944,1.0725,1.049,1.0147,1.0195,1.0213,1.035,1.0493,1.063,1.0778,1.0785,1.0812,1.0799,1.067,1.0622,1.0717,1.0619,1.029,0.9706,0.8383,0.744,0.6721,0.4841,0.3456,0.2476,0.185,0.0993,0.0,0.0,0.0,0.0,0.0,0.0,0.0,0.0,0.0,0.0,0.0,0.0,0.0,0.0,0.0,0.0,2.564,2.7076,2.8129,2.8226,3.0123,3.1075,3.0231,3.1519,3.1075,2.7936,2.7054,2.6015,2.4675,2.6396,2.926,3.3196,3.4934,3.6245,3.7183,3.7857,3.7678,3.6722,3.7706,3.7853,3.7271,3.8349,3.8598,3.8072,3.6565,3.3509,2.9457,2.7461,2.4854,2.1795,0.0,0.0,0.0,0.0,0.0,0.0,0.0,0.0,0.0,0.0,0.0,0.0,0.0,0.0,0.0,0.0,0.0,0.0,0.0,0.0,0.0,0.0,0.0,0.0,0.0,0.0,0.0,0.0,0.0,0.0,0.0,0.0,0.0,0.0,0.0,1.1731,1.2055,1.1638,1.121,1.1019,1.088,1.0631,1.0393,1.0419,1.047,1.0565,1.0761,1.0803,1.0803,1.0803,1.0803,1.0803,1.067,1.0595,1.0639,1.0541,1.0521,1.0499,0.9177,0.8553,0.8465,0.658,0.5128,0.3959,0.2926,0.1825,0.0699,0.0172,0.0,0.0,0.0,0.0,0.0,0.0,0.0,0.0,0.0,0.0,0.0,0.0,0.0,2.6734,2.7354,2.9533,3.1064,3.1215,3.3237,3.4298,3.3489,3.3321,3.2506,3.0684,2.8643,2.7342,2.695,3.1038,3.4455,3.679,3.9351,4.0681,4.0681,4.0476,4.0036,3.9391,4.0251,4.0182,3.9427,4.0301,3.9939,3.8755,3.877,3.7908,3.62,3.2091,3.0164,2.9202,0.0,0.0,0.0,0.0,0.0,0.0,0.0,0.0,0.0,0.0,0.0,0.0,0.0,0.0,0.0,0.0,0.0,0.0,0.0,0.0,0.0,0.0,0.0,0.0,0.0,0.0,0.0,0.0,0.0,0.0,0.0,0.0,0.0,1.2037,1.1476,1.1423,1.2067,1.1453,1.0982,1.1088,1.0827,1.066,1.051,1.0636,1.0721,1.0721,1.0721,1.0721,1.0721,1.0721,1.0721,1.0721,1.0711,1.0633,1.049,1.0483,1.0409,1.0276,1.0114,0.998,0.9908,0.8203,0.7352,0.6836,0.3839,0.2476,0.2116,0.062,0.0,0.0,0.0,0.0,0.0,0.0,0.0,0.0,0.0,0.0,0.0,0.0,2.5927,2.6721,2.7761,2.9867,3.1514,3.2075,3.3513,3.4327,3.3934,3.3139,3.1911,3.0211,2.8477,2.8111,2.95,3.244,3.5367,3.8195,3.9437,4.004,4.004,3.999,3.961,3.8968,3.9203,3.9203,3.8984,3.9724,3.9832,3.9517,4.0062,4.0334,4.009,3.6646,3.4606,3.3303,0.0,0.0,0.0,0.0,0.0,0.0,0.0,0.0,0.0,0.0,0.0,0.0,0.0,0.0,0.0,0.0,0.0,0.0,0.0,0.0,0.0,0.0,0.0,0.0,0.0,0.0,0.0,0.0,0.0,0.0,0.0,0.0,1.3471,1.167,1.2053,1.2635,1.2931,1.2795,1.2652,1.2664,1.1465,1.0704,1.066,1.0697,1.0721,1.0721,1.0721,1.0721,1.0721,1.0721,1.0721,1.0721,1.0507,1.0432,1.049,1.0273,1.0209,1.0273,1.0005,0.9883,0.9808,0.9129,0.811,0.6891,0.6056,0.4868,0.3431,0.0954,0.0,0.0,0.0,0.0,0.0,0.0,0.0,0.0,0.0,0.0,0.0,0.0,2.648,2.7375,2.872,3.0804,3.226,3.2595,3.36,3.3995,3.3357,3.2422,3.1117,2.9423,2.8759,2.9564,3.2102,3.4526,3.7048,3.9755,4.0144,4.0132,3.9841,3.9818,3.9428,3.8727,3.9417,3.9532,3.9265,3.9981,4.0114,3.9811,4.0257,4.1007,4.177,4.0257,3.8957,3.7678,3.5402,3.3198,3.0992,2.8862,2.6617,2.4429,2.2917,0.0,0.0,0.0,0.0,0.0,0.0,0.0,0.0,0.0,0.0,0.0,0.0,0.0,0.0,0.0,0.0,0.0,0.0,0.0,0.0,0.0,0.0,0.0,0.0,1.5753,1.5173,1.3617,1.3259,1.3198,1.3308,1.3325,1.3325,1.3325,1.1696,1.0721,1.0721,1.0721,1.0721,1.0721,1.0721,1.0721,1.0721,1.0721,1.0721,1.0721,1.0487,1.0382,1.0399,1.0098,0.997,0.9995,0.9876,0.9754,0.0,0.9523,0.8871,0.7818,0.7123,0.6168,0.0,0.0,0.0,0.0,0.0,0.0458,0.0,0.0,0.0,0.0,0.0,0.0,0.0,0.0,2.7044,2.8203,2.9734,3.1723,3.2915,3.2699,3.3317,3.3328,3.2248,3.138,3.0274,2.8826,2.961,3.1502,3.4544,3.6819,3.8928,4.0907,4.0856,4.043,3.9688,3.9619,3.9221,3.8552,3.9907,4.016,3.9482,4.0212,4.0128,3.9475,3.9634,4.0416,4.1646,4.2524,4.263,4.1955,3.9124,3.7436,3.6253,3.3661,3.1361,2.9391,2.8439,0.0,0.0,0.0,0.0,0.0,0.0,0.0,0.0,0.0,0.0,0.0,0.0,0.0,0.0,0.0,0.0,0.0,0.0,0.0,0.0,0.0,0.0,0.0,0.0,1.7773,1.7349,1.649,1.4946,1.3905,1.3905,1.3713,1.3582,1.3582,1.1828,1.0721,1.0721,1.0721,1.0721,1.0721,0.0,0.0,0.0,0.0,1.0711,1.0694,1.0544,1.0395,1.0253,1.0097,0.9825,0.9635,0.973,0.9629,0.9388,0.949,0.9371,0.9037,0.7563,0.6827,0.6547,0.4816,0.4083,0.3851,0.2681,0.141,0.0,0.0,0.0,0.0,0.0,0.0,0.0,0.0,2.6958,2.7892,2.934,3.0772,3.1694,3.1825,3.2073,3.213,3.1893,3.0476,2.9751,3.0165,3.1855,3.3691,3.5611,3.7693,3.8983,3.9411,3.9396,3.9017,3.8294,3.8263,3.8187,3.8029,3.7748,3.7521,3.738,3.7545,3.754,3.7434,3.8587,3.9228,3.9644,4.1453,4.3124,4.4488,4.4441,4.298,4.086,3.9856,3.7419,3.4329,3.2063,3.0372,2.8845,2.701,2.6113,0.0,0.0,0.0,0.0,0.0,0.0,0.0,0.0,0.0,0.0,0.0,0.0,0.0,0.0,0.0,0.0,0.0,0.0,0.0,1.8245,1.8043,1.761,1.6576,1.7038,1.7468,1.7468,1.6237,1.5399,1.5399,1.2545,1.0721,1.0721,1.0721,1.0721,1.0721,1.0721,0.0,1.0721,1.0721,1.066,1.0538,1.0392,1.0246,1.0031,0.0,0.0,0.9774,0.9561,0.9435,0.9367,0.9161,0.8964,0.8794,0.8435,0.8165,0.7675,0.5058,0.4015,0.3986,0.372,0.3012,0.2159,0.0,0.0,0.0,0.0,0.0,0.0,0.0,2.7009,2.8,2.9119,2.9745,3.0116,3.0152,2.9689,2.946,2.9638,2.8856,2.939,3.1901,3.3116,3.4804,3.7187,3.8628,3.9306,3.9207,3.8935,3.8436,3.7701,3.7454,3.7148,3.6785,3.6014,3.5508,3.5231,3.4574,3.4258,3.4281,3.5308,3.6384,3.7515,3.9503,4.1421,4.3295,4.4989,4.4338,4.2504,4.2952,4.1052,3.8171,3.6934,3.5692,3.4202,3.1564,3.0284,2.9267,0.0,0.0,0.0,0.0,0.0,0.0,0.0,0.0,0.0,0.0,0.0,0.0,0.0,0.0,2.3117,0.0,0.0,2.1039,2.0031,1.9877,1.9646,1.9054,1.9456,1.9483,1.857,1.7731,1.6888,1.5978,1.3517,1.1633,1.0784,1.0721,1.0721,1.0721,1.0721,1.0721,1.0721,1.0646,1.0568,1.049,1.0273,1.0127,0.9984,0.9893,0.9744,0.9598,0.9527,0.9371,0.915,0.8946,0.8797,0.8699,0.855,0.8357,0.8002,0.6566,0.5567,0.502,0.502,0.4316,0.336,0.0,0.0,0.0,0.0,0.0,0.0,0.0,0.0,2.8009,2.9005,2.917,2.911,2.8883,2.7943,2.7384,2.7543,2.801,2.9819,3.3488,3.424,3.5803,3.8634,3.9311,3.9491,3.9179,3.8663,3.7958,3.709,3.6622,3.5928,3.5026,3.4032,3.3272,3.2637,3.1174,3.053,3.0529,3.0977,3.2459,3.4658,3.6474,3.8383,4.0452,4.3048,4.3318,4.2468,4.3603,4.2447,4.0358,4.0224,3.955,3.8214,3.5277,3.3721,3.2301,2.8901,2.783,0.0,0.0,0.0,0.0,0.0,0.0,0.0,0.0,0.0,2.6125,2.6358,2.6043,2.5432,2.4209,2.3588,2.3036,2.22,2.1808,2.1614,2.1614,2.1296,2.0569,1.9085,1.8669,1.7795,1.6043,1.4293,1.2606,1.085,1.0721,1.0707,1.0677,1.0677,1.0663,1.0636,1.0514,1.0436,1.0405,1.0105,0.996,0.9903,0.9839,0.9625,0.934,0.9462,0.9293,0.8838,0.8832,0.8737,0.8604,0.8336,0.815,0.7988,0.7988,0.7335,0.6381,0.6381,0.5724,0.4768,0.0,0.0,0.0,0.0,0.0,0.0,0.0,0.0,0.0,2.9063,2.9835,3.0021,2.9472,2.8831,2.8237,2.7809,2.9779,3.2046,3.4409,3.5994,3.7563,3.9238,3.9379,3.9121,3.8441,3.7899,3.6973,3.5632,3.5125,3.4095,3.2647,3.1063,2.9892,2.898,2.6998,2.6271,2.6505,2.6162,2.7491,2.9988,3.1564,3.4057,3.7101,3.9408,4.0606,4.1044,4.1199,4.0517,3.938,3.8388,3.7954,3.7689,3.6809,3.5183,3.3474,3.2777,3.0868,2.8799,2.7792,2.7115,2.7003,2.8316,2.8251,2.8601,0.0,0.0,2.949,3.08,2.8959,2.7124,2.7254,2.522,2.3606,2.3739,2.2559,2.1614,2.1614,2.1296,2.0946,2.0499,1.9271,1.7795,1.6043,1.4293,1.2606,1.085,1.0721,1.066,1.0524,1.0517,1.046,1.0334,1.0314,1.0239,1.0038,1.0004,0.9856,0.9659,0.9642,0.9473,0.9234,0.9255,0.9032,0.872,0.8459,0.8336,0.8306,0.8136,0.8005,0.7988,0.7988,0.7889,0.7786,0.7786,0.7686,0.7534,0.0,0.0,0.0,0.0,0.0,0.0,0.0,0.0,0.0,0.0,2.9148,2.8998,2.8867,2.8437,2.7978,2.7551,2.9605,3.1856,3.409,3.6094,3.7801,3.9114,3.9634,3.9294,3.8097,3.7574,3.6703,3.5407,3.4419,3.3187,3.1665,2.9433,2.78,2.6593,2.3942,2.2814,2.2859,2.2572,2.3956,2.652,2.8481,3.0847,3.3445,3.5574,3.6228,3.638,3.903,3.9123,0.0,3.7872,3.7843,3.7651,3.6771,3.5676,3.4279,3.2153,3.097,3.0268,3.0138,3.0362,3.0679,3.0771,3.1587,3.2466,3.2805,3.2558,3.2258,3.2189,3.1345,3.0159,2.8432,2.7349,2.6117,0.0,2.3432,2.268,2.1744,2.1149,2.0815,2.0688,2.0145,1.9122,1.7326,1.5708,1.4101,1.2347,1.122,1.0558,1.0493,1.0415,1.0341,1.0283,1.0195,1.0114,0.9987,0.9818,0.973,0.9608,0.9429,0.9232,0.9025,0.8937,0.8733,0.8448,0.8323,0.8218,0.8133,0.8015,0.7988,0.7988,0.7988,0.7988,0.7988,0.7988,0.7988,0.7978,0.0,0.0,0.0,0.0,0.0,0.0,0.0,0.0,0.0,0.0,0.0,0.0,0.0,2.8282,2.8047,2.7551,2.9582,3.1663,3.3557,3.584,3.7601,3.8649,3.9684,3.9578,3.8152,3.7934,3.7201,3.5905,3.4707,3.3203,3.1427,2.8733,2.671,2.5136,2.171,2.0198,2.0132,1.9397,2.0594,2.3172,2.5114,2.7577,3.0306,3.219,3.2825,3.3183,3.6703,3.7004,3.58,3.6026,3.6266,3.6309,3.5332,3.466,3.3746,3.1429,3.0684,3.0777,3.1522,3.2379,3.306,3.332,3.4432,3.5366,3.478,3.4667,3.4466,3.392,3.3441,3.2333,2.9958,2.92,2.7887,2.4852,2.4184,2.3403,2.1693,2.0995,2.0675,2.0675,2.0601,2.0048,1.8778,1.7356,1.5758,1.4021,1.2177,1.1113,1.1005,1.0524,1.0198,1.0154,1.0008,0.9866,0.9866,0.9676,0.9523,0.9483,0.9218,0.8994,0.8808,0.8615,0.8431,0.832,0.8225,0.8143,0.7988,0.7988,0.7988,0.7988,0.7988,0.7988,0.7988,0.7988,0.7988,0.7968,0.0,0.0,0.0,0.0,0.0,0.0,0.0,0.0,0.0,0.0,0.0,0.0,0.0,2.8881,2.9,2.815,3.0338,3.2147,3.3053,3.5488,3.7225,3.7915,3.944,3.9785,3.8692,3.9173,3.8681,3.7153,3.6148,3.4381,3.1913,2.9029,2.6735,2.4804,2.0416,1.8597,1.8722,1.6509,1.7037,1.9537,2.0778,2.3892,2.7975,2.9544,3.135,3.3215,3.4053,3.3606,3.253,3.1826,3.2201,3.2852,3.2245,3.1646,3.131,3.1744,3.0726,2.9798,3.1387,3.1825,3.2652,3.5937,3.6103,3.623,3.8937,3.758,3.6066,3.7109,3.509,3.2931,3.2368,3.0402,2.8086,2.5648,2.4548,2.3323,2.1409,2.0862,2.0675,2.0675,2.0421,2.0187,0.0,1.8871,1.7313,1.5531,1.3699,1.2574,1.2341,1.0856,0.9926,0.9839,0.9696,0.9622,0.9622,0.9466,0.9313,0.9221,0.9015,0.8788,0.8486,0.8194,0.8136,0.8313,0.8113,0.7992,0.7988,0.7988,0.7988,0.7988,0.7988,0.7988,0.7988,0.7988,0.7988,0.7968,0.0,0.0,0.0,0.0,0.0,0.0,0.0,0.0,0.0,0.0,0.0,0.0,0.0,0.0,0.0,0.0,3.0209,3.1376,3.2243,3.4691,3.6211,3.6427,3.8409,3.9157,3.8459,3.8956,3.8691,3.753,3.6672,3.5098,3.2864,3.0072,2.7734,2.5765,2.1614,1.9435,1.8657,1.5677,1.5913,1.8334,1.9407,2.2303,2.6207,2.8559,3.0005,3.0848,0.0,3.1735,3.1572,3.0845,3.0936,3.1236,3.0633,3.0793,3.1173,3.091,3.1137,3.1675,3.276,3.4186,3.5816,3.7577,3.7824,3.7892,3.8965,3.8199,3.7117,3.6474,3.4999,3.3335,3.1729,3.0455,2.8966,2.7106,2.5711,2.4416,2.3221,2.1824,2.0822,2.0428,2.0641,0.0,0.0,0.0,0.0,1.7222,1.5303,1.4142,1.4337,1.3536,1.3,1.2993,1.1798,1.1181,1.1181,0.9767,0.9062,0.9008,0.8662,0.8387,0.8184,0.8035,0.8019,0.8113,0.8012,0.7988,0.7988,0.7988,0.7988,0.7988,0.7988,0.7988,0.7978,0.7877,0.7889,0.7868,0.0,0.0,0.0,0.0,0.0,0.0,0.0,0.0,0.0,0.0,0.0,0.0,0.0,0.0,0.0,0.0,0.0,3.0405,3.1647,3.3542,3.4736,3.4973,3.6875,3.7599,3.6859,3.7746,3.779,3.6912,3.6582,3.5445,3.3516,3.0853,2.8537,2.6444,2.2713,2.035,1.897,1.6841,1.6567,1.7758,1.9399,2.1822,2.474,2.7615,2.9105,0.0,3.0448,3.0774,3.0713,2.9837,2.9938,3.0301,2.9507,2.978,3.0389,3.0205,3.0889,3.1999,3.3516,3.4971,3.6424,3.8044,3.7979,3.7758,3.8436,3.7818,3.6933,3.639,3.5011,3.3324,3.1562,3.0293,2.8865,2.7006,2.5801,2.4705,2.3475,2.2097,2.1087,2.0596,2.0695,2.0615,0.0,0.0,0.0,1.8717,1.6778,1.5712,1.5923,1.5051,1.4564,1.4419,1.3266,1.2574,1.2377,1.0505,0.9284,0.8696,0.8408,0.8187,0.7988,0.7988,0.7988,0.7988,0.7988,0.7988,0.7988,0.7988,0.7988,0.7985,0.7931,0.7911,0.7891,0.779,0.7699,0.7641,0.0,0.0,0.0,0.0,0.0,0.0,0.0,0.0,0.0,0.0,0.0,0.0,0.0,0.0,0.0,0.0,0.0,0.0,3.1074,3.2106,3.2894,3.3494,3.4954,3.5288,3.4239,3.5766,3.6222,3.5493,3.599,3.5421,3.3804,3.1369,2.9039,2.6833,2.3666,2.1299,1.967,1.9531,1.8701,1.7736,2.0407,2.2123,2.3505,2.6511,2.8502,2.9765,3.0713,3.0656,2.9908,2.8826,2.9158,2.986,2.8954,2.8726,2.8971,2.9668,3.0038,3.0823,3.3471,3.409,3.4628,3.7373,3.6777,3.5914,3.7593,3.6656,3.5696,3.6769,3.4942,3.2865,3.1819,2.9996,2.7911,2.5597,2.5096,2.4416,2.2575,2.1957,2.1539,0.0,0.0,0.0,0.0,0.0,0.0,1.98,0.0,1.7144,1.7144,1.5655,1.4654,1.4351,1.4127,1.3694,1.3112,1.1696,1.0152,0.8459,0.8412,0.8282,0.8088,0.8038,0.7988,0.7988,0.7988,0.7988,0.7988,0.7988,0.7988,0.7975,0.7872,0.7811,0.7794,0.7645,0.7492,0.7405,0.0,0.0,0.0,0.0,0.0,0.0,0.0,0.0,0.0,0.0,0.0,0.0,0.0,0.0,0.0,0.0,0.0,0.0,2.835,3.0466,3.1524,3.1035,3.2968,3.4159,3.4428,3.5602,3.5971,3.5431,3.5514,3.4749,3.3193,3.1297,2.9466,2.7638,2.5224,2.3477,2.2103,1.9764,1.891,1.9186,1.9335,2.0757,2.305,2.5145,2.7188,2.9101,3.0197,3.083,3.096,2.9493,2.9013,2.9245,3.0271,3.0146,2.9578,2.9297,2.9971,3.1043,3.2142,3.3125,3.4444,3.6823,3.6453,3.564,3.6135,3.5234,3.4249,3.3987,3.2634,3.1306,3.0687,2.9479,2.8463,2.8242,2.7533,0.0,2.6802,2.5037,0.0,2.27,0.0,2.0989,2.0401,2.0207,0.0,0.0,1.9168,1.8765,1.8765,1.8154,1.7679,1.7397,1.5857,1.4953,1.4776,1.2869,1.1551,1.0955,1.002,0.9553,0.946,0.8432,0.7988,0.7988,0.7988,0.7988,0.7988,0.7988,0.7988,0.7975,0.7872,0.7811,0.778,0.7526,0.7333,0.7139,0.0,0.0,0.0,0.0,0.0,0.0,0.0,0.0,0.0,0.0,0.0,0.0,0.0,0.0,0.0,0.0,0.0,0.0,0.0,3.0001,3.0669,3.0125,3.1261,3.2053,3.2388,3.3598,3.3917,3.3277,3.4046,3.3635,3.214,3.082,2.9454,2.8055,2.6287,2.4631,2.3083,2.1642,2.0743,0.0,0.0,2.1038,2.269,2.4958,2.6837,2.8536,3.0549,3.1904,3.2582,3.1787,3.0993,3.04,3.0949,3.0294,2.922,2.8758,2.89,2.9383,2.9992,3.0728,3.1676,3.3157,3.3271,3.303,3.3131,3.2849,3.2516,3.2237,3.1213,3.0241,2.9778,2.8763,2.8144,0.0,0.0,0.0,2.767,2.5852,2.4201,0.0,2.2139,0.0,2.0661,2.0381,2.0167,0.0,1.9599,1.9312,1.9178,1.9018,1.8664,1.811,1.7064,1.608,1.5134,1.3668,1.2601,1.1896,1.117,1.0828,1.0779,0.946,0.8874,0.8825,0.0,0.7988,0.7985,0.7917,0.7891,0.787,0.7702,0.7617,0.7584,0.7285,0.7122,0.698,0.0,0.0,0.0,0.0,0.0,0.0,0.0,0.0,0.0,0.0,0.0,0.0,0.0,0.0,0.0,0.0,0.0,0.0,0.0,0.0,3.0109,2.9893,2.9924,2.9851,2.9653,3.0921,3.1188,3.0364,3.2036,3.213,3.0696,2.9943,2.9087,2.8097,2.6941,2.5403,2.3722,2.4299,2.3308,2.1403,2.1771,2.1952,2.2216,0.0,2.6542,2.7869,3.1228,3.3192,3.4231,3.4589,3.3822,3.2557,3.1576,3.017,2.8737,2.8078,2.7324,2.6866,2.7581,2.7752,2.7907,2.8598,2.9202,2.9641,2.9779,3.0235,3.067,3.0984,3.0259,2.9428,2.907,2.8165,2.7539,2.78,0.0,2.7146,2.7308,2.5935,2.4761,2.427,2.2793,2.1677,2.1391,2.0855,2.0436,2.0127,1.9613,1.9178,1.8878,1.8791,1.8337,1.7435,1.7709,1.6918,1.4956,1.4394,1.359,1.2431,1.2237,1.2188,1.2139,1.0828,1.0145,0.9948,0.0,0.0,0.7978,0.7875,0.7811,0.778,0.7485,0.7405,0.7309,0.7031,0.6859,0.6848,0.0,0.0,0.0,0.0,0.0,0.0,0.0,0.0,0.0,0.0,2.1216,2.2683,0.0,0.0,0.0,0.0,0.0,0.0,0.0,0.0,0.0,2.8816,2.9304,2.9533,2.9444,3.0135,3.0073,2.92,3.0124,2.9926,2.8695,2.8596,2.8136,2.7385,2.7143,2.6751,2.6262,2.626,2.5134,2.321,2.2056,2.1401,2.1233,2.2363,0.0,0.0,3.0943,3.3415,3.4798,3.5498,3.5204,3.4374,3.3435,3.1774,2.9733,2.7435,2.6011,2.5317,2.5872,2.6021,2.64,2.7896,2.8311,2.8487,2.8754,2.8928,2.9045,2.9297,2.9053,2.8834,2.8886,2.8298,2.8193,2.9364,2.9137,2.917,3.0054,2.8775,2.7677,0.0,2.6129,2.4525,2.2901,2.2447,0.0,0.0,0.0,1.8871,1.8577,1.809,1.7408,1.6526,1.6787,1.6527,1.5643,1.5538,1.5343,1.5099,1.4076,1.3536,1.3488,1.2188,1.1023,0.9998,0.0,0.0,0.7978,0.7875,0.7811,0.778,0.7485,0.7292,0.7115,0.6947,0.677,0.6529,0.0,0.0,0.0,0.0,0.0,0.0,0.0,1.8751,1.8483,1.8682,1.9365,2.1069,2.4271,2.5046,2.5928,0.0,0.0,0.0,0.0,0.0,0.0,0.0,0.0,0.0,2.9148,2.9726,2.9631,2.8743,0.0,2.9303,2.8259,2.811,2.7901,2.7604,2.7289,2.7299,2.7495,2.6981,2.605,2.4761,2.2711,2.1624,0.0,0.0,0.0,0.0,3.1076,3.3229,3.4802,3.4848,3.4919,3.4858,3.3904,3.216,2.994,2.7283,2.5672,2.4712,2.439,2.3853,2.3707,2.5134,2.5471,2.5552,2.5989,2.7038,2.7854,2.7689,2.8053,2.8404,2.8325,2.7949,2.7905,2.8678,2.8301,2.8448,2.998,2.8614,2.7562,2.802,2.665,2.5192,0.0,2.3443,0.0,0.0,0.0,1.9076,1.809,1.7308,1.6898,1.6784,1.6413,1.6186,1.6059,1.5905,1.5784,1.5778,1.5194,1.4902,1.4848,1.3542,1.2502,1.1715,1.0426,0.0,0.8601,0.7877,0.7584,0.7553,0.7255,0.7095,0.7043,0.7351,0.7306,0.7106,0.0,0.0,0.0,0.0,0.0,0.0,0.0,1.7938,1.7507,1.751,1.8066,1.9762,2.3105,2.4916,2.6487,0.0,0.0,0.0,0.0,0.0,0.0,0.0,0.0,0.0,0.0,0.0,0.0,2.8699,2.9256,0.0,0.0,0.0,0.0,0.0,2.7289,2.7351,2.7758,2.737,2.6592,0.0,0.0,2.1975,0.0,0.0,0.0,0.0,0.0,3.2172,3.3858,3.351,3.3744,3.3999,3.3213,3.1755,2.9872,2.7375,2.5711,2.4534,2.3694,2.2614,2.1845,2.2536,2.2848,2.3123,2.3513,2.5268,2.6822,2.6734,2.7504,2.8136,2.8006,2.7629,2.7469,2.7792,2.7133,2.7229,2.9206,2.7965,2.7205,0.0,2.7035,0.0,2.5067,0.0,0.0,0.0,0.0,0.0,1.7513,1.674,1.652,1.6904,1.6253,1.6005,1.6179,1.5945,1.5784,1.5784,1.5784,1.5751,1.5684,1.4671,1.3891,1.3217,1.1296,0.0,0.0,0.8477,0.8039,0.8005,0.7634,0.7486,0.7545,0.8114,0.8134,0.7945,0.0,0.0,0.0,0.0,0.0,0.0,0.0,1.7592,1.6979,1.7203,1.7569,1.873,2.1193,2.3905,2.6317,0.0,0.0,0.0,0.0,0.0,0.0,0.0,0.0,0.0,0.0,0.0,0.0,2.8974,2.8971,0.0,0.0,0.0,0.0,0.0,0.0,2.6953,2.6814,2.8021,0.0,0.0,0.0,0.0,0.0,0.0,0.0,0.0,0.0,2.9522,3.1115,3.1894,3.1812,3.1311,3.1048,3.0605,2.9808,2.7691,2.5846,2.4562,2.4629,2.379,2.2677,2.1712,2.2296,2.3057,2.301,2.4185,2.5695,2.7109,2.763,2.7994,2.8449,2.7763,2.7403,2.8263,2.7312,2.7052,2.8832,2.8535,2.8461,2.9315,0.0,0.0,2.6153,0.0,0.0,0.0,0.0,0.0,0.0,1.6707,1.6446,1.5917,1.6132,1.6112,1.5872,1.5798,1.5784,1.5784,1.5784,1.5691,1.5438,1.5338,1.4471,1.3002,0.0,0.0,0.0,1.0337,1.013,1.0091,0.9617,0.9375,0.9276,0.935,0.9075,0.8687,0.0,0.0,0.0,0.0,0.0,0.0,1.7627,1.759,1.7305,1.6458,1.6974,1.7882,1.9194,2.155,2.4355,2.764,0.0,0.0,0.0,0.0,0.0,0.0,0.0,0.0,0.0,0.0,2.7794,2.7849,2.8141,0.0,0.0,0.0,0.0,0.0,0.0,0.0,2.6695,0.0,0.0,0.0,0.0,0.0,0.0,0.0,0.0,0.0,0.0,0.0,2.8937,2.9032,2.9044,2.894,2.8078,2.8093,2.8269,2.7384,2.6364,2.5426,2.4945,2.3448,2.2076,2.2306,2.1972,2.1771,2.2551,2.3591,2.4659,2.5502,2.6358,2.6945,2.6968,2.6552,2.6311,2.6741,2.5745,2.5526,2.7374,2.6866,2.6843,2.8223,2.8189,0.0,0.0,0.0,0.0,0.0,0.0,0.0,0.0,1.7078,1.6152,1.6099,1.6039,1.5945,1.5784,1.5658,1.5571,1.5565,1.5391,1.5251,1.5182,1.5182,1.4694,1.3875,0.0,0.0,0.0,1.0716,1.0291,1.0246,0.9761,0.9533,0.9555,1.0073,0.9944,0.955,0.0,0.0,0.0,0.0,0.0,1.8289,1.7574,1.7918,1.78,1.6493,1.6541,1.7032,1.7874,1.947,2.1956,2.5681,2.7111,0.0,0.0,0.0,0.0,0.0,0.0,0.0,0.0,0.0,2.7733,2.7862,2.823,2.8139,0.0,0.0,0.0,0.0,0.0,0.0,0.0,0.0,0.0,0.0,0.0,0.0,0.0,0.0,0.0,0.0,0.0,0.0,0.0,0.0,0.0,2.7108,2.6106,2.6478,2.7154,2.6725,2.6233,2.5655,2.482,2.3206,2.1943,2.2448,2.1812,2.1266,2.207,2.2955,2.3813,2.4575,2.5306,2.5906,2.6102,2.5656,2.5349,2.5567,2.4709,2.4572,2.6065,2.5594,2.5584,0.0,0.0,0.0,0.0,0.0,0.0,0.0,0.0,0.0,0.0,1.7964,1.6666,1.6559,1.6351,1.6019,1.5571,1.5371,1.5271,1.5264,1.497,1.4836,1.4874,1.4649,1.4509,1.4339,0.0,0.0,0.0,1.1447,1.0985,1.0947,1.0489,1.0324,1.0418,1.1004,1.0863,1.0435,0.0,0.0,0.0,0.0,0.0,0.0,1.8653,1.8594,1.8355,1.7666,1.6384,1.6077,1.7552,1.8074,1.9378,2.2022,2.5114,0.0,0.0,0.0,0.0,0.0,0.0,0.0,0.0,0.0,2.8623,2.9674,2.9612,2.9214,2.8463,2.7895,2.7133,2.6278,0.0,0.0,0.0,0.0,0.0,0.0,0.0,0.0,0.0,0.0,0.0,0.0,0.0,0.0,0.0,0.0,0.0,0.0,0.0,2.6288,2.6882,2.5758,2.5249,2.4863,2.4196,2.3545,2.2818,2.1614,2.1717,2.1991,2.1593,2.2092,2.3106,2.4933,2.4867,2.4947,2.6425,2.5484,2.4692,2.5294,2.4773,2.4548,2.5208,2.5285,2.5379,0.0,0.0,0.0,0.0,0.0,0.0,0.0,0.0,0.0,0.0,1.9482,1.8284,1.7214,1.7214,1.6487,1.5022,1.5015,1.5015,1.5008,1.4669,1.4522,1.4459,1.388,1.3773,0.0,0.0,0.0,0.0,1.2999,1.2752,1.2726,1.2388,1.2268,1.2268,1.2268,1.1895,1.1389,0.0,0.0,0.0,0.0,0.0,0.0,0.0,1.8304,1.8074,1.6929,1.6345,1.6008,1.5934,1.6023,1.6483,1.7403,2.2078,0.0,0.0,0.0,0.0,0.0,0.0,0.0,0.0,0.0,2.8733,2.8727,2.9,2.8778,2.8145,2.7544,2.679,2.5926,2.4929,0.0,0.0,0.0,0.0,0.0,0.0,0.0,0.0,0.0,0.0,0.0,0.0,0.0,0.0,0.0,0.0,0.0,0.0,0.0,0.0,2.4874,2.4721,2.4682,2.4371,2.3383,2.2379,2.2168,2.1958,2.1822,2.183,2.1871,2.2171,2.3016,2.3421,2.3805,2.4411,2.4142,2.4061,2.48,2.4019,2.3616,0.0,0.0,0.0,2.5095,2.5474,0.0,0.0,0.0,0.0,0.0,0.0,0.0,0.0,2.1268,1.9977,1.7926,1.7882,1.7201,1.5756,1.5583,1.5,1.4055,1.3761,1.3627,1.3621,1.3393,0.0,0.0,0.0,0.0,0.0,1.3032,1.2784,1.2757,1.2418,1.2305,1.2305,1.2305,1.1931,1.1389,0.0,0.0,0.0,0.0,0.0,0.0,0.0,1.8556,1.8321,1.6661,1.6189,1.5627,1.4633,1.4475,1.4449,1.4514,1.8627,0.0,0.0,0.0,0.0,0.0,0.0,0.0,0.0,2.9365,2.9122,2.9251,2.9416,2.9231,2.8659,2.7661,2.6753,2.5956,2.4328,0.0,0.0,0.0,0.0,0.0,0.0,0.0,1.8828,0.0,0.0,0.0,0.0,0.0,0.0,0.0,0.0,0.0,0.0,0.0,0.0,0.0,2.4762,2.4328,2.37,2.2932,2.2412,2.2493,2.2047,2.1672,2.1863,2.1781,2.1718,2.2032,2.2552,2.3042,2.3325,2.329,2.3445,2.4078,2.3537,2.3231,0.0,0.0,0.0,2.443,0.0,0.0,0.0,0.0,0.0,0.0,0.0,0.0,0.0,0.0,2.0633,1.888,1.8605,1.7722,1.6073,1.5549,1.4838,1.3976,1.337,1.3093,1.32,1.2973,0.0,0.0,0.0,0.0,0.0,1.2817,1.2549,1.2435,1.2248,1.2071,1.1971,1.1971,1.167,1.1263,0.0,0.0,0.0,0.0,0.0,0.0,0.0,1.9162,1.8907,1.6736,1.5888,1.4992,1.3783,1.3397,1.3178,1.3092,0.0,0.0,0.0,0.0,0.0,0.0,0.0,0.0,3.0449,2.9742,2.9863,3.0912,3.0638,3.0284,2.9814,2.8128,2.6986,2.6248,2.3858,2.2317,0.0,0.0,0.0,0.0,0.0,0.0,0.0,0.0,0.0,0.0,0.0,0.0,0.0,0.0,0.0,0.0,0.0,0.0,0.0,0.0,0.0,0.0,0.0,2.2416,2.2666,2.2504,2.2006,2.1568,2.1725,2.1728,0.0,2.1847,2.2249,2.2697,2.3113,2.296,2.2914,2.3257,2.3276,2.3233,0.0,2.3709,0.0,0.0,0.0,0.0,0.0,0.0,0.0,0.0,0.0,0.0,0.0,0.0,2.0302,1.9795,1.9226,1.8008,1.6119,1.5196,1.4681,1.4574,1.3449,1.3025,1.3171,1.262,0.0,0.0,0.0,0.0,0.0,1.2442,1.2147,1.1899,1.1844,1.167,1.1389,1.1389,1.1276,1.1087,0.0,0.0,0.0,0.0,0.0,0.0,0.0,0.0,0.0,0.0,1.5567,1.4864,1.4145,1.3092,1.2332,0.0,0.0,0.0,0.0,0.0,0.0,0.0,0.0,0.0,3.0467,3.0696,3.1227,3.2029,3.1035,3.0497,3.0302,2.8627,2.7162,2.5849,2.3843,2.1638,0.0,0.0,0.0,0.0,0.0,0.0,0.0,0.0,0.0,0.0,2.2015,2.2744,0.0,0.0,0.0,0.0,0.0,0.0,0.0,0.0,2.5799,2.458,2.3464,0.0,2.1975,2.1958,2.1963,2.1847,0.0,2.1664,2.1851,2.1586,2.2098,2.2675,2.2925,2.2782,2.2795,2.322,2.2853,2.265,2.3005,0.0,0.0,0.0,0.0,0.0,0.0,0.0,0.0,0.0,0.0,0.0,0.0,0.0,1.9238,1.8486,1.8309,1.7827,1.6943,1.6409,1.5572,1.4505,1.4249,1.377,1.3122,1.331,0.0,0.0,0.0,0.0,1.2782,1.243,1.213,1.1844,1.1457,1.1332,1.1389,1.1389,1.1632,1.1844,0.0,0.0,0.0,0.0,0.0,0.0,0.0,0.0,0.0,0.0,0.0,0.0,0.0,0.0,0.0,0.0,0.0,0.0,0.0,0.0,0.0,0.0,0.0,2.9136,3.0646,3.0988,3.169,3.2773,3.1517,3.0995,3.1106,2.9186,2.7409,2.5726,2.2879,2.0463,0.0,0.0,0.0,0.0,1.867,0.0,0.0,0.0,0.0,0.0,2.2371,2.2834,0.0,2.3556,2.3629,2.3728,0.0,0.0,0.0,0.0,2.604,2.5365,2.4637,2.3455,2.2332,2.1897,2.1959,2.1945,2.1257,2.1753,2.2108,2.1318,2.2264,2.3082,2.2691,2.2947,2.3206,2.3176,2.2891,0.0,0.0,0.0,0.0,0.0,0.0,0.0,0.0,0.0,0.0,0.0,0.0,0.0,0.0,0.0,1.8486,1.8027,1.7594,1.7254,1.6968,1.633,1.5626,1.4873,1.4438,1.4062,1.3747,1.3509,0.0,0.0,0.0,0.0,1.2154,1.1959,1.1742,1.1484,1.1566,1.1614,1.1626,1.1985,1.2196,1.222,0.0,0.0,0.0,0.0,0.0,0.0,0.0,0.0,0.0,0.0,0.0,0.0,0.0,0.0,0.0,0.0,0.0,0.0,0.0,0.0,0.0,0.0,0.0,2.7942,3.0543,3.0855,3.176,3.3396,3.2048,3.1625,3.2052,2.9817,2.7662,2.5475,2.1796,1.9539,0.0,0.0,1.8523,0.0,1.8968,0.0,0.0,0.0,0.0,0.0,0.0,0.0,0.0,2.3257,2.3243,2.3165,2.4003,0.0,0.0,0.0,0.0,0.0,2.5707,2.4789,2.3575,2.2321,2.2176,2.2142,2.14,2.2111,2.2632,2.1647,2.2829,2.3816,2.3041,2.35,0.0,0.0,0.0,0.0,2.4867,0.0,0.0,0.0,0.0,0.0,0.0,0.0,0.0,0.0,0.0,0.0,0.0,0.0,0.0,1.7715,1.698,1.656,1.6502,1.5797,1.5433,1.5391,1.4618,1.4321,1.4521,1.3776,1.3427,0.0,0.0,0.0,1.1703,1.1676,1.1511,1.135,1.2124,1.2217,1.1974,1.2653,1.2733,1.2468,0.0,0.0,0.0,0.0,0.0,0.0,0.0,0.0,0.0,0.0,0.0,0.0,0.0,0.0,0.0,0.0,0.0,0.0,0.0,0.0,0.0,0.0,2.3532,2.7298,2.9257,3.03,3.1985,3.4293,3.2624,3.2211,3.2963,3.0669,2.7744,2.4291,2.1948,2.0101,1.8737,1.8592,1.8774,1.9199,1.9565,0.0,0.0,0.0,0.0,0.0,0.0,0.0,0.0,2.2942,2.2856,2.3099,2.3662,0.0,0.0,0.0,0.0,0.0,2.5886,2.6178,2.6024,2.3672,2.3224,2.3191,2.2446,2.31,2.3857,2.379,2.4352,2.4957,2.5445,2.5014,2.4701,0.0,0.0,0.0,0.0,0.0,0.0,0.0,0.0,0.0,0.0,0.0,0.0,0.0,0.0,0.0,0.0,0.0,0.0,1.6418,1.6261,1.5986,1.5586,1.5846,1.5969,1.5969,1.5846,1.5371,1.4683,1.4871,1.4528,0.0,0.0,1.2826,1.3077,1.2837,1.2658,1.2594,1.3283,1.3033,1.2319,1.2445,1.264,1.2802,0.0,0.0,0.0,0.0,0.0,0.0,0.0,0.0,0.0,0.0,0.0,0.0,0.0,0.0,0.0,0.0,0.0,0.0,0.0,0.0,0.0,1.6798,2.0801,2.4615,2.8174,2.9748,3.1601,3.3736,3.211,3.183,3.2745,2.9192,2.6434,2.4308,2.176,2.0417,2.0024,1.9595,1.9828,2.0509,0.0,0.0,0.0,0.0,0.0,0.0,0.0,0.0,0.0,0.0,2.2691,2.2615,2.2561,0.0,0.0,0.0,0.0,0.0,2.6392,2.6565,2.6286,2.5481,2.5343,2.5176,2.4347,2.4785,2.5242,2.4824,2.5332,2.5807,2.5815,0.0,2.5869,2.6426,0.0,0.0,0.0,0.0,0.0,0.0,0.0,0.0,0.0,0.0,0.0,0.0,0.0,0.0,0.0,0.0,0.0,0.0,1.6247,1.6016,1.541,1.5615,1.5713,1.5713,1.5713,1.562,1.5444,1.5123,1.4785,1.4403,0.0,1.3139,1.3156,1.2831,1.2633,1.2633,1.312,1.3206,1.3056,1.3243,1.3415,1.3463,0.0,0.0,0.0,0.0,0.0,0.0,0.0,0.0,0.0,0.0,0.0,0.0,0.0,0.0,0.0,0.0,0.0,0.0,0.0,0.0,1.1888,1.5538,1.829,2.2086,2.7116,2.8715,3.0433,3.2342,3.099,3.0723,3.1414,2.7728,2.5625,2.4833,2.2173,2.1117,2.1365,2.0669,2.0775,2.142,0.0,0.0,0.0,0.0,0.0,0.0,0.0,0.0,0.0,0.0,0.0,0.0,0.0,0.0,0.0,2.3885,2.4328,2.4996,2.6624,2.678,2.6582,2.6987,2.6833,2.6538,2.6283,2.6442,2.6602,2.6362,2.6764,2.6995,2.6522,2.6688,0.0,2.758,0.0,0.0,0.0,0.0,0.0,0.0,0.0,0.0,0.0,0.0,0.0,0.0,0.0,0.0,0.0,0.0,0.0,0.0,1.6446,1.6287,1.5731,1.5731,1.562,1.541,1.541,1.5586,1.5908,1.5193,1.4919,1.498,1.4192,1.3686,1.3352,1.3065,1.2874,1.276,1.3183,1.3552,1.3885,1.3938,1.3958,1.387,0.0,0.0,0.0,0.0,0.0,0.0,0.0,0.0,0.0,0.0,0.0,0.0,0.0,0.0,0.0,0.0,0.0,0.0,0.0,0.0,1.0443,1.3215,1.6718,2.0979,2.6001,2.6794,2.8129,3.0138,2.9337,2.8785,2.8486,2.7648,2.6728,2.5658,2.3998,2.291,2.2245,2.1468,2.1027,2.0902,2.1482,0.0,0.0,0.0,0.0,0.0,0.0,0.0,0.0,0.0,0.0,0.0,0.0,0.0,2.2749,2.3151,2.3974,2.5037,2.6148,2.731,2.8062,2.7429,2.6484,2.613,2.7717,2.7766,2.7903,2.9578,2.9428,2.8985,0.0,2.8422,2.815,2.8712,0.0,0.0,0.0,0.0,0.0,0.0,0.0,0.0,0.0,0.0,0.0,0.0,0.0,0.0,0.0,0.0,0.0,0.0,0.0,1.6738,1.6711,1.6711,1.6263,1.541,1.541,1.543,1.5459,1.5371,1.5342,1.5362,1.5274,1.4964,1.4496,1.4591,1.4212,1.3672,1.4379,1.4672,1.4632,1.3831,1.3555,1.3545,0.0,0.0,0.0,0.0,0.0,0.0,0.0,0.0,0.0,0.0,0.0,0.0,0.0,0.0,0.0,0.0,0.0,0.0,0.0,0.0,0.9031,1.2047,1.4394,1.7502,2.1487,2.3987,2.5993,2.7595,2.752,2.7424,2.7302,2.6112,2.5447,2.5214,2.342,2.2608,2.2493,2.1753,2.1707,2.2159,2.253,2.2378,0.0,0.0,0.0,0.0,0.0,0.0,0.0,0.0,2.3049,2.2716,2.1958,2.1848,2.2159,2.3108,2.368,2.4399,2.6271,2.7206,2.7686,2.7875,2.7364,2.7254,2.8879,2.9094,2.9024,2.9349,2.9503,2.9391,0.0,0.0,2.9252,0.0,0.0,0.0,0.0,0.0,0.0,0.0,0.0,0.0,0.0,0.0,0.0,0.0,0.0,0.0,0.0,0.0,0.0,0.0,0.0,1.7111,1.6317,1.6643,1.6267,1.5222,1.58,1.5835,1.541,1.541,1.5264,1.5039,1.5293,1.5148,1.4723,1.4777,1.4633,1.4414,1.4841,1.4995,1.4964,1.4618,1.4496,1.4444,0.0,0.0,0.0,0.0,0.0,0.0,0.0,0.0,0.0,0.0,0.0,0.0,0.0,0.0,0.0,0.0,0.0,0.0,0.5011,0.6378,0.8418,1.1053,1.2925,1.5065,1.7529,2.0461,2.2803,2.453,2.4976,2.5373,2.574,2.4556,2.4212,2.4532,2.3168,2.2721,2.2896,2.2184,2.2281,2.2909,2.3053,2.2735,0.0,0.0,0.0,0.0,0.0,0.0,0.0,0.0,2.3371,2.313,2.23,2.1985,2.207,2.3018,2.3519,2.4253,2.631,2.7144,2.7541,2.8087,2.7937,2.8056,2.9491,2.9818,2.9894,2.9942,2.9729,2.9328,2.8672,0.0,0.0,0.0,0.0,0.0,0.0,0.0,0.0,0.0,0.0,0.0,0.0,0.0,0.0,0.0,0.0,0.0,0.0,0.0,0.0,0.0,0.0,1.7312,1.6434,1.6806,1.6559,1.5742,1.6384,1.6171,1.5205,1.5068,1.4932,1.4795,1.4941,1.4816,1.458,1.458,1.4787,1.5152,1.5297,1.5558,1.5876,1.5763,1.5587,1.5356,0.0,0.0,0.0,0.0,0.0,0.0,0.0,0.0,0.0,0.0,0.0,0.0,0.0,0.0,0.0,0.0,0.0,0.0,0.6359,0.7526,0.8766,1.0116,1.254,1.4095,1.4657,1.6247,1.8313,2.0871,2.1523,2.2419,2.3458,2.3204,2.3293,2.3683,2.3632,2.3625,2.3636,2.282,2.2665,2.2891,2.2769,2.2134,2.1458,0.0,0.0,0.0,0.0,0.0,0.0,0.0,2.3862,2.4359,2.2513,2.2205,2.2547,2.2751,2.3567,2.4735,2.6205,2.7196,2.7841,2.8055,2.7957,2.816,2.9479,2.9908,3.0428,3.1892,3.0457,2.8925,2.8925,2.8486,0.0,0.0,0.0,0.0,0.0,0.0,0.0,0.0,0.0,0.0,0.0,0.0,0.0,0.0,0.0,0.0,0.0,0.0,0.0,0.0,0.0,0.0,1.7398,1.741,1.7291,1.7085,1.7096,1.6273,1.4793,1.4326,1.4365,1.4774,1.4326,1.4104,1.4104,1.4141,1.4834,1.5906,1.5906,1.6602,1.7566,1.7175,1.6654,1.6101,0.0,0.0,0.0,0.0,0.0,0.0,0.0,0.0,0.0,0.0,0.0,0.0,0.0,0.0,0.0,0.0,0.0,0.0,0.5919,0.6184,0.7229,0.9139,1.023,1.1422,1.2785,1.4481,1.6738,1.9554,1.9467,2.0195,2.1657,2.1797,2.217,2.2771,2.2631,2.2632,2.2763,2.2676,2.2658,2.2745,2.3319,2.3095,2.2551,0.0,0.0,0.0,0.0,0.0,0.0,0.0,0.0,0.0,2.3529,2.3194,2.2999,2.3016,2.4389,2.5894,2.6082,2.7196,2.8343,2.8247,2.8232,2.8398,2.9037,2.9517,3.0277,3.1772,3.0953,2.9999,3.0082,0.0,0.0,0.0,0.0,0.0,0.0,0.0,0.0,0.0,0.0,0.0,0.0,0.0,0.0,0.0,0.0,0.0,0.0,0.0,0.0,0.0,0.0,0.0,1.6773,1.7197,1.6938,1.6051,1.643,1.6266,1.563,1.5491,1.532,1.5196,1.5747,1.5842,1.562,1.6305,1.6575,1.6614,1.6819,1.726,1.7845,1.8092,1.7627,1.6786,0.0,0.0,0.0,0.0,0.0,0.0,0.0,0.0,0.0,0.0,0.0,0.0,0.0,0.0,0.0,0.0,0.0,0.0,0.0,0.6785,0.7596,0.9325,0.9931,1.0877,1.2272,1.3362,1.5198,1.7828,1.8032,1.8812,2.0167,2.063,2.1119,2.1583,2.1877,2.2085,2.2254,2.2743,2.2935,2.2915,2.3548,2.3387,2.2786,0.0,0.0,0.0,0.0,0.0,0.0,0.0,0.0,0.0,2.371,2.3356,2.297,2.2858,2.4287,2.5942,2.6034,2.7285,2.8615,2.8841,2.8888,2.9027,2.9672,3.0085,3.0661,0.0,3.1223,3.0648,3.0934,3.1266,0.0,0.0,0.0,0.0,0.0,0.0,0.0,0.0,0.0,0.0,0.0,0.0,0.0,0.0,0.0,0.0,0.0,0.0,0.0,0.0,0.0,0.0,1.65,1.6861,1.6676,1.5967,1.6298,1.6357,1.6184,1.5704,1.543,1.5328,1.5953,1.6067,1.5892,1.6647,1.6999,1.706,1.7248,1.787,1.867,1.8682,1.8215,1.7436,0.0,0.0,0.0,0.0,0.0,0.0,0.0,0.0,0.0,0.0,1.3653,0.0,0.0,0.0,0.0,0.0,0.0,0.0,0.0,0.0,0.9097,1.0232,1.0892,1.1675,1.2617,1.2838,1.3948,1.5983,1.7092,1.8065,1.8988,1.9836,2.0296,2.0432,2.1401,2.184,2.1898,2.292,2.3269,2.313,2.3596,2.3275,2.2561,2.3288,0.0,0.0,0.0,0.0,0.0,0.0,0.0,0.0,2.3268,2.2888,2.2698,2.2519,2.3682,2.5244,2.6105,2.7348,2.8663,2.9529,2.9617,2.9727,3.0863,3.1133,3.1336,3.1982,0.0,3.1134,3.1564,0.0,0.0,0.0,0.0,0.0,0.0,0.0,0.0,0.0,0.0,0.0,0.0,0.0,0.0,0.0,0.0,0.0,0.0,0.0,0.0,0.0,0.0,0.0,1.65,1.65,1.65,0.0,1.65,1.65,1.6457,1.5354,1.5083,1.5487,1.5487,1.5498,1.5543,1.6013,1.664,1.7315,1.7326,1.8274,1.9568,1.8858,1.841,1.797,0.0,0.0,0.0,0.0,0.0,0.0,0.0,0.0,0.0,0.0,0.0,0.0,0.0,0.0,0.0,0.0,0.0,0.0,0.0,0.0,0.8441,1.0166,1.0507,1.0906,1.145,1.2719,1.4166,1.5844,1.6669,1.7594,1.863,1.9976,2.0695,2.0951,2.1099,2.1272,2.1487,2.2601,2.2727,2.2318,2.3922,2.4023,2.3207,2.3215,2.2968,0.0,0.0,0.0,0.0,0.0,0.0,0.0,2.2866,2.2778,2.2907,2.2802,2.419,2.5803,2.6263,2.7245,2.8395,2.9345,2.9312,2.929,3.0186,3.0669,3.1259,3.2591,3.2723,3.2459,0.0,0.0,0.0,0.0,0.0,0.0,0.0,0.0,0.0,0.0,0.0,0.0,0.0,0.0,0.0,0.0,0.0,0.0,0.0,0.0,0.0,0.0,0.0,1.65,1.65,1.65,1.65,0.0,1.65,1.65,1.65,1.6216,1.6414,1.6964,1.6964,1.7011,1.7131,1.7565,1.7648,1.7537,1.7542,1.7944,1.8478,1.8027,1.7716,1.7539,0.0,0.0,0.0,0.0,0.0,0.0,0.0,0.0,0.0,0.0,0.0,0.0,0.0,0.0,0.0,0.0,0.0,0.0,0.0,0.0,0.0,1.0014,0.9927,1.0037,1.0433,1.1854,1.3528,1.5459,1.6862,1.7991,1.8921,2.0398,2.1016,2.0913,2.0927,2.1046,2.1222,2.2162,2.2235,2.1917,2.3484,2.3672,2.3018,2.3335,2.2997,2.2376,2.2562,0.0,0.0,0.0,0.0,0.0,0.0,0.0,2.183,2.2277,2.3638,2.5146,2.5873,2.6981,2.8235,2.9376,2.929,2.9242,3.058,3.0834,3.1094,3.2132,3.233,0.0,0.0,0.0,0.0,0.0,0.0,0.0,0.0,0.0,0.0,0.0,0.0,0.0,0.0,0.0,0.0,0.0,0.0,0.0,0.0,1.741,1.7112,1.6513,1.65,1.65,1.65,1.65,1.65,1.65,1.65,1.65,1.65,1.65,1.6663,1.6974,1.6974,1.7008,1.7103,1.7287,1.7272,1.7071,1.708,1.7421,1.7838,1.729,1.72,1.736,0.0,0.0,0.0,0.0,0.0,0.0,0.0,0.0,0.0,0.0,0.0,0.0,0.0,0.0,0.0,0.0,0.0,0.0,0.0,0.0,0.0,0.9659,0.918,0.9117,0.9552,1.0731,1.2593,1.513,1.7305,1.8901,1.9921,2.1086,2.1438,2.1105,2.108,2.1083,2.1136,2.1838,2.1921,2.1675,2.2936,2.3156,2.2776,2.3638,2.3347,2.2588,2.303,2.3409,2.3622,2.2724,0.0,0.0,0.0,0.0,2.0841,2.168,2.2904,2.4266,2.5589,2.6891,2.819,2.9303,2.9189,2.9269,3.0916,3.0904,3.068,3.1099,3.1346,0.0,0.0,0.0,0.0,0.0,0.0,0.0,0.0,0.0,0.0,0.0,0.0,0.0,0.0,0.0,0.0,0.0,0.0,0.0,1.7476,1.7292,1.7011,1.6513,1.65,1.65,1.65,1.65,1.65,1.65,1.65,1.65,1.65,1.65,1.65,1.65,1.65,1.65,1.65,1.65,1.65,1.6504,1.6493,1.6873,1.7342,1.6734,1.6816,1.7162,0.0,0.0,0.0,0.0,0.0,0.0,0.0,0.0,0.0,0.0,1.2186,0.0,0.0,0.0,0.0,0.0,0.0,0.0,0.7812,0.0,0.0,0.8774,0.8363,0.8377,0.8913,0.9897,1.1981,1.5274,1.7753,2.0147,2.2333,2.2116,2.2282,2.2764,2.2146,2.175,2.1546,2.2126,2.1987,2.1561,2.3055,2.3577,2.3504,2.3917,2.3968,2.3852,2.3856,2.4091,2.4302,2.3814,2.3728,0.0,0.0,0.0,2.1886,2.2033,2.2957,2.4325,2.6289,2.7626,2.8512,2.8584,2.8554,2.88,0.0,0.0,2.9566,0.0,0.0,0.0,0.0,0.0,0.0,0.0,0.0,0.0,0.0,0.0,0.0,0.0,0.0,0.0,0.0,0.0,0.0,0.0,0.0,0.0,1.7413,1.6867,1.6575,1.65,1.65,1.65,1.65,1.65,1.65,1.65,1.65,1.65,1.65,1.65,1.65,1.65,1.65,1.65,1.65,1.65,1.65,1.65,1.6507,1.6566,1.6635,1.6532,1.6554,1.66,0.0,0.0,0.0,0.0,0.0,0.0,0.0,0.0,0.0,0.0,0.0,0.0,0.0,0.0,0.0,0.8341,0.7655,0.7443,0.7918,0.8318,0.8262,0.7667,0.7253,0.7162,0.7411,0.8596,1.0797,1.3899,1.6845,1.9769,2.2691,2.2852,2.3316,2.3953,2.318,2.2791,2.2706,2.2488,2.2204,2.1929,2.2859,2.3533,2.3952,2.4149,2.4559,2.504,2.4963,2.4998,2.5053,2.4989,2.4769,2.4379,2.3466,0.0,0.0,0.0,2.3406,2.4307,2.6208,2.7209,2.7919,2.89,2.891,2.8998,3.0247,2.9891,2.945,0.0,0.0,0.0,0.0,0.0,0.0,0.0,0.0,0.0,0.0,0.0,0.0,0.0,0.0,0.0,0.0,0.0,0.0,0.0,0.0,1.9099,1.6963,1.6625,1.6507,1.6507,1.6498,1.65,1.65,1.65,1.65,1.65,1.65,1.65,1.65,1.65,1.65,1.65,1.65,1.65,1.65,1.65,1.65,1.65,1.65,1.65,1.65,1.65,1.65,1.65,0.0,0.0,0.0,0.0,0.0,0.0,0.0,0.0,0.0,0.0,0.0,0.0,0.0,0.0,0.0,0.0,0.7689,0.7681,0.808,0.8001,0.7526,0.6645,0.6042,0.5714,0.5738,0.7142,0.9365,1.2378,1.5789,1.9153,2.249,2.3453,2.4343,2.5003,2.415,2.3627,2.3441,2.284,2.2377,2.2124,2.2511,2.3144,2.3879,2.4296,2.5083,2.5971,2.6255,2.6197,2.6014,2.6349,2.5965,2.5278,2.4911,2.4524,0.0,0.0,0.0,2.4793,2.5969,2.6538,2.7098,2.8388,2.8578,2.8782,0.0,0.0,2.9459,0.0,0.0,0.0,0.0,0.0,0.0,0.0,0.0,0.0,0.0,0.0,0.0,0.0,0.0,0.0,0.0,0.0,0.0,0.0,0.0,1.9132,1.7219,1.6976,1.6913,1.6913,1.691,1.6837,1.6689,1.6573,1.65,1.65,1.6637,1.6689,1.671,1.6837,1.6837,1.6689,1.6552,1.65,1.65,1.65,1.65,1.65,1.65,1.65,1.6522,1.6705,1.665,1.6522,0.0,0.0,0.0,0.0,0.0,0.0,0.0,0.0,0.0,0.0,0.0,0.0,0.9412,0.9281,0.8933,0.8171,0.8233,0.828,0.8102,0.7208,0.6433,0.579,0.4709,0.0,0.4218,0.5529,0.7849,1.1174,1.5102,1.8773,2.2173,2.3965,2.5257,2.5985,2.4855,2.3897,2.3123,2.3067,2.2559,2.1739,2.2025,2.2404,2.294,2.4401,2.5501,2.6433,2.7723,2.7741,0.0,0.0,0.0,2.6789,2.6256,2.6034,2.581,0.0,0.0,0.0,2.5757,2.5937,2.6203,2.5955,2.6789,2.7615,0.0,0.0,0.0,0.0,0.0,0.0,0.0,0.0,0.0,0.0,0.0,0.0,0.0,0.0,0.0,0.0,0.0,0.0,0.0,0.0,0.0,0.0,0.0,1.9584,1.8822,1.8294,1.8019,1.8019,1.8013,1.7767,1.725,1.6752,1.65,1.6522,1.7013,1.725,1.7271,1.7787,1.7747,1.7229,1.671,1.65,1.65,1.65,1.65,1.65,1.65,1.65,1.6586,1.7272,1.7112,1.6607,0.0,0.0,0.0,0.0,0.0,0.0,0.0,0.0,0.0,0.0,0.0,0.0,0.0,0.897,0.8548,0.813,0.8175,0.812,0.7931,0.7211,0.6335,0.5281,0.4478,0.411,0.4156,0.5895,0.8117,1.0777,1.46,1.7864,2.053,2.2427,2.3601,2.4133,2.4568,2.4591,2.4214,2.3652,2.3026,2.2409,2.2367,2.2702,2.321,2.3217,2.4556,2.6473,0.0,0.0,0.0,0.0,0.0,2.8235,2.7614,2.722,2.6719,2.5275,2.4834,2.4841,2.503,2.5274,2.5727,2.6716,2.7139,2.7494,2.8272,2.8295,0.0,0.0,0.0,0.0,0.0,0.0,0.0,0.0,0.0,0.0,0.0,0.0,0.0,0.0,0.0,0.0,0.0,0.0,0.0,0.0,0.0,0.0,1.942,1.8783,1.8417,1.8417,1.8202,1.8007,1.7827,1.7626,1.7524,1.7524,1.7727,1.7693,1.7518,1.7912,1.8121,1.8098,1.7331,1.6816,1.65,1.65,1.65,1.65,1.65,1.65,1.6522,1.6791,1.6727,1.6586,0.0,0.0,0.0,0.0,0.0,0.0,0.0,0.0,0.0,1.0504,0.0,0.0,0.0,0.0,0.8617,0.8337,0.8125,0.801,0.7999,0.7328,0.6442,0.5345,0.4732,0.4302,0.4125,0.6122,0.8122,1.0104,1.3905,1.6869,1.906,2.108,2.2262,2.2757,2.3711,2.4141,2.4129,2.3813,2.3259,2.2575,2.2503,2.2674,2.29,2.2914,2.4056,0.0,0.0,0.0,0.0,0.0,0.0,0.0,2.8072,2.749,2.6883,2.5503,2.4692,2.4265,2.4477,2.4728,2.5185,0.0,2.6638,2.6867,2.7498,0.0,0.0,0.0,0.0,0.0,0.0,0.0,0.0,0.0,0.0,0.0,0.0,0.0,0.0,0.0,0.0,0.0,0.0,0.0,0.0,0.0,0.0,0.0,1.9708,1.924,1.896,1.896,1.8584,1.838,1.838,1.8204,1.8106,1.8106,1.8283,1.8252,1.8057,1.844,1.8649,1.8671,1.8088,1.7524,1.7013,1.6659,1.6616,1.6752,1.6573,1.65,1.6522,1.6689,1.6659,1.6595,0.0,0.0,0.0,0.0,0.0,0.0,0.0,0.0,0.9954,1.0818,0.0,0.0,0.0,0.0,0.0,0.8775,0.8166,0.7993,0.8385,0.7535,0.668,0.5951,0.5337,0.4713,0.4079,0.6068,0.7779,0.9119,1.2988,1.5896,1.7882,2.0098,2.1504,2.2122,2.2297,2.2491,2.2696,2.3504,2.3153,2.2126,2.2352,2.2146,2.1882,0.0,0.0,0.0,2.7716,2.8389,0.0,2.9784,0.0,0.0,2.7512,2.6774,2.632,2.5673,2.5211,2.4744,0.0,0.0,0.0,0.0,0.0,0.0,2.4977,0.0,0.0,0.0,0.0,0.0,0.0,0.0,0.0,0.0,0.0,0.0,0.0,0.0,0.0,0.0,0.0,0.0,0.0,0.0,0.0,0.0,0.0,2.0393,1.9738,1.9708,1.9708,1.9708,1.9207,1.893,1.893,1.8419,1.8165,1.8165,1.8669,1.893,1.8949,1.946,1.9424,1.893,1.8912,1.8612,1.8066,1.6972,1.6837,1.725,1.671,1.65,1.6552,1.7076,1.6951,1.668,0.0,0.0,0.0,0.0,0.0,0.0,0.9581,1.0107,1.0645,0.0,0.0,0.0,1.0789,1.0044,0.9501,0.9157,0.8721,0.8431,0.8413,0.7888,0.7196,0.6388,0.5909,0.5656,0.565,0.666,0.8093,0.997,1.2752,1.4903,1.6431,1.8544,1.9833,2.0446,2.1394,2.1744,2.1652,2.2056,2.2231,2.2223,2.1901,2.1821,0.0,0.0,0.0,0.0,0.0,2.5981,2.6104,0.0,2.6968,2.6028,0.0,2.5565,2.5493,2.5173,2.4788,2.4431,2.4261,0.0,0.0,0.0,0.0,0.0,0.0,0.0,0.0,0.0,0.0,0.0,0.0,0.0,0.0,0.0,0.0,0.0,0.0,0.0,0.0,0.0,0.0,0.0,0.0,0.0,0.0,0.0,2.0617,1.9884,1.9708,1.9708,1.9708,1.9708,1.9566,1.9479,1.9479,1.9332,1.9262,1.9262,1.9406,1.9479,1.9479,1.9621,1.9621,1.946,1.9062,1.9043,1.9151,1.7686,1.7167,1.725,1.671,1.65,1.6522,1.668,1.6879,1.7167,0.0,0.0,0.0,0.0,0.0,0.8656,1.0329,1.0946,1.1456,0.0,0.0,0.0,1.1081,1.0491,0.9957,0.9495,0.9178,0.8912,0.8667,0.8341,0.7852,0.7079,0.7071,0.6968,0.6693,0.7824,0.9092,1.0461,1.2863,1.4678,1.6054,1.8057,1.9171,1.9564,2.0604,2.0931,2.0757,2.084,2.1283,0.0,2.1878,0.0,0.0,2.2092,2.247,0.0,0.0,0.0,2.5682,2.5839,2.5234,0.0,0.0,0.0,0.0,2.4764,2.4492,2.4156,2.4114,0.0,0.0,0.0,0.0,0.0,2.4302,2.4953,0.0,0.0,0.0,0.0,0.0,0.0,0.0,0.0,0.0,0.0,0.0,0.0,0.0,0.0,0.0,0.0,0.0,0.0,0.0,2.2467,2.1231,2.0292,1.9738,1.9708,1.9708,1.9708,1.9708,1.9708,1.9708,1.9708,1.9708,1.9708,1.9708,1.9708,1.9708,1.9708,1.9708,1.969,1.9369,1.9406,1.9603,1.8458,1.7967,1.7907,1.7394,1.7167,1.7167,1.7167,1.7374,1.7706,0.0,0.0,0.2542,0.5203,0.7479,0.9457,1.1007,1.1725,1.2246,0.0,1.2524,1.2026,1.121,1.09,1.0481,0.986,0.9579,0.9324,0.9037,0.8855,0.8517,0.8016,0.8509,0.8355,0.7409,0.9089,1.0219,1.0739,1.3074,1.4958,1.6355,1.8154,1.9125,1.9359,0.0,0.0,2.0166,2.0048,0.0,2.1384,2.1976,2.2022,0.0,0.0,2.2707,2.2643,2.4392,2.5342,2.5655,2.4885,2.4258,0.0,0.0,0.0,0.0,0.0,2.4214,0.0,0.0,0.0,0.0,0.0,0.0,0.0,2.2989,2.3851,2.4691,0.0,0.0,0.0,0.0,0.0,0.0,0.0,0.0,0.0,0.0,0.0,0.0,0.0,0.0,0.0,0.0,2.5496,2.4703,2.3569,2.2365,2.1098,1.9768,1.9708,1.9708,1.9708,1.9708,1.9708,1.9708,1.9708,1.9708,1.9708,1.9708,1.9708,1.9708,1.9708,1.9708,1.9708,1.9708,1.9708,1.9657,1.9188,1.8949,1.8855,1.8322,1.8106,1.8106,1.8106,1.8145,1.8263,0.0,0.1688,0.3554,0.6627,0.8607,1.041,1.2331,1.2579,1.266,1.2995,1.2473,1.2015,1.1818,1.1273,1.0785,1.0467,1.01,0.9713,0.9256,0.9215,0.9145,0.9104,0.8858,0.8638,0.8483,0.8976,0.9818,1.1028,1.284,1.471,1.6574,1.7852,1.8814,1.9487,2.0163,2.0553,2.0679,0.0,0.0,2.0784,2.1071,0.0,2.2215,2.1974,2.2085,2.2538,2.3551,2.3345,2.2618,2.276,2.3083,2.343,0.0,0.0,0.0,2.3595,0.0,0.0,0.0,0.0,0.0,0.0,0.0,0.0,2.3629,2.416,2.4674,0.0,0.0,0.0,0.0,0.0,0.0,0.0,0.0,0.0,0.0,0.0,0.0,0.0,0.0,0.0,0.0,2.5416,2.4775,2.4087,2.2488,2.0992,1.9771,1.9708,1.9708,1.9708,1.9708,1.9708,1.9708,1.9708,1.9708,1.9708,1.9708,1.9708,1.9708,1.9708,1.9708,1.9708,1.9708,1.9708,1.969,1.9584,1.9281,1.8855,1.8322,1.8106,1.8106,1.8106,1.838,1.8746,0.2072,0.3328,0.521,0.7537,0.9562,1.1398,1.3099,1.3188,1.3113,1.3252,1.2717,1.2326,1.2192,1.1897,1.151,1.0982,1.0749,1.0349,0.97,0.9753,0.9717,0.9502,0.9287,0.9107,0.8898,0.9512,1.0166,1.0944,1.3037,1.4939,1.6688,1.8004,1.8815,1.9184,1.9785,1.9985,1.9913,0.0,2.022,2.0383,2.1,0.0,2.1576,2.1864,2.1958,2.1997,2.2444,2.2427,2.2319,2.3146,2.3301,0.0,0.0,2.2937,2.2724,0.0,2.3456,2.3354,0.0,0.0,0.0,2.3201,0.0,0.0,0.0,2.3033,2.3201,2.3713,0.0,0.0,0.0,0.0,0.0,0.0,0.0,0.0,0.0,0.0,0.0,0.0,0.0,0.0,0.0,2.5866,2.5176,2.3769,2.2814,2.1626,2.008,2.0,1.9909,1.9708,1.9708,1.9708,1.9708,1.9708,1.9708,1.9708,1.9708,1.9708,1.9708,1.9708,1.9708,1.9708,1.9708,1.9708,1.9708,1.9708,1.9548,1.9262,1.9006,1.8893,1.8893,1.8893,1.9062,1.9299,0.3588,0.4944,0.6719,0.814,1.027,1.2227,1.3567,1.3571,1.3355,1.3264,1.301,1.274,1.2611,1.261,1.238,1.181,1.1635,1.123,0.0,1.0405,1.0192,0.9627,0.9621,0.9384,0.8803,0.989,1.0548,1.0748,1.3232,1.5197,1.6715,1.8263,1.9054,1.9144,1.9579,1.967,1.9453,0.0,0.0,2.0219,0.0,2.1162,2.0828,2.1584,2.1629,2.1352,2.1551,2.208,2.2849,2.3902,2.3635,2.2934,2.3143,2.2826,0.0,0.0,0.0,0.0,0.0,0.0,0.0,0.0,0.0,2.2443,0.0,0.0,0.0,2.2301,0.0,0.0,0.0,0.0,0.0,0.0,0.0,0.0,0.0,0.0,0.0,0.0,0.0,0.0,0.0,2.668,2.595,2.3726,2.3489,2.2652,2.0749,2.0427,2.0158,1.9836,1.9729,1.9729,1.9803,1.9818,1.9818,1.9818,1.9818,1.9764,1.9708,1.9782,1.9818,1.9836,1.9909,1.9945,1.9945,1.9839,1.9871,1.9927,1.9764,1.9708,1.9708,1.9708,1.9708,1.9708,0.5127,0.5746,0.6961,0.8488,1.0529,1.2407,1.3743,1.3651,1.3264,1.2833,1.2997,1.3186,1.3367,1.3444,1.345,1.336,0.0,0.0,1.1646,0.0,1.0538,0.9731,0.952,0.895,0.7949,0.9279,1.0165,1.0527,1.3031,1.5061,1.6643,1.8249,1.9456,2.0302,2.0445,2.0686,2.1003,0.0,2.0192,0.0,2.0698,2.0881,0.0,2.041,2.0483,2.0858,2.1482,2.2109,2.2709,0.0,2.2902,2.2777,0.0,2.1487,2.116,2.1467,0.0,0.0,0.0,0.0,0.0,0.0,2.1852,0.0,0.0,0.0,2.0936,2.1449,0.0,0.0,0.0,0.0,0.0,0.0,0.0,0.0,0.0,0.0,0.0,0.0,0.0,0.0,0.0,0.0,2.7361,2.5374,2.4946,2.3947,2.2,2.088,2.028,2.0229,1.9892,1.9874,2.0229,2.0229,2.0229,2.0229,2.0229,2.0052,1.9711,2.007,2.0229,2.0246,2.0665,2.0845,2.0813,2.0399,2.0482,2.078,1.9997,1.9708,1.9708,1.9708,1.9708,1.9708,0.6166,0.7258,0.8693,0.9934,1.1567,1.3053,1.4056,1.4008,1.3683,1.3244,1.3299,1.3428,0.0,0.0,0.0,0.0,0.0,1.273,0.0,0.0,1.1315,1.0115,0.9617,0.906,0.8335,0.9149,0.9675,0.9908,1.2703,1.4773,1.612,1.8131,1.9296,1.9774,2.0578,0.0,2.018,0.0,2.0588,0.0,0.0,0.0,0.0,2.0416,2.0315,2.0229,2.0582,2.1094,2.1673,0.0,2.1993,0.0,0.0,0.0,0.0,0.0,0.0,0.0,0.0,0.0,0.0,0.0,0.0,0.0,2.1424,0.0,2.0148,0.0,0.0,0.0,0.0,0.0,0.0,0.0,0.0,0.0,0.0,0.0,0.0,0.0,0.0,0.0,0.0,0.0,0.0,0.0,0.0,2.46,2.1953,2.1102,2.0715,2.0715,2.0278,2.0261,2.0699,2.0715,2.0715,2.0699,2.0433,2.0212,2.0052,1.9982,1.9947,1.9947,2.0156,2.0396,2.0583,2.0382,2.0583,2.0959,2.0614,2.0294,2.0017,1.9782,1.9708,1.9729,0.7553,0.8674,0.9904,1.0812,1.2148,1.3272,1.3939,1.3992,1.3833,1.3343,0.0,0.0,1.3515,1.347,0.0,0.0,1.396,1.3602,0.0,0.0,1.2113,0.0,0.0,0.0,0.0,0.9106,0.94,0.9623,1.2521,1.4513,1.5623,1.7943,1.9263,1.9775,2.0816,2.0823,2.0096,0.0,2.0757,2.0065,2.0411,2.0346,2.0053,2.0342,2.0107,1.9611,1.9904,2.0144,2.0423,2.0955,2.079,0.0,2.082,0.0,0.0,0.0,0.0,0.0,1.9146,0.0,0.0,0.0,0.0,0.0,0.0,0.0,0.0,0.0,0.0,0.0,0.0,0.0,0.0,0.0,0.0,0.0,0.0,0.0,0.0,0.0,0.0,0.0,0.0,0.0,0.0,0.0,2.5834,2.5276,2.2252,2.1498,2.1262,2.1456,2.0826,2.081,2.1472,2.1262,2.1166,2.115,2.083,2.0517,2.0297,2.0139,1.998,1.9874,1.9997,2.0225,2.05,2.05,2.0748,2.115,2.1039,2.0862,2.0616,2.0193,2.0067,2.0087,0.9583,0.965,0.9908,1.0505,1.1796,1.2819,1.3099,1.3319,1.3277,1.2802,0.0,0.0,0.0,0.0,0.0,0.0,0.0,1.5305,1.4282,0.0,1.285,0.0,0.0,0.946,0.0,0.0,0.9516,0.9988,1.2543,1.433,1.5353,1.7705,1.9601,2.1061,2.1363,2.1655,2.1852,2.1256,2.0596,1.9899,1.9927,1.9883,1.9807,0.0,1.9556,1.9119,1.976,0.0,0.0,1.9167,1.927,0.0,0.0,0.0,0.0,0.0,0.0,0.0,0.0,0.0,0.0,1.8335,0.0,0.0,0.0,0.0,1.7376,0.0,0.0,0.0,0.0,0.0,0.0,2.1411,0.0,0.0,0.0,0.0,0.0,0.0,0.0,0.0,0.0,0.0,0.0,2.6341,2.6894,2.6191,2.3492,2.222,2.1911,2.2617,2.1568,2.1504,2.2633,2.1943,2.1582,2.1582,2.1567,2.1118,2.0314,2.0764,2.0715,2.0314,2.0764,2.0975,2.0975,2.0975,2.1213,2.1536,2.115,2.1228,2.1506,2.1102,2.0975,2.0959,1.0213,1.0709,1.1177,1.1682,1.2402,1.3032,1.3438,1.3593,1.3824,0.0,0.0,0.0,0.0,1.5159,1.5128,0.0,0.0,1.5179,1.4845,1.4334,0.0,0.0,0.0,1.045,0.0,0.0,0.0,0.0,1.2468,1.4255,1.5485,1.7818,1.9692,2.1075,2.1883,2.2181,0.0,0.0,0.0,0.0,0.0,1.9687,1.9434,0.0,0.0,1.897,1.8858,1.8684,0.0,1.8561,1.8455,1.8312,1.8315,1.7881,1.731,1.7086,1.6952,0.0,0.0,0.0,1.6802,1.7378,0.0,0.0,0.0,0.0,0.0,0.0,0.0,0.0,0.0,0.0,1.9832,2.0239,2.0991,0.0,0.0,0.0,0.0,0.0,0.0,0.0,0.0,0.0,0.0,2.4985,2.616,2.5938,0.0,2.3231,2.3137,2.3165,2.2483,2.2221,2.2429,2.2195,2.2061,2.2046,2.1749,2.146,2.1165,2.1055,2.0732,2.0314,2.0466,2.0699,2.0991,2.0991,2.1415,2.2046,2.1915,2.1945,2.1974,2.126,2.0991,2.1039,1.0788,1.1418,0.0,0.0,0.0,1.3021,1.3317,0.0,0.0,0.0,1.4608,0.0,1.5698,0.0,1.5244,0.0,1.5561,1.5384,1.5074,1.465,0.0,1.3281,1.2247,0.0,0.0,0.0,0.0,0.0,0.0,1.4511,1.566,1.7657,1.9417,2.0926,2.1686,2.2086,2.2153,2.2406,2.1878,0.0,0.0,1.9566,0.0,0.0,1.9083,1.8412,0.0,1.7777,1.7584,1.7644,1.7508,1.7389,1.7587,1.7213,1.6665,1.6535,1.6479,1.6436,1.6504,1.6448,0.0,1.6771,1.6438,0.0,1.6173,0.0,0.0,0.0,0.0,0.0,0.0,0.0,0.0,1.9177,1.9936,2.0734,0.0,2.242,0.0,0.0,0.0,0.0,0.0,0.0,2.7147,2.4791,2.6408,2.6489,0.0,0.0,2.4125,2.4173,2.3638,2.3254,2.3088,2.2818,2.2564,2.2296,2.2003,2.1764,2.1582,2.1337,2.0959,2.055,2.055,2.0715,2.1007,2.115,2.1538,2.2077,2.2237,2.2296,2.2223,2.1676,2.1462,2.1508,1.1322,1.1929,0.0,0.0,1.2542,0.0,0.0,0.0,1.3331,0.0,1.4201,1.4481,1.4786,1.5514,1.5798,1.5206,1.5884,1.5987,1.5089,1.4784,0.0,0.0,1.2845,1.1732,1.081,0.0,0.0,0.0,0.0,0.0,1.5826,1.7249,1.8881,2.0673,2.0902,0.0,2.2164,2.2189,2.1629,2.0706,2.0042,1.9421,1.8933,1.8933,0.0,1.7472,1.7403,1.7011,1.65,1.65,1.65,1.65,1.65,1.65,1.65,1.65,1.65,1.6457,1.6275,1.6222,1.6279,1.6508,0.0,0.0,0.0,0.0,1.454,0.0,0.0,0.0,0.0,0.0,0.0,1.8206,1.9479,2.059,0.0,0.0,0.0,0.0,0.0,0.0,0.0,2.8378,2.8599,2.5747,2.751,2.7679,0.0,0.0,2.4998,2.5576,2.4965,2.4558,2.444,2.3763,2.3006,2.2268,2.2268,2.2017,2.1567,2.1582,2.1384,2.0991,2.1007,2.1039,2.1055,2.143,2.1612,2.1673,2.212,2.2296,2.2296,2.2296,2.2296,2.2296,1.18,1.2406,1.2899,0.0,1.279,1.2705,0.0,0.0,0.0,0.0,1.5361,1.5846,1.6744,1.7246,1.7111,1.6059,1.6831,0.0,0.0,0.0,0.0,1.4379,1.3521,1.2856,1.2427,1.2572,0.0,1.1879,0.0,0.0,1.5975,1.7185,1.8637,2.0276,0.0,2.1274,2.1632,2.2036,2.1433,2.0162,1.9482,1.8672,0.0,0.0,1.7424,1.6939,1.7289,1.7011,1.65,1.65,1.65,1.65,1.65,1.65,1.65,1.65,1.65,1.65,1.6436,1.6414,1.6386,1.6193,1.583,1.5501,0.0,0.0,0.0,0.0,0.0,0.0,0.0,0.0,0.0,0.0,1.9368,0.0,0.0,0.0,0.0,2.2923,0.0,0.0,0.0,2.6113,2.6335,2.6107,2.6898,2.6958,0.0,0.0,0.0,2.5659,2.5947,2.5354,2.3712,2.3477,2.2841,2.1779,2.1779,2.1553,2.1166,2.146,2.1384,2.1023,2.1306,2.1445,2.1445,2.1552,2.1809,2.212,2.2237,2.2296,2.2296,2.2296,2.2296,2.2296,1.2143,0.0,0.0,1.3222,0.0,0.0,1.3486,0.0,0.0,1.5521,1.6251,0.0,1.769,1.845,1.8571,1.7771,1.8018,0.0,1.7062,0.0,0.0,1.6041,1.488,1.3931,1.3246,1.3115,0.0,1.2758,0.0,0.0,1.681,1.7252,1.8297,1.9807,0.0,2.0644,2.0923,2.099,2.0534,1.9719,1.8962,0.0,0.0,1.741,1.7055,1.6675,1.7184,1.7002,1.6531,1.6774,1.6701,1.6531,1.6774,1.6701,1.65,1.65,1.65,1.65,1.65,1.65,1.6457,1.6284,1.592,1.5588,1.5522,1.53,1.5051,0.0,0.0,0.0,0.0,0.0,0.0,0.0,0.0,0.0,0.0,0.0,0.0,0.0,2.3552,0.0,0.0,2.5493,2.5876,2.6469,2.72,0.0,0.0,0.0,0.0,2.6607,2.7621,2.7114,2.4847,2.4831,2.3919,2.2073,2.1745,2.1384,2.1007,2.1414,2.1476,2.1291,2.172,2.1913,2.1913,2.1913,2.2046,2.2296,2.2296,2.2296,2.2296,2.2296,2.2296,2.2296,1.2705,0.0,0.0,0.0,0.0,0.0,0.0,1.4836,0.0,1.6141,0.0,1.8009,1.8234,1.9289,1.9853,1.9447,0.0,1.9002,1.8916,1.8234,1.782,1.7896,1.6354,1.4988,1.3939,1.3712,0.0,0.0,0.0,0.0,1.7624,1.7318,1.7935,1.9213,0.0,0.0,0.0,1.967,1.9383,1.9266,1.8443,1.7765,1.7285,1.7285,1.6961,1.6573,1.7118,1.6993,1.6701,1.7209,1.7097,1.6795,1.725,1.7076,1.6689,1.6637,1.6595,1.6595,1.6522,1.65,1.65,1.65,1.6117,1.5754,1.5876,1.5579,1.5337,1.5483,1.5603,1.5793,0.0,0.0,0.0,0.0,0.0,0.0,0.0,0.0,0.0,0.0,0.0,0.0,0.0,0.0,2.6391,2.6971,2.7949,0.0,0.0,0.0,0.0,2.7841,2.9193,0.0,2.7029,0.0,2.5329,2.2898,2.2062,2.1356,2.0829,2.126,2.146,2.1536,2.2003,2.2237,2.2296,2.2296,2.2296,2.2296,2.2296,2.2296,2.2296,2.2296,2.2296,2.2296,1.4349,0.0,0.0,0.0,0.0,1.6624,1.7629,1.8353,1.8767,1.8626,1.9142,1.9513,1.9552,2.018,2.0131,1.9006,1.9445,0.0,0.0,0.0,0.0,1.7449,1.6813,1.6379,1.6126,1.5933,1.5688,0.0,0.0,0.0,1.6718,1.7032,1.755,1.8204,0.0,0.0,2.0701,1.9457,0.0,1.846,1.7811,1.7187,1.6651,1.6651,1.6588,1.6573,1.7118,1.7229,1.7229,1.7787,1.7907,1.7847,1.7927,1.7907,1.7727,1.7291,1.7146,1.7055,1.6616,1.65,1.65,1.65,1.6423,1.6358,1.638,1.6315,1.6144,1.5684,1.5913,1.6032,1.5554,0.0,0.0,0.0,0.0,0.0,0.0,0.0,0.0,0.0,0.0,2.422,0.0,0.0,0.0,0.0,0.0,0.0,0.0,0.0,0.0,0.0,0.0,0.0,0.0,0.0,2.5196,2.3995,2.2667,2.1285,1.9945,2.0331,2.0748,2.1118,2.1553,2.1943,2.2296,2.2296,2.2296,2.2296,2.2296,2.2296,2.2296,2.2296,2.2296,2.2296,0.0,0.0,0.0,0.0,0.0,0.0,0.0,2.0979,0.0,1.972,1.9954,2.0271,2.0271,2.0921,2.1085,2.047,2.0536,2.0439,1.9951,1.9512,1.9186,1.9036,1.7937,0.0,1.6946,1.6169,1.5984,1.6439,0.0,0.0,1.7575,1.746,1.7698,1.8294,0.0,1.9239,0.0,0.0,0.0,1.7565,1.7406,1.7007,1.6552,1.7105,1.6972,1.6637,1.7747,1.7947,1.7807,1.8341,1.8341,1.8165,1.8438,1.8322,1.8046,1.7787,1.7706,1.7605,1.7055,1.6909,1.6858,1.6573,1.65,1.65,1.65,1.65,1.6423,1.6129,1.6249,1.6534,1.6942,1.8332,0.0,0.0,0.0,0.0,0.0,0.0,0.0,0.0,0.0,0.0,0.0,0.0,0.0,0.0,0.0,0.0,0.0,0.0,0.0,0.0,0.0,0.0,0.0,0.0,0.0,2.4223,2.2755,2.141,2.0235,2.0739,2.0975,2.1039,2.1675,2.2092,2.2296,2.2296,2.2296,2.2296,2.2296,2.2296,2.2296,2.2296,2.2296,2.2296,0.0,1.667,0.0,0.0,1.9556,0.0,2.1167,2.2532,2.2758,2.0658,2.0748,2.0983,2.0899,2.1329,2.1602,2.1602,2.1123,2.0967,2.1309,2.0684,2.0331,2.0331,1.8873,1.788,1.7513,1.6316,1.6114,0.0,0.0,0.0,0.0,1.812,0.0,0.0,0.0,0.0,0.0,0.0,1.7011,1.6843,1.7161,1.7055,1.6774,1.7727,1.7585,1.7013,1.8283,1.8458,1.8185,1.8708,1.8688,1.8516,1.8949,1.8779,1.8419,1.8302,1.8283,1.8165,1.7626,1.7394,1.7188,1.6774,1.6573,1.65,1.65,1.65,1.65,1.65,1.6595,1.708,1.839,1.9853,0.0,0.0,0.0,0.0,0.0,0.0,0.0,0.0,0.0,0.0,0.0,0.0,0.0,0.0,0.0,0.0,0.0,0.0,0.0,0.0,0.0,2.9905,2.9467,0.0,2.6434,0.0,2.3077,2.1811,2.1002,2.1213,2.1243,2.1182,2.1855,2.2209,2.2296,2.2296,2.2296,2.2296,2.2296,2.2296,2.2296,2.2296,2.2398,2.2499,0.0,0.0,0.0,0.0,0.0,0.0,0.0,2.2407,2.2532,2.2269,2.2277,2.2178,2.1841,2.1132,2.0732,2.0732,1.9941,1.9492,1.9531,1.9453,1.9404,1.9404,1.8838,1.8495,1.8456,1.7639,1.7253,0.0,0.0,0.0,0.0,0.0,0.0,0.0,0.0,0.0,0.0,1.7917,1.7376,1.6584,1.7089,1.7271,1.7291,1.7887,1.8046,1.7967,1.8125,1.8145,1.8185,1.8708,1.9188,1.9566,1.9603,1.9584,1.9442,1.8968,1.8836,1.8708,1.8185,1.7666,1.7291,1.7229,1.6858,1.65,1.65,1.65,1.65,1.65,1.69,1.7525,1.8497,1.9276,2.0373,0.0,0.0,0.0,0.0,0.0,0.0,0.0,0.0,0.0,0.0,2.6479,0.0,0.0,0.0,0.0,0.0,0.0,0.0,3.0046,0.0,3.0395,3.0987,2.8818,0.0,2.6891,2.4309,2.269,2.1931,2.0881,2.083,2.1536,2.1643,2.1913,2.2296,2.2296,2.2296,2.2296,2.2296,2.2296,2.2296,2.2296,2.2733,2.319,0.0,0.0,0.0,0.0,0.0,0.0,0.0,2.2262,2.1943,2.1416,2.1348,2.1279,2.1153,2.0361,1.9832,1.9832,1.9482,1.9287,1.9287,1.9287,1.917,1.887,1.8486,1.8144,1.7891,1.7305,1.7206,0.0,0.0,0.0,0.0,0.0,0.0,0.0,0.0,1.8783,1.794,1.7747,1.7192,1.6573,1.7422,1.7585,1.7422,1.8612,1.865,1.8145,1.8458,1.8574,1.8612,1.8836,1.9043,1.9281,1.9603,1.9708,1.9657,1.9442,1.9387,1.9262,1.8727,1.8419,1.8125,1.7463,1.7126,1.6888,1.6573,1.65,1.65,1.65,1.7167,1.7996,1.8703,1.9717,2.0624,0.0,0.0,0.0,0.0,0.0,0.0,0.0,0.0,0.0,0.0,0.0,2.8125,0.0,0.0,0.0,0.0,0.0,0.0,3.1113,0.0,2.9786,3.0531,2.8446,2.7072,2.6462,2.4225,2.2994,2.2673,2.1568,2.1674,2.2685,2.2685,2.279,2.2936,2.2482,2.2564,2.297,2.297,2.3224,2.3613,2.3613,2.3814,2.4017,2.131,0.0,2.1635,0.0,2.2087,2.209,2.2129,2.1777,2.123,2.0469,2.0156,2.0049,2.0214,1.9541,1.9043,1.8926,1.8799,1.8672,1.8545,1.8535,1.8398,1.8052,1.7759,0.0,1.7197,1.6979,1.7103,1.7633,1.8275,0.0,0.0,0.0,0.0,0.0,1.9329,1.8734,1.7811,1.7691,1.72,1.6595,1.7666,1.7867,1.7686,1.9151,1.9225,1.8593,1.8817,1.8893,1.8893,1.8893,1.8893,1.8987,1.953,1.9708,1.9708,1.9708,1.9708,1.9621,1.9244,1.9024,1.8708,1.7967,1.7646,1.7442,1.7055,1.6972,1.6972,1.6972,1.7706,1.8458,1.8836,1.993,2.0753,2.0669,0.0,0.0,0.0,0.0,0.0,0.0,2.3144,2.3927,2.459,2.6454,0.0,0.0,0.0,0.0,0.0,0.0,0.0,0.0,0.0,0.0,0.0,2.8375,2.7156,2.6192,2.4467,2.3723,2.3795,2.2878,2.2921,2.3714,2.3714,2.3596,2.3359,2.2835,2.2936,2.3393,2.3393,2.3864,2.4491,2.4491,2.4643,2.4795,2.2327,2.2339,2.2264,2.2477,2.251,2.2175,2.1337,2.0869,2.0458,1.998,1.9143,1.8792,1.9258,1.887,1.8442,1.8057,1.7646,1.7227,1.6755,1.6726,1.6726,0.0,0.0,1.6716,1.6707,1.7022,1.7193,1.7223,0.0,0.0,1.9151,0.0,2.0355,1.9603,2.0136,1.927,1.7448,1.7965,1.7551,1.6595,1.7666,1.8106,1.8224,1.9281,1.969,1.9603,1.9095,1.8893,1.8893,1.8893,1.8893,1.8987,1.953,1.9708,1.9708,1.9708,1.9708,1.9708,1.969,1.9299,1.8893,1.8874,1.8477,1.8086,1.8086,1.8086,1.8086,1.8086,1.8516,1.8893,1.8893,1.9669,2.0579,2.1364,0.0,0.0,0.0,0.0,0.0,0.0,2.385,2.4909,2.5263,0.0,0.0,0.0,0.0,0.0,0.0,0.0,0.0,3.121,3.1193,0.0,2.9027,2.8993,2.8197,2.6691,2.553,2.518,2.5542,2.4797,2.4474,2.4491,2.4491,2.4068,2.3393,2.3376,2.3393,2.3393,2.3393,2.3864,2.4491,2.4491,2.4965,2.5474,2.206,2.2048,2.2006,2.209,2.1582,2.1094,2.082,2.0166,1.9434,1.8711,1.8379,1.8154,1.8008,1.7861,1.7607,0.0,1.6989,1.6853,0.0,1.6697,1.6697,1.6697,1.6436,1.6515,1.7022,1.6836,1.7205,1.8228,0.0,0.0,0.0,2.0568,2.0179,1.9183,1.9358,1.8682,1.741,1.7564,1.7422,1.7118,1.7827,1.8322,1.8708,1.9424,1.9708,1.9621,1.9095,1.9151,1.9387,1.9024,1.9151,1.9479,1.9639,1.9708,1.9708,1.9708,1.9708,1.9708,1.9708,1.9584,1.9369,1.8987,1.8765,1.8554,1.8185,1.8106,1.8204,1.8574,1.8779,1.9006,1.9387,1.9696,1.9985,2.023,2.017,0.0,0.0,0.0,0.0,0.0,2.3799,2.4942,0.0,2.7157,0.0,0.0,0.0,0.0,0.0,0.0,0.0,0.0,3.1955,0.0,2.977,2.9264,2.8231,2.6691,2.553,2.4796,2.4463,2.4991,2.5253,2.5253,2.5253,2.5118,2.4864,2.4372,2.4441,2.4898,2.4898,2.5355,2.6014,2.6014,2.615,2.6319,2.1885,2.2195,2.2311,2.195,2.1761,2.1419,2.0915,2.036,1.9671,1.8767,1.8542,1.8204,1.741,1.7192,0.0,1.6726,1.6541,1.6406,1.621,1.6063,1.6087,1.6317,1.6127,1.6343,1.702,0.0,0.0,1.8688,1.9356,1.9914,2.0365,2.0365,2.0129,1.9658,1.9207,1.8638,1.8003,1.7564,1.7353,1.7353,1.7887,1.8419,1.8968,1.9497,1.9708,1.9657,1.9332,1.9424,1.9639,1.9314,1.9424,1.9708,1.9708,1.9708,1.9708,1.9708,1.9708,1.9708,1.9708,1.9708,1.9621,1.9281,1.9207,1.9114,1.8779,1.8826,1.9018,1.9365,1.9564,1.9796,2.0122,2.0191,2.0191,2.0191,2.0191,2.0277,2.0533,0.0,0.0,0.0,0.0,0.0,0.0,2.7878,0.0,0.0,0.0,0.0,0.0,0.0,0.0,3.1921,3.1633,0.0,2.9702,2.8924,2.7926,2.6691,2.5983,2.5397,2.498,2.568,2.6015,2.6015,2.6015,2.5862,2.5559,2.5101,2.5186,2.5592,2.5592,2.6048,2.6725,2.7012,2.6945,2.6742,2.1943,2.2635,0.0,0.0,2.2609,0.0,2.1408,2.1185,2.0806,1.9783,1.9436,1.8764,1.7419,1.6981,1.6776,1.6806,0.0,0.0,0.0,1.518,1.5202,1.58,1.5911,1.6278,1.6923,1.8095,1.8741,1.8768,1.9475,1.9786,1.9748,1.9774,2.0105,2.0573,1.9442,1.8951,1.8905,1.7795,1.7315,1.7353,1.7887,1.8419,1.8968,1.9497,1.9708,1.9708,1.9708,1.9708,1.9708,1.9708,1.9708,1.9708,1.9708,1.9711,1.9729,1.9729,1.9729,1.9747,1.9782,1.9764,1.9729,1.9729,1.9711,1.9708,1.9744,2.0035,2.0314,2.0348,2.0715,2.0991,2.0991,2.0991,2.0991,2.0991,2.0991,2.1023,2.1071,0.0,0.0,0.0,0.0,0.0,0.0,2.8772,2.8578,0.0,0.0,0.0,0.0,0.0,3.187,3.1207,3.0581,2.9854,2.901,2.8264,2.7503,2.6691,2.6691,2.6691,2.6691,2.6691,2.6691,2.6691,2.6691,2.6336,2.5745,2.5745,2.5778,2.5845,2.5845,2.6251,2.6928,2.7621,2.7435,2.6962,0.0,0.0,2.2177,2.1947,2.1804,2.1575,2.1263,2.0928,2.0368,1.9373,1.9199,1.8849,1.8115,1.7636,1.7521,1.7889,1.6998,1.6597,1.7052,1.6607,1.6564,1.7115,1.6801,1.7126,1.8222,1.8537,1.8992,1.9527,1.9721,1.9597,1.9208,1.9604,1.9439,1.8794,1.8519,1.8135,1.7687,1.6999,1.6944,1.7353,1.7887,1.8419,1.8968,1.9497,1.9708,1.9708,1.9708,1.9708,1.9708,1.9708,1.9708,1.9708,1.9708,1.9909,2.0158,2.0158,2.0158,2.0244,2.0599,2.0431,2.0158,2.0158,1.9927,1.9782,2.0089,2.0229,2.0399,2.0764,2.0926,2.0991,2.0991,2.0991,2.0991,2.0991,2.0991,2.1199,2.1761,2.1841,0.0,0.0,2.6045,2.7096,2.821,2.8701,2.9125,0.0,0.0,0.0,0.0,3.0632,3.0801,3.119,3.1562,3.0888,2.9027,2.8824,2.8027,2.6691,2.6691,2.6691,2.6691,2.6691,2.6691,2.6691,2.6691,2.6928,2.7283,2.7283,2.7638,2.8197,2.8197,2.8299,2.8485,2.8654,2.862,2.8485,2.239,2.2445,2.2456,2.2227,2.2327,2.2394,2.2115,2.1674,2.1091,2.0316,1.9849,1.9327,1.8552,1.8159,1.8075,1.8444,1.7341,1.6819,1.7216,1.6547,1.637,1.6985,1.6747,1.7192,1.8432,1.8713,1.9015,1.9421,1.9421,1.9295,1.9015,1.9298,1.9404,1.9325,1.8776,1.852,1.8439,1.7583,1.7544,1.8066,1.8361,1.8798,1.9299,1.9584,1.9708,1.9708,1.9708,1.9708,1.9708,1.9708,1.9708,1.9729,1.9927,2.0124,2.0382,2.0781,2.0749,2.0682,2.0926,2.0813,2.0566,2.0348,2.0141,2.0035,2.0246,2.0601,2.0975,2.1228,2.1446,2.1584,2.1584,2.1584,2.1584,2.1584,2.1848,2.2324,2.3078,2.3457,0.0,2.672,2.7609,2.8425,2.9457,2.9823,3.0023,3.0108,0.0,0.0,3.0649,3.0632,3.0784,3.119,3.1258,3.0717,2.9499,2.8789,2.8027,2.7199,2.686,2.6877,2.7199,2.6843,2.6691,2.6691,2.6691,2.7131,2.7807,2.7807,2.8281,2.8993,2.8993,2.8993,2.9044,2.9382,2.9297,2.9044,2.2298,2.2801,2.3141,2.2667,2.3224,2.3577,2.3058,2.2506,2.1995,2.1443,2.0742,1.9921,1.8955,1.8669,1.8589,1.8735,1.7679,1.7061,1.713,1.6173,1.5902,1.6562,1.6548,1.7068,1.8191,1.8719,1.9008,1.9008,1.9008,1.8923,1.8757,1.8912,1.9467,2.0277,1.9314,1.9226,1.9679,1.8565,1.8361,1.8798,1.8874,1.9169,1.9584,1.9672,1.9729,1.98,1.98,1.9836,1.9907,1.9907,1.9907,1.9962,2.0296,2.0434,2.0618,2.1383,2.1415,2.1197,2.1197,2.1134,2.0975,2.0516,2.0416,2.0433,2.0467,2.107,2.1612,2.1688,2.2017,2.2296,2.2296,2.2381,2.2499,2.2586,2.3199,2.3959,2.4849,0.0,2.6674,2.889,2.9179,2.9704,3.1055,3.1106,3.0818,3.0311,3.0632,3.0683,0.0,3.0649,3.0954,3.119,3.0598,3.0226,3.0108,2.8568,2.7858,2.7976,2.7232,2.7266,2.7959,2.7215,2.6928,2.7046,2.6911,2.7351,2.8145,2.8145,2.8619,2.9331,2.9331,2.9331,2.9416,3.004,2.9871,2.9416,2.3707,2.3374,2.3107,2.3021,2.2755,2.2518,2.2447,2.197,2.1446,2.0893,2.0709,2.0366,1.9706,1.9576,1.9389,1.8983,1.8363,1.8166,1.8622,1.766,1.7311,1.7888,1.7476,1.7535,1.8191,1.8719,1.9008,1.9008,1.9008,1.8553,1.7682,1.851,1.8776,1.8522,1.8777,1.896,1.9018,1.8383,1.8165,1.8263,1.8708,1.8949,1.9062,1.953,1.9909,2.021,2.021,2.0449,2.0797,2.0797,2.0797,2.0813,2.0862,2.1038,2.127,2.1535,2.184,2.2092,2.2092,2.1811,2.1414,2.0991,2.0894,2.0975,2.1322,2.1506,2.1703,2.2106,2.2254,2.2296,2.2296,2.2818,2.3397,2.3914,2.4685,2.5695,2.7011,0.0,2.806,2.9736,2.9939,3.026,3.1106,3.0632,3.048,3.0987,2.9991,2.9839,3.097,2.9974,2.9924,3.1157,3.1089,3.0734,3.0125,2.8568,2.8128,2.8807,2.801,2.8061,2.879,2.7994,2.801,2.8604,2.7908,2.8432,2.9734,2.9734,3.0192,3.0852,3.0852,3.0852,3.0869,3.0987,3.0954,3.0869,2.359,2.3045,2.2656,2.2656,2.2234,2.187,2.187,2.1393,2.0981,2.0729,2.0427,2.01,1.9823,1.9547,1.9259,1.902,1.8254,1.7865,1.8129,1.7375,1.7036,1.7265,1.7061,1.7325,1.8191,1.902,1.9133,1.8556,1.8556,1.8143,1.7364,1.8125,1.8488,1.8554,1.9095,1.9332,1.9314,1.9062,1.8968,1.8987,1.9225,1.9332,1.9369,1.9603,1.9818,2.0017,2.0212,2.0449,2.0649,2.091,2.0895,2.0847,2.1212,2.1364,2.1483,2.1866,2.212,2.2296,2.2296,2.1974,2.1568,2.1368,2.1322,2.1368,2.1552,2.1794,2.2032,2.2268,2.2296,2.2415,2.2818,2.3173,2.3615,2.4295,2.5376,0.0,0.0,2.8428,2.9357,3.0565,3.0683,3.0666,3.0615,3.0311,3.0243,3.0581,2.9973,2.9888,3.0581,2.9956,2.9905,3.0581,3.0987,3.0852,3.0125,2.9379,2.9228,2.9583,2.8805,2.8839,2.9567,2.8789,2.8654,2.8976,2.8602,2.9076,3.0108,3.0108,3.0531,3.1241,3.165,3.1802,3.1802,3.1802,3.1802,3.1752,2.3032,2.2569,2.2272,2.2146,2.1797,2.1528,2.1528,2.1179,2.0887,2.0742,2.0438,2.0181,2.0055,1.9546,1.9178,1.9038,1.8021,1.7348,1.7187,1.6869,1.6637,1.6522,1.6616,1.7202,1.8346,1.9169,1.9182,1.8349,1.8246,1.7904,1.7312,1.7847,1.8322,1.8727,1.9406,1.9708,1.9708,1.98,1.9782,1.9708,1.98,1.9782,1.9708,1.9708,1.9764,1.9874,2.0193,2.0433,2.0666,2.1023,2.1085,2.1098,2.161,2.17,2.1694,2.2147,2.2296,2.2296,2.2296,2.2032,2.1764,2.1764,2.1764,2.1764,2.1764,2.2032,2.2296,2.2296,2.2446,2.2733,2.3291,2.368,2.4154,2.4866,0.0,0.0,0.0,2.9389,3.0454,3.1123,3.1291,3.1021,3.0176,3.0168,3.0206,3.0108,3.0108,3.0176,3.0362,3.0192,3.0108,3.0108,3.0818,3.092,3.0362,3.0023,3.0023,3.0345,2.9433,2.9484,3.0328,2.9583,2.9348,2.9501,2.9331,2.9668,3.0378,3.0548,3.0954,3.1532,3.2276,3.2564,3.2564,3.2564,3.2446,3.2226,2.2456,2.2334,2.2146,2.1644,2.1582,2.1603,2.1603,2.1617,2.1434,2.0861,2.1248,2.1366,2.0795,2.0257,1.9713,1.9146,1.8042,1.7149,1.6588,1.6997,1.7013,1.6522,1.6972,1.7748,1.8829,1.8924,1.8924,1.8842,1.8414,1.7881,1.7312,1.7847,1.8125,1.8204,1.9244,1.9708,1.9711,2.0089,2.0052,1.9729,2.0106,2.0035,1.9708,1.9708,1.9929,2.0263,2.0297,2.0814,2.1506,2.1536,2.1838,2.2178,2.2237,2.2237,2.2237,2.2296,2.2296,2.2296,2.2296,2.2265,2.2254,2.2254,2.2254,2.2254,2.2254,2.2282,2.2296,2.2296,2.2852,2.3325,2.3376,2.4526,2.5661,2.6354,0.0,0.0,2.9654,3.054,3.114,3.119,3.1545,3.1329,3.0213,3.0432,3.0504,3.0127,3.0108,3.0395,3.1072,3.048,3.0108,3.0108,3.0818,3.1173,3.1123,2.9771,2.9771,3.1106,2.9687,2.9738,3.1089,3.0362,3.0395,3.0987,3.0328,3.0446,3.1157,3.187,3.2175,3.2293,3.3034,3.3322,3.3322,3.3322,3.2882,3.2293,2.4259,2.3912,2.3472,2.2911,2.2517,2.214,2.1735,2.1695,2.1615,2.139,2.1568,2.1615,2.139,2.051,1.9853,1.9622,1.8526,1.7737,1.7497,1.7686,1.7706,1.7504,1.8016,1.8618,1.9323,1.9662,1.9792,1.971,1.9268,1.8786,1.8232,1.8468,1.8593,1.8631,1.9369,1.9708,1.9744,2.0124,2.007,1.9744,2.0141,2.021,2.0037,1.98,2.0122,2.0732,2.0732,2.1118,2.1627,2.1928,2.2149,2.2296,2.2296,2.2296,2.2296,2.2296,2.2296,2.2296,2.2296,2.2296,2.2296,2.2296,2.2296,2.2296,2.2296,2.2296,2.2296,2.2296,2.2885,2.3528,2.4,2.4915,2.5829,2.6556,0.0,2.8348,2.8582,2.9698,3.0345,2.989,3.0362,3.0195,2.8805,2.9257,2.9379,2.8721,2.9144,2.9313,2.9092,2.9535,3.0004,3.0468,3.1189,3.1468,3.121,3.0632,3.0651,3.119,3.0635,3.0649,3.119,3.0903,3.0937,3.1173,3.0903,3.0937,3.1207,3.1515,3.2088,3.284,3.3247,3.4062,3.4981,3.468,3.4259,3.3782,2.4914,2.4513,2.396,2.3147,2.2822,2.2534,2.2086,2.2179,2.2225,2.2053,2.2179,2.2154,2.1727,2.0812,2.0125,1.9929,1.8801,1.8106,1.8106,1.8263,1.8361,1.8361,1.8838,1.9332,1.9805,2.0312,2.0546,2.0451,2.0024,1.9537,1.9049,1.9093,1.9047,1.893,1.946,1.9764,1.9927,2.0347,2.0364,2.0139,2.055,2.0617,2.0483,2.0208,2.0481,2.0991,2.0991,2.126,2.1658,2.1957,2.218,2.2296,2.2296,2.2296,2.2296,2.2296,2.2296,2.2296,2.2296,2.2296,2.2296,2.2296,2.2296,2.2296,2.2296,2.2296,2.2364,2.2598,2.3224,2.3983,2.4711,2.5456,2.6116,2.6623,2.7334,2.7807,2.7807,2.8941,2.9567,2.9061,2.9561,2.9376,2.7943,2.8643,2.8798,2.7875,2.8552,2.8874,2.8534,2.9644,3.0508,3.1028,3.169,3.1824,3.1391,3.1031,3.097,3.119,3.097,3.097,3.119,3.119,3.119,3.119,3.119,3.1271,3.1406,3.1664,3.2486,3.3663,3.4024,3.5083,3.6305,3.5717,3.5197,3.4694,2.3877,2.3628,2.3227,2.1955,2.2276,2.2731,2.2694,2.3224,2.3399,2.2799,2.3231,2.3125,2.1852,2.1232,2.0639,1.9964,1.8818,1.8125,1.8125,1.8612,1.8912,1.8912,1.935,1.9834,2.0297,2.078,2.1023,2.1023,2.0471,2.0016,1.9621,1.9606,1.935,1.8949,1.9479,1.9929,2.0348,2.0813,2.0991,2.1039,2.143,2.1353,2.0991,2.0991,2.0991,2.1023,2.1023,2.126,2.1613,2.1613,2.1913,2.2296,2.2296,2.2296,2.2296,2.2296,2.2296,2.2296,2.2296,2.2296,2.2296,2.2296,2.2296,2.2296,2.2296,2.2296,2.2513,2.3241,2.4,2.4728,2.5456,2.6201,2.6691,2.6691,2.73,2.779,2.779,2.8484,2.8993,2.8976,2.9334,2.911,2.791,2.8905,2.9076,2.7876,2.8535,2.9314,3.0057,3.1172,3.1789,3.1807,3.2247,3.2282,3.1825,3.0675,3.048,3.119,3.0463,3.0497,3.119,3.119,3.119,3.1207,3.119,3.143,3.1876,3.2673,3.37,3.4854,3.5614,3.6428,3.7085,3.6215,3.5438,3.4694,2.636,2.6618,2.6359,2.4603,2.4458,2.4301,2.3459,2.3486,2.353,2.3355,2.3822,2.3872,2.3132,2.2806,2.2244,2.1263,2.0401,1.9719,1.9254,1.9633,1.9884,1.9884,2.0024,2.0435,2.1197,2.1353,2.1583,2.1915,2.1429,2.1117,2.1007,2.0716,2.0501,2.0383,2.0549,2.0682,2.0829,2.1244,2.126,2.1039,2.143,2.1521,2.1384,2.1102,2.1369,2.1871,2.1538,2.172,2.2092,2.2092,2.218,2.2296,2.2296,2.2296,2.2296,2.2296,2.2296,2.2296,2.2296,2.2296,2.2296,2.2296,2.2296,2.2296,2.2296,2.2296,2.2513,2.3241,2.4,2.4728,2.5456,2.6201,2.6691,2.6691,2.6877,2.7029,2.7029,2.7689,2.7977,2.7435,2.8439,2.8611,2.7165,2.832,2.8594,2.7148,2.774,2.8501,2.9279,3.0716,3.177,3.2264,3.2745,3.2919,3.2775,3.1795,3.1264,3.119,3.097,3.0987,3.119,3.119,3.1481,3.1955,3.141,3.156,3.2195,3.2822,3.3457,3.4163,3.5456,3.6217,3.6551,3.6495,3.5822,3.4912,2.7368,2.7411,2.702,2.5565,2.5315,2.5071,2.4328,2.4225,2.4225,2.4225,2.4532,2.4503,2.3896,2.3499,2.2905,2.1938,2.1221,2.0652,2.0239,2.0448,2.0649,2.0797,2.0814,2.107,2.1582,2.1779,2.2017,2.2296,2.2017,2.1779,2.1582,2.1353,2.115,2.0991,2.0991,2.1086,2.1244,2.1491,2.1568,2.1539,2.1779,2.1884,2.1838,2.1615,2.1842,2.2268,2.1988,2.2046,2.2296,2.2296,2.2296,2.2296,2.2296,2.2374,2.2463,2.2463,2.2558,2.2664,2.2664,2.2664,2.2664,2.2664,2.2484,2.2296,2.2296,2.253,2.2936,2.3678,2.4423,2.5152,2.5896,2.6404,2.6691,2.6691,2.6691,2.6691,2.6691,2.708,2.73,2.7165,2.796,2.8281,2.7673,2.8722,2.8942,2.7706,2.8168,2.8733,2.9194,3.1064,3.2326,3.2759,3.3214,3.3361,3.3199,3.2631,3.2057,3.143,3.1271,3.119,3.1207,3.1515,3.1887,3.2293,3.2138,3.2258,3.2633,3.3447,3.3847,3.4129,3.5566,3.6191,3.6274,3.6097,3.5593,3.4949,2.7261,2.6784,2.6126,2.5407,2.5278,2.5259,2.5221,2.5202,2.5202,2.5202,2.524,2.4986,2.4262,2.3636,2.2931,2.2162,2.1423,2.0991,2.0991,2.1023,2.1213,2.1582,2.1643,2.1658,2.1658,2.2092,2.2296,2.2296,2.2296,2.2092,2.1658,2.1658,2.1477,2.1118,2.1118,2.1306,2.1658,2.1658,2.1913,2.2296,2.2296,2.2296,2.2296,2.2296,2.2296,2.2296,2.2296,2.2296,2.2296,2.2296,2.2296,2.231,2.2321,2.25,2.2708,2.2733,2.296,2.32,2.32,2.32,2.32,2.32,2.2786,2.2408,2.2476,2.3003,2.3731,2.4545,2.5244,2.5925,2.6655,2.6791,2.6758,2.6758,2.6725,2.6708,2.6793,2.6793,2.7063,2.7824,2.7976,2.8281,2.8942,2.96,2.9719,2.9044,2.9437,2.971,2.971,3.1925,3.3199,3.3199,3.3578,3.362,3.3258,3.3214,3.2761,3.1861,3.1506,3.131,3.1344,3.1967,3.2286,3.2388,3.2953,3.3097,3.3017,3.418,3.4475,3.4357,3.571,3.6164,3.5991,3.5261,3.4912,3.4656,2.6997,2.7241,2.711,2.602,2.5834,2.5689,2.5259,2.5202,2.5202,2.5202,2.5577,2.5375,2.4257,2.4306,2.3793,2.216,2.1407,2.0991,2.0991,2.1291,2.1506,2.1613,2.1943,2.2152,2.2152,2.2254,2.2296,2.2296,2.2296,2.2254,2.2152,2.2152,2.2106,2.202,2.202,2.2063,2.2152,2.2152,2.2209,2.2296,2.2296,2.2296,2.2296,2.2296,2.2296,2.2296,2.2296,2.2296,2.2296,2.2296,2.2296,2.2335,2.255,2.266,2.2759,2.3021,2.3141,2.32,2.32,2.32,2.32,2.32,2.3111,2.316,2.3799,2.4062,2.4589,2.6008,2.6434,2.6771,2.7493,2.7378,2.7178,2.7178,2.6906,2.6894,2.7486,2.7553,2.7841,2.8654,2.9245,2.9448,2.9044,2.9145,2.9179,2.901,2.9919,3.0456,3.0456,3.2195,3.3199,3.3199,3.3578,3.3748,3.368,3.3361,3.2903,3.235,3.2265,3.2231,3.2214,3.1998,3.2264,3.2796,3.2012,3.1981,3.2514,3.3195,3.3248,3.3088,3.5006,3.5177,3.4394,3.4839,3.4197,3.2913,2.7278,2.7293,2.7079,2.6434,2.6332,2.6228,2.5962,2.6073,2.6129,2.5944,2.6336,2.6202,2.5078,2.4907,2.4202,2.2482,2.1999,2.1757,2.163,2.1825,2.1928,2.1928,2.218,2.2363,2.2487,2.2487,2.2487,2.2487,2.2487,2.2504,2.2552,2.2363,2.2296,2.2296,2.2296,2.2296,2.231,2.244,2.2487,2.25,2.2673,2.2738,2.2738,2.2738,2.2738,2.2738,2.2738,2.2634,2.2487,2.2487,2.2487,2.2514,2.266,2.2923,2.32,2.338,2.3555,2.3682,2.3682,2.3682,2.3682,2.3682,2.3981,2.4282,2.4384,2.4997,2.5883,2.7134,2.7652,2.8011,2.8386,2.7835,2.7303,2.7303,2.7263,2.735,2.7756,2.8128,2.8653,2.9431,2.9871,3.0168,3.0307,2.9868,2.9729,3.0127,3.0544,3.096,3.1347,3.2718,3.3494,3.3494,3.3694,3.3807,3.3807,3.3578,3.3273,3.2825,3.2599,3.2695,3.3066,3.2597,3.2812,3.3521,3.2633,3.2256,3.2368,3.3266,3.3176,3.2674,3.4359,3.4524,3.3844,3.427,3.3647,3.2362,2.7691,2.7316,2.6906,2.6906,2.6906,2.6906,2.6906,2.7194,2.7291,2.6955,2.7207,2.7016,2.6022,2.5209,2.4232,2.2889,2.2784,2.2704,2.2467,2.2457,2.2429,2.236,2.2429,2.2527,2.2695,2.281,2.2848,2.2784,2.2784,2.2815,2.2849,2.2571,2.2457,2.2457,2.2457,2.2457,2.2467,2.2704,2.2784,2.281,2.3093,2.32,2.32,2.32,2.32,2.32,2.32,2.3021,2.2784,2.2784,2.2784,2.2797,2.286,2.3247,2.3703,2.3774,2.3986,2.419,2.419,2.419,2.4226,2.4373,2.4915,2.5335,2.5058,2.6134,2.7366,2.8036,2.8772,2.924,2.9115,2.8203,2.75,2.75,2.78,2.8066,2.8186,2.8903,2.9688,3.0421,3.0523,3.0876,3.1827,3.1122,3.0871,3.1538,3.1407,3.1584,3.2249,3.3246,3.3807,3.3807,3.3807,3.3862,3.4009,3.4009,3.3913,3.3719,3.3349,3.3268,3.349,3.3246,3.3357,3.3765,3.3247,3.2679,3.2198,3.3252,3.3225,3.2587,3.3653,3.3884,3.3568,3.3293,3.2761,3.1977,2.7804,2.781,2.7754,2.7754,2.7754,2.7754,2.7754,2.7779,2.7808,2.7741,2.7791,2.7342,2.6114,2.4622,2.3542,2.3165,2.3129,2.3117,2.3087,2.3087,2.2952,2.266,2.291,2.2947,2.2708,2.3259,2.3426,2.3129,2.3129,2.3147,2.3147,2.3099,2.3087,2.3087,2.3087,2.3087,2.3087,2.3117,2.3129,2.3129,2.3177,2.32,2.32,2.32,2.32,2.32,2.32,2.3165,2.3129,2.3129,2.3129,2.3177,2.3471,2.3639,2.3764,2.4054,2.4161,2.419,2.419,2.419,2.4373,2.5062,2.5319,2.5739,2.7039,2.8059,2.8723,2.8833,2.9491,2.9838,2.9144,2.8587,2.8246,2.8246,2.8632,2.9158,2.9781,3.057,3.1361,3.2087,3.2192,3.2244,3.2383,3.2273,3.2235,3.234,3.2701,3.2943,3.3051,3.3524,3.3807,3.3807,3.3807,3.4137,3.4839,3.4839,3.5192,3.5882,3.582,3.4684,3.2678,3.3333,3.3055,3.21,3.1696,3.1427,3.1362,3.1543,3.1959,3.2518,3.2691,3.2766,3.2583,3.1201,3.0613,3.0381,2.7869,2.7897,2.7897,2.7897,2.7897,2.7897,2.7897,2.8061,2.8148,2.8081,2.8134,2.7815,2.688,2.545,2.4274,2.3547,2.3488,2.3403,2.32,2.32,2.3129,2.2984,2.3117,2.3212,2.3247,2.3555,2.3714,2.3764,2.3566,2.3488,2.3488,2.33,2.32,2.32,2.32,2.32,2.32,2.3403,2.3488,2.35,2.3682,2.3764,2.3764,2.3764,2.3764,2.3764,2.3764,2.3649,2.3488,2.3488,2.3488,2.3511,2.366,2.3827,2.4097,2.4702,2.4879,2.497,2.5419,2.5548,2.564,2.597,2.6421,2.6935,2.7651,2.8778,2.9666,2.9666,2.9941,3.0099,2.9739,2.8961,2.8407,2.8407,2.8758,2.9296,3.0092,3.0871,3.1632,3.2412,3.2729,3.2887,3.2887,3.2694,3.2741,3.3189,3.3005,3.3049,3.3518,3.3707,3.3807,3.3807,3.3807,3.3972,3.4325,3.4325,3.4631,3.5245,3.5945,3.5959,3.5263,3.4598,3.4179,3.3859,3.2711,3.2109,3.1932,3.1932,3.2299,3.2836,3.2391,3.239,3.2509,3.1794,3.1256,3.076]}]]